[[{"header":{"parameterUnit":"m.s-1","parameterCategory":1,"la1":31.0,"la2":29.5877,"lo1":-88.7671,"lo2":-86.6584,"dy":0.0162,"dx":0.0185,"nx":115,"ny":88,"refTime":"2023-05-31T06:00:00:Z","depth":0,"parameterNumber":2,"parameterNumberName":"U-component_of_WINDS"},"data":[0.0,0.0,0.0,0.0,0.0,0.0,0.0,0.0,0.0,0.0,0.0,0.0,0.0,0.0,0.0,0.0,0.0,0.0,0.0,0.0,0.0,0.0,0.0,0.0,0.0,0.0,0.0,0.0,0.0,0.0,0.0,0.0,0.0,0.0,0.0,0.0,0.0,0.0,0.0,0.0,0.0,0.0,0.0,0.0,0.0,0.0,0.0,0.0,0.0,0.0,0.0,0.0,0.0,0.0,0.0,0.0,0.0,0.0,0.0,0.0,0.0,0.0,0.0,0.0,0.0,0.0,0.0,0.0,0.0,0.0,0.0,0.0,0.0,0.0,0.0,0.0,0.0,0.0,0.0,0.0,0.0,0.0,0.0,0.0,0.0,0.0,0.0,0.0,0.0,0.0,0.0,0.0,0.0,0.0,0.0,0.0,0.0,0.0,0.0,0.0,0.0,0.0,0.0,0.0,0.0,0.0,0.0,0.0,0.0,0.0,0.0,0.0,0.0,0.0,0.0,0.0,0.0,0.0,0.0,0.0,0.0,0.0,0.0,0.0,0.0,0.0,0.0,0.0,0.0,0.0,0.0,0.0,0.0,0.0,0.0,0.0,0.0,0.0,0.0,0.0,0.0,0.0,0.0,0.0,0.0,0.0,0.0,0.0,0.0,0.0,0.0,0.0,0.0,0.0,0.0,0.0,0.0,0.0,0.0,0.0,0.0,0.0,0.0,0.0,0.0,0.0,0.0,0.0,0.0,0.0,0.0,0.0,0.0,0.0,0.0,0.0,0.0,0.0,0.0,0.0,0.0,0.0,0.0,0.0,0.0,0.0,0.0,0.0,0.0,0.0,0.0,0.0,0.0,0.0,0.0,0.0,0.0,0.0,0.0,0.0,0.0,0.0,0.0,0.0,0.0,0.0,0.0,0.0,0.0,0.0,0.0,0.0,0.0,0.0,0.0,0.0,0.0,0.0,0.0,0.0,0.0,0.0,0.0,0.0,0.0,0.0,0.0,0.0,0.0,0.0,0.0,0.0,0.0,0.0,0.0,0.0,0.0,0.0,0.0,0.0,0.0,0.0,0.0,0.0,0.0,0.0,0.0,0.0,0.0,0.0,0.0,0.0,0.0,0.0,0.0,0.0,0.0,0.0,0.0,0.0,0.0,0.0,0.0,0.0,0.0,0.0,0.0,0.0,0.0,0.0,0.0,0.0,0.0,0.0,0.0,0.0,0.0,0.0,0.0,0.0,0.0,0.0,0.0,0.0,0.0,0.0,0.0,0.0,0.0,0.0,0.0,0.0,0.0,0.0,0.0,0.0,0.0,0.0,0.0,0.0,0.0,0.0,0.0,0.0,0.0,0.0,0.0,0.0,0.0,0.0,0.0,0.0,0.0,0.0,0.0,0.0,0.0,0.0,0.0,0.0,0.0,0.0,0.0,0.0,0.0,0.0,0.0,0.0,0.0,0.0,0.0,0.0,0.0,0.0,0.0,0.0,0.0,0.0,0.0,0.0,0.0,0.0,0.0,0.0,0.0,0.0,0.0,0.0,0.0,0.0,0.0,0.0,0.0,0.0,0.0,0.0,0.0,0.0,0.0,0.0,0.0,0.0,0.0,0.0,0.0,0.0,0.0,0.0,0.0,0.0,0.0,0.0,0.0,0.0,0.0,0.0,0.0,0.0,0.0,0.0,0.0,0.0,0.0,0.0,0.0,0.0,0.0,0.0,0.0,0.0,0.0,0.0,0.0,0.0,0.0,0.0,0.0,0.0,0.0,0.0,0.0,0.0,0.0,0.0,0.0,0.0,0.0,0.0,0.0,0.0,0.0,0.0,0.0,0.0,0.0,0.0,0.0,0.0,0.0,0.0,0.0,0.0,0.0,0.0,0.0,0.0,0.0,0.0,0.0,0.0,0.0,0.0,0.0,0.0,0.0,0.0,0.0,0.0,0.0,0.0,0.0,0.0,0.0,0.0,0.0,0.0,0.0,0.0,0.0,0.0,0.0,0.0,0.0,0.0,0.0,0.0,0.0,0.0,0.0,0.0,0.0,0.0,0.0,0.0,0.0,0.0,0.0,0.0,0.0,0.0,0.0,0.0,0.0,0.0,0.0,0.0,0.0,0.0,0.0,0.0,0.0,0.0,0.0,0.0,0.0,0.0,0.0,0.0,0.0,0.0,0.0,0.0,0.0,0.0,0.0,0.0,0.0,0.0,0.0,0.0,0.0,0.0,0.0,0.0,0.0,0.0,0.0,0.0,0.0,0.0,0.0,0.0,0.0,0.0,0.0,0.0,0.0,0.0,0.0,0.0,0.0,0.0,0.0,0.0,0.0,0.0,0.0,0.0,0.0,0.0,0.0,0.0,0.0,0.0,0.0,0.0,0.0,0.0,0.0,0.0,0.0,0.0,0.0,0.0,0.0,0.0,0.0,0.0,0.0,0.0,0.0,0.0,0.0,0.0,0.0,0.0,0.0,0.0,0.0,0.0,0.0,0.0,0.0,0.0,0.0,0.0,0.0,0.0,0.0,0.0,0.0,0.0,0.0,0.0,0.0,0.0,0.0,0.0,0.0,0.0,0.0,0.0,0.0,0.0,0.0,0.0,0.0,0.0,0.0,0.0,0.0,0.0,0.0,0.0,0.0,0.0,0.0,0.0,0.0,0.0,0.0,0.0,0.0,0.0,0.0,0.0,0.0,0.0,0.0,0.0,0.0,0.0,0.0,0.0,0.0,0.0,0.0,0.0,0.0,0.0,0.0,0.0,0.0,0.0,0.0,0.0,0.0,0.0,0.0,0.0,0.0,0.0,0.0,0.0,0.0,0.0,0.0,0.0,0.0,0.0,0.0,0.0,0.0,0.0,0.0,0.0,0.0,0.0,0.0,0.0,0.0,0.0,0.0,0.0,0.0,0.0,0.0,0.0,0.0,0.0,0.0,0.0,0.0,0.0,0.0,0.0,0.0,0.0,0.0,0.0,0.0,0.0,0.0,0.0,0.0,0.0,0.0,0.0,0.0,0.0,0.0,0.0,0.0,0.0,0.0,0.0,0.0,0.0,0.0,0.0,0.0,0.0,0.0,0.0,0.0,0.0,0.0,0.0,0.0,0.0,0.0,0.0,0.0,0.0,0.0,0.0,0.0,0.0,0.0,0.0,0.0,0.0,0.0,0.0,0.0,0.0,0.0,0.0,0.0,0.0,0.0,0.0,0.0,0.0,0.0,0.0,0.0,0.0,0.0,0.0,0.0,0.0,0.0,0.0,0.0,0.0,0.0,0.0,0.0,0.0,0.0,0.0,0.0,0.0,0.0,0.0,0.0,0.0,0.0,0.0,0.0,0.0,0.0,0.0,0.0,0.0,0.0,0.0,0.0,0.0,0.0,0.0,0.0,0.0,0.0,0.0,0.0,0.0,0.0,0.0,0.0,0.0,0.0,0.0,0.0,0.0,0.0,0.0,0.0,0.0,0.0,0.0,0.0,0.0,0.0,0.0,0.0,0.0,0.0,0.0,0.0,0.0,0.0,0.0,0.0,0.0,0.0,0.0,0.0,0.0,0.0,0.0,0.0,0.0,0.0,0.0,0.0,0.0,0.0,0.0,0.0,0.0,0.0,0.0,0.0,0.0,0.0,0.0,0.0,0.0,0.0,0.0,0.0,0.0,0.0,0.0,0.0,0.0,0.0,0.0,0.0,0.0,0.0,0.0,0.0,0.0,0.0,0.0,0.0,0.0,0.0,0.0,0.0,0.0,0.0,0.0,0.0,0.0,0.0,0.0,0.0,0.0,0.0,0.0,0.0,0.0,0.0,0.0,0.0,0.0,0.0,0.0,0.0,0.0,0.0,0.0,0.0,0.0,0.0,0.0,0.0,0.0,0.0,0.0,0.0,0.0,0.0,0.0,0.0,0.0,0.0,0.0,0.0,0.0,0.0,0.0,0.0,0.0,0.0,0.0,0.0,0.0,0.0,0.0,0.0,0.0,0.0,0.0,0.0,0.0,0.0,0.0,0.0,0.0,0.0,0.0,0.0,0.0,0.0,0.0,0.0,0.0,0.0,0.0,0.0,0.0,0.0,0.0,0.0,0.0,0.0,0.0,0.0,0.0,0.0,0.0,0.0,0.0,0.0,0.0,0.0,0.0,0.0,0.0,0.0,0.0,0.0,0.0,0.0,0.0,0.0,0.0,0.0,0.0,0.0,0.0,0.0,0.0,0.0,0.0,0.0,0.0,0.0,0.0,0.0,0.0,0.0,0.0,0.0,0.0,0.0,0.0,0.0,0.0,0.0,0.0,0.7403,0.0,0.0,0.0,0.0,0.0,0.0,0.0,0.0,0.0,0.0,0.0,0.0,0.0,0.0,0.0,0.0,0.0,0.0,0.0,0.0,0.0,0.0,0.0,0.0,0.0,0.0,0.0,0.0,0.0,0.0,0.0,0.0,0.0,0.0,0.0,0.0,0.0,0.0,0.0,0.0,0.0,0.0,0.0,0.0,0.0,0.0,0.0,0.0,0.0,0.0,0.0,0.0,0.0,0.0,0.0,0.0,0.0,0.0,0.0,0.0,0.0,0.0,0.0,0.0,0.0,0.0,0.0,0.0,0.0,0.0,0.0,0.0,0.0,0.0,0.0,0.0,0.0,0.0,0.0,0.0,0.0,0.0,0.0,0.0,0.0,0.0,0.0,0.0,0.0,0.0,0.0,0.0,0.0,0.0,0.0,0.0,0.0,0.0,0.0,0.0,0.0,0.0,0.0,0.0,0.0,0.0,0.0,0.0,0.0,0.0,0.8329,0.8081,0.7951,0.7609,0.7019,0.0,0.0,0.0,0.0,0.0,0.0,0.0,0.0,0.0,0.0,0.0,0.0,0.0,0.0,0.0,0.0,0.0,0.0,0.0,0.0,0.0,0.0,0.0,0.0,0.0,0.0,0.0,0.0,0.0,0.0,0.0,0.0,0.0,0.0,0.0,0.0,0.0,0.0,0.0,0.0,0.0,0.0,0.0,0.0,0.0,0.0,0.0,0.0,0.0,0.0,0.0,0.0,0.0,0.0,0.0,0.0,0.0,0.0,0.0,0.0,0.0,0.0,0.0,0.0,0.0,0.0,0.0,0.0,0.0,0.0,0.0,0.0,0.0,0.0,0.0,0.0,0.0,0.0,0.0,0.0,0.0,0.0,0.0,0.0,0.0,0.0,0.0,0.0,0.0,0.0,0.0,0.0,0.0,0.0,0.0,0.0,0.0,0.0,0.0,0.0,0.0,0.0,0.0,0.0,0.0,0.0,0.0,0.0,0.0,0.0,0.0,0.0,0.8105,0.7613,0.6626,0.0,0.0,0.0,0.0,0.0,0.0,0.0,0.0,0.0,0.0,0.0,0.0,0.0,0.0,0.0,0.0,0.0,0.0,0.0,0.0,0.0,0.0,0.0,0.0,0.0,0.0,0.0,0.0,0.0,0.0,0.0,0.0,0.0,0.0,0.0,0.0,0.0,0.0,0.0,0.0,0.0,0.0,0.0,0.0,0.0,0.0,0.0,0.0,0.0,0.0,0.0,0.0,0.0,0.0,0.0,0.0,0.0,0.0,0.0,0.0,0.0,0.0,0.0,0.0,0.0,0.0,0.0,0.0,0.0,0.0,0.0,0.0,0.0,0.0,0.0,0.0,0.0,0.0,0.0,0.0,0.0,0.0,0.0,0.0,0.0,0.0,0.0,0.0,0.0,0.0,0.0,0.0,0.0,0.0,0.0,0.0,0.0,0.0,0.0,0.0,0.0,0.0,0.0,0.0,0.0,0.0,0.0,0.0,0.0,0.0,0.8315,0.9389,0.8884,0.0,0.6648,0.0,0.0,0.0,0.0,0.0,0.0,0.0,0.0,0.0,0.0,0.0,0.0,0.0,0.0,0.0,0.0,0.0,0.0,0.0,0.0,0.0,0.0,0.0,0.0,0.0,0.0,0.0,0.0,0.0,0.0,0.0,0.0,0.0,0.0,0.0,0.0,0.0,0.0,0.0,0.0,0.0,0.0,0.0,0.0,0.0,0.0,0.0,0.0,0.0,0.0,0.0,0.0,0.0,0.0,0.0,0.0,0.0,0.0,0.0,0.0,0.0,0.0,0.0,0.0,0.0,0.0,0.0,0.0,0.0,0.0,0.0,0.0,0.0,0.0,0.0,0.0,0.0,0.0,0.0,0.0,0.0,0.0,0.0,0.0,0.0,0.0,0.0,0.0,0.0,0.0,0.0,0.0,0.0,0.0,0.0,0.0,0.0,0.0,0.0,0.0,0.0,0.0,0.0,0.0,0.0,0.0,0.0,0.0,0.0,0.0,0.8191,0.8879,0.8382,0.7402,0.0,0.0,0.0,0.0,0.0,0.0,0.0,0.0,0.0,0.0,0.0,0.0,0.0,0.0,0.0,0.0,0.0,0.0,0.0,0.0,0.0,0.0,0.0,0.0,0.0,0.0,0.0,0.0,0.0,0.0,0.0,0.0,0.0,0.0,0.0,0.0,0.0,0.0,0.0,0.0,0.0,0.0,0.0,0.0,0.0,0.0,0.0,0.0,0.0,0.0,0.0,0.0,0.0,0.0,0.0,0.0,0.0,0.0,0.0,0.0,0.0,0.0,0.0,0.0,0.0,0.0,0.0,0.0,0.0,0.0,0.0,0.0,0.0,0.0,0.0,0.0,0.0,0.0,0.0,0.0,0.0,0.0,0.0,0.0,0.0,0.0,0.0,0.0,0.0,0.0,0.0,0.0,0.0,0.0,0.0,0.0,0.0,0.0,0.0,0.0,0.0,0.0,0.0,0.0,0.0,0.0,0.0,0.0,0.0,0.0,0.8198,0.8271,0.856,0.7961,0.6965,0.5677,0.0,0.0,0.0,0.0,0.0,0.0,0.0,0.0,0.0,0.0,0.0,0.0,0.0,0.0,0.0,0.0,0.0,0.0,0.0,0.0,0.0,0.0,0.0,0.0,0.0,0.0,0.0,0.0,0.0,0.0,0.0,0.0,0.0,0.0,0.0,0.0,0.0,0.0,0.0,0.0,0.0,0.0,0.0,0.0,0.0,0.0,0.0,0.0,0.0,0.0,0.0,0.0,0.0,0.0,0.0,0.0,0.0,0.0,0.0,0.0,0.0,0.0,0.0,0.0,0.0,0.0,0.0,0.0,0.0,0.0,0.0,0.0,0.0,0.0,0.0,0.0,0.0,0.0,0.0,0.0,0.0,0.0,0.0,0.0,0.0,0.0,0.0,0.0,0.0,0.0,0.0,0.0,0.0,0.0,0.0,0.0,0.0,0.0,0.0,0.0,0.0,0.0,0.0,0.0,0.0,0.0,0.0,0.0,0.9863,0.8917,0.8633,0.9112,0.7958,0.706,0.0,0.0,0.0,0.0,0.0,0.0,0.0,0.0,0.0,0.0,0.0,0.0,0.0,0.0,0.0,0.0,0.0,0.0,0.0,0.0,0.0,0.0,0.0,0.0,0.0,0.0,0.0,0.0,0.0,0.0,0.0,0.0,0.0,0.0,0.0,0.0,0.0,0.0,0.0,0.0,0.0,0.0,0.0,0.0,0.0,0.0,0.0,0.0,0.0,0.0,0.0,0.0,0.0,0.0,0.0,0.0,0.0,0.0,0.0,0.0,0.0,0.0,0.0,0.0,0.0,0.0,0.0,0.0,0.0,0.0,0.0,0.0,0.0,0.0,0.0,0.0,0.0,0.0,0.0,0.0,0.0,0.0,0.0,0.0,0.0,0.0,0.0,0.0,0.0,0.0,0.0,0.0,0.0,0.0,0.0,0.0,0.0,0.0,0.0,0.0,0.0,0.0,0.0,0.0,0.0,0.0,0.0,0.0,0.0,0.8834,0.8687,0.8625,0.867,0.8254,0.7696,0.0,0.0,0.0,0.0,0.0,0.0,0.0,0.0,0.0,0.0,0.0,0.0,0.0,0.0,0.0,0.0,0.0,0.0,0.0,0.0,0.0,0.0,0.0,0.0,0.0,0.0,0.0,0.0,0.0,0.0,0.0,0.0,0.0,0.0,0.0,0.0,0.0,0.0,0.0,0.0,0.0,0.0,0.0,0.0,0.0,0.0,0.0,0.0,0.0,0.0,0.0,0.0,0.0,0.0,0.0,0.0,0.0,0.0,0.0,0.0,0.0,0.0,0.0,0.0,0.0,0.0,0.0,0.0,0.0,0.0,0.0,0.0,0.0,0.0,0.0,0.0,0.0,0.0,0.0,0.0,0.0,0.0,0.0,0.0,0.0,0.0,0.0,0.0,0.0,0.0,0.0,0.0,0.0,0.0,0.0,0.0,0.0,0.0,0.0,0.0,0.0,0.0,0.0,0.0,0.0,0.0,0.0,0.0,0.0,0.8581,0.0,0.8873,0.8542,0.8248,0.7784,0.0,0.0,0.0,0.0,0.0,0.0,0.0,0.0,0.0,0.0,0.0,0.0,0.0,0.0,0.0,0.0,0.0,0.0,0.0,0.0,0.0,0.0,0.0,0.0,0.0,0.0,0.0,0.0,0.0,0.0,0.0,0.0,0.0,0.0,0.0,0.0,0.0,0.0,0.0,0.0,0.0,0.0,0.0,0.0,0.0,0.0,0.0,0.0,0.0,0.0,0.0,0.0,0.0,0.0,0.0,0.0,0.0,0.0,0.0,0.0,0.0,0.0,0.0,0.0,0.0,0.0,0.0,0.0,0.0,0.0,0.0,0.0,0.0,0.0,0.0,0.0,0.0,0.0,0.0,0.0,0.0,0.0,0.0,0.0,0.0,0.0,0.0,0.0,0.0,0.0,0.0,0.0,0.0,0.0,0.0,0.0,0.0,0.0,0.0,0.0,0.0,0.0,0.0,0.0,0.0,0.0,0.0,0.0,0.8931,0.9356,0.9537,0.9328,0.8804,0.7983,0.7266,0.0,0.0,0.0,0.0,0.0,0.0,0.0,0.0,0.0,0.0,0.0,0.0,0.0,0.0,0.0,0.0,0.0,0.0,0.0,0.0,0.0,0.0,0.0,0.0,0.0,0.0,0.0,0.0,0.0,0.0,0.0,0.0,0.0,0.0,0.0,0.0,0.0,0.0,0.0,0.0,0.0,0.0,0.0,0.0,0.0,0.0,0.0,0.0,0.0,0.0,0.0,0.0,0.0,0.0,0.0,0.0,0.0,0.0,0.0,0.0,0.0,0.0,0.0,0.0,0.0,0.0,0.0,0.0,0.0,0.0,0.0,0.0,0.0,0.0,0.0,0.0,0.0,0.0,0.0,0.0,0.0,0.0,0.0,0.0,0.0,0.0,0.0,0.0,0.0,0.0,0.0,0.0,0.0,0.0,0.0,0.0,0.0,0.0,0.0,0.0,0.0,0.0,0.0,0.0,0.0,0.0,0.0,0.0,0.0,0.8668,0.8655,0.8751,0.8896,0.7911,0.757,0.0,0.0,0.0,0.0,0.0,0.0,0.0,0.0,0.0,0.0,0.0,0.0,0.0,0.0,0.0,0.0,0.0,0.0,0.0,0.0,0.0,0.0,0.0,0.0,0.0,0.0,0.0,0.0,0.0,0.0,0.0,0.0,0.0,0.0,0.0,0.0,0.0,0.0,0.0,0.0,0.0,0.0,0.0,0.0,0.0,0.0,0.0,0.0,0.0,0.0,0.0,0.0,0.0,0.0,0.0,0.0,0.0,0.0,0.0,0.0,0.0,0.0,0.0,0.0,0.0,0.0,0.0,0.0,0.0,0.0,0.0,0.0,0.0,0.0,0.0,0.0,0.0,0.0,0.0,0.0,0.0,0.0,0.0,0.0,0.0,0.0,0.0,0.0,0.0,0.0,0.0,0.0,0.0,0.0,0.0,0.0,0.0,0.0,0.0,0.0,0.0,0.0,0.0,0.0,0.0,0.0,0.0,0.0,0.0,0.8501,0.8645,0.8762,0.8784,0.7949,0.7645,0.7971,0.0,0.0,0.0,0.0,0.0,0.0,0.0,0.0,0.0,0.0,0.0,0.0,0.0,0.0,0.0,0.0,0.0,0.0,0.0,0.0,0.0,0.0,0.0,0.0,0.0,0.0,0.0,0.0,0.0,0.0,0.0,0.0,0.0,0.0,0.0,0.0,0.0,0.0,0.0,0.0,0.0,0.0,0.0,0.0,0.0,0.0,0.0,0.0,0.0,0.0,0.0,0.0,0.0,0.0,0.0,0.0,0.0,0.0,0.0,0.0,0.0,0.0,0.0,0.0,0.0,0.0,0.0,0.0,0.0,0.0,0.0,0.0,0.0,0.0,0.0,0.0,0.0,0.0,0.0,0.0,0.0,0.0,0.0,0.0,0.0,0.0,0.0,0.0,0.0,0.0,0.0,0.0,0.0,0.0,0.0,0.0,0.0,0.0,0.0,0.0,0.0,0.0,0.0,0.0,0.0,0.0,0.0,0.0,0.8723,0.9345,0.9285,0.8483,0.8012,0.7535,0.0,0.0,0.0,0.0,0.0,0.0,0.0,0.0,0.0,0.0,0.0,0.0,0.0,0.0,0.0,0.0,0.0,0.0,0.0,0.0,0.0,0.0,0.0,0.0,0.0,0.0,0.0,0.0,0.0,0.0,0.0,0.0,0.0,0.0,0.0,0.0,0.0,0.0,0.0,0.0,0.0,0.0,0.0,0.0,0.0,0.0,0.0,0.0,0.0,0.0,0.0,0.0,0.0,0.0,0.0,0.0,0.0,0.0,0.0,0.0,0.0,0.0,0.0,0.0,0.0,0.0,0.0,0.0,0.0,0.0,0.0,0.0,0.0,0.0,0.0,0.0,0.0,0.0,0.0,0.0,0.0,0.0,0.0,0.0,0.0,0.0,0.0,0.0,0.0,0.0,0.0,0.0,0.0,0.0,0.0,0.0,0.0,0.0,0.0,0.0,0.0,0.0,0.0,0.0,0.0,0.0,0.0,0.0,0.0,0.9112,0.943,0.9432,0.898,0.7937,0.7449,0.0,0.0,0.0,0.0,0.0,0.0,0.0,0.0,0.0,0.0,0.0,0.0,0.0,0.0,0.0,0.0,0.0,0.0,0.0,0.0,0.0,0.0,0.0,0.0,0.0,0.0,0.0,0.0,0.0,0.0,0.0,0.0,0.0,0.0,0.0,0.0,0.0,0.0,0.0,0.0,0.0,0.0,0.0,0.0,0.0,0.0,0.0,0.0,0.0,0.0,0.0,0.0,0.0,0.0,0.0,0.0,0.0,0.0,0.0,0.0,0.0,0.0,0.0,0.0,0.0,0.0,0.0,0.0,0.0,0.0,0.0,0.0,0.0,0.0,0.0,0.0,0.0,0.0,0.0,0.0,0.0,0.0,0.0,0.0,0.0,0.0,0.0,0.0,0.0,0.0,0.0,0.0,0.0,0.0,0.0,0.0,0.0,0.0,0.0,0.0,0.0,0.0,0.0,0.0,0.0,0.0,0.0,0.0,0.9473,0.9133,0.954,0.9689,0.9531,0.853,0.781,0.0,0.0,0.0,0.0,0.0,0.0,0.0,0.0,0.0,0.0,0.0,0.0,0.0,0.0,0.0,0.0,0.0,0.0,0.0,0.0,0.0,0.0,0.0,0.0,0.0,0.0,0.0,0.0,0.0,0.0,0.0,0.0,0.0,0.0,0.0,0.0,0.0,0.0,0.0,0.0,0.0,0.0,0.0,0.0,0.0,0.0,0.0,0.0,0.0,0.0,0.0,0.0,0.0,0.0,0.0,0.0,0.0,0.0,0.0,0.0,0.0,0.0,0.0,0.0,0.0,0.0,0.0,0.0,0.0,0.0,0.0,0.0,0.0,0.0,0.0,0.0,0.0,0.0,0.0,0.0,0.0,0.0,0.0,0.0,0.0,0.0,0.0,0.0,0.0,0.0,0.0,0.0,0.0,0.0,0.0,0.0,0.0,0.0,0.0,0.0,0.0,0.0,0.0,0.0,0.0,0.0,0.0,0.0,0.9425,0.9083,0.9659,0.9983,0.9961,0.9324,0.833,0.0,0.0,0.0,0.0,0.0,0.0,0.0,0.0,0.0,0.0,0.0,0.0,0.0,0.0,0.0,0.0,0.0,0.0,0.0,0.0,0.0,0.0,0.0,0.0,0.0,0.0,0.0,0.0,0.0,0.0,0.0,0.0,0.0,0.0,0.0,0.0,0.0,0.0,0.0,0.0,0.0,0.0,0.0,0.0,0.0,0.0,0.0,0.0,0.0,0.0,0.0,0.0,0.0,0.0,0.0,0.0,0.0,0.0,0.0,0.0,0.0,0.0,0.0,0.0,0.0,0.0,0.0,0.0,0.0,0.0,0.0,0.0,0.0,0.0,0.0,0.0,0.0,0.0,0.0,0.0,0.0,0.0,0.0,0.0,0.0,0.0,0.0,0.0,0.0,0.0,0.0,0.0,0.0,0.0,0.0,0.0,0.0,0.0,0.0,0.0,0.0,0.0,0.0,0.0,0.0,0.0,0.0,0.0,0.9555,0.947,0.9812,0.9958,0.983,0.8747,0.8108,0.0,0.0,0.0,0.0,0.0,0.0,0.0,0.0,0.0,0.0,0.0,0.0,0.0,0.0,0.0,0.0,0.0,0.0,0.0,0.0,0.0,0.0,0.0,0.0,0.0,0.0,0.0,0.0,0.0,0.0,0.0,0.0,0.0,0.0,0.0,0.0,0.0,0.0,0.0,0.0,0.0,0.0,0.0,0.0,0.0,0.0,0.0,0.0,0.7299,0.0,0.0,0.0,0.0,0.0,0.0,0.0,0.0,0.0,0.0,0.0,0.0,0.0,0.0,0.0,0.0,0.0,0.0,0.0,0.0,0.0,0.0,0.0,0.0,0.0,0.0,0.0,0.0,0.0,0.0,0.0,0.0,0.0,0.0,0.0,0.0,0.0,0.0,0.0,0.0,0.0,0.0,0.0,0.0,0.0,0.0,0.0,0.0,0.0,0.0,0.0,0.0,0.0,0.0,0.0,0.0,0.0,0.0,0.0,0.9639,0.9513,0.9816,0.9942,0.9792,0.8912,0.8379,0.0,0.0,0.0,0.0,0.0,0.0,0.0,0.0,0.0,0.0,0.0,0.0,0.0,0.0,0.0,0.0,0.0,0.0,0.0,0.0,0.0,0.0,0.0,0.0,0.0,0.0,0.0,0.0,0.0,0.0,0.0,0.0,0.0,0.0,0.0,0.0,0.0,0.0,0.0,0.0,0.0,0.0,0.0,0.0,0.0,0.0,0.0,0.0,0.0,0.0,0.0,0.0,0.0,0.0,0.0,0.0,0.0,0.0,0.0,0.0,0.0,0.0,0.0,0.0,0.0,0.0,0.0,0.0,0.0,0.0,0.0,0.0,0.0,0.0,0.0,0.0,0.0,0.0,0.0,0.0,0.0,0.0,0.0,0.0,0.0,0.0,0.0,0.0,0.0,0.0,0.0,0.0,0.0,0.0,0.0,0.0,0.0,0.0,0.0,0.0,0.0,0.0,0.0,0.0,0.0,0.0,0.0,0.9544,0.9621,0.952,0.9827,0.9926,0.975,0.9228,0.8784,0.8381,0.0,0.0,0.0,0.0,0.0,0.0,0.0,0.0,0.0,0.0,0.0,0.0,0.0,0.0,0.0,0.0,0.0,0.0,0.0,0.0,0.0,0.0,0.0,0.0,0.0,0.0,0.0,0.0,0.0,0.0,0.0,0.0,0.0,0.0,0.0,0.0,0.0,0.0,0.7259,0.6818,0.0,0.0,0.0,0.0,0.0,0.0,0.0,0.0,0.4966,0.0,0.0,0.0,0.0,0.0,0.0,0.0,0.0,0.0,0.0,0.0,0.0,0.0,0.0,0.0,0.0,0.0,0.0,0.0,0.0,0.0,0.0,0.0,0.0,0.0,0.0,0.0,0.0,0.0,0.0,0.0,0.0,0.0,0.0,0.0,0.0,0.0,0.0,0.0,0.0,0.0,0.0,0.0,0.0,0.0,0.0,0.0,0.0,0.0,0.0,0.0,0.0,0.0,0.0,0.0,0.0,0.9917,0.9474,0.9445,0.9897,0.9964,0.9862,0.9558,0.9033,0.8707,0.8606,0.0,0.0,0.0,0.0,0.0,0.0,0.0,0.0,0.0,0.0,0.0,0.0,0.0,0.0,0.0,0.0,0.0,0.0,0.0,0.0,0.0,0.0,0.0,0.0,0.0,0.0,0.0,0.0,0.0,0.0,0.0,0.0,0.0,0.0,0.0,0.0,0.0,0.0,0.0,0.6418,0.6192,0.0,0.0,0.0,0.0,0.0,0.0,0.0,0.0,0.4396,0.0,0.0,0.0,0.0,0.0,0.0,0.0,0.0,0.0,0.0,0.0,0.0,0.0,0.0,0.0,0.0,0.0,0.0,0.0,0.0,0.0,0.0,0.0,0.0,0.0,0.0,0.0,0.0,0.0,0.0,0.0,0.0,0.0,0.0,0.0,0.0,0.0,0.0,0.0,0.0,0.0,0.0,0.0,0.0,0.0,0.0,0.0,0.0,0.0,0.0,0.0,0.0,0.0,0.0,0.0,1.0605,0.9976,0.974,0.9993,1.0005,0.9846,0.9504,0.8981,0.8628,0.0,0.0,0.0,0.0,0.0,0.0,0.0,0.0,0.0,0.0,0.0,0.0,0.0,0.0,0.0,0.0,0.0,0.0,0.0,0.0,0.0,0.0,0.0,0.0,0.0,0.0,0.0,0.0,0.0,0.0,0.0,0.0,0.0,0.0,0.0,0.0,0.0,0.0,0.0,0.0,0.5881,0.5454,0.5105,0.0,0.0,0.0,0.0,0.0,0.0,0.4326,0.399,0.0,0.0,0.0,0.0,0.0,0.0,0.0,0.0,0.0,0.0,0.0,0.0,0.0,0.0,0.0,0.0,0.0,0.0,0.0,0.0,0.0,0.0,0.0,0.0,0.0,0.0,0.0,0.0,0.0,0.0,0.0,0.0,0.0,0.0,0.0,0.0,0.0,0.0,0.0,0.0,0.0,0.0,0.0,0.0,0.0,0.0,0.0,0.0,0.0,0.0,0.0,0.0,0.0,0.0,0.0,1.0982,1.0307,0.9941,1.0002,0.9983,0.9783,0.9442,0.8833,0.8448,0.0,0.0,0.0,0.0,0.0,0.0,0.0,0.0,0.0,0.0,0.0,0.0,0.0,0.0,0.0,0.0,0.0,0.0,0.0,0.0,0.0,0.0,0.0,0.0,0.0,0.0,0.0,0.0,0.0,0.0,0.0,0.0,0.0,0.0,0.0,0.0,0.0,0.0,0.0,0.0,0.0,0.4966,0.4264,0.4214,0.0,0.0,0.0,0.0,0.4241,0.3869,0.0,0.0,0.0,0.0,0.0,0.0,0.0,0.0,0.0,0.0,0.0,0.0,0.0,0.0,0.0,0.0,0.0,0.0,0.0,0.0,0.0,0.0,0.0,0.0,0.0,0.0,0.0,0.0,0.0,0.0,0.0,0.0,0.0,0.0,0.0,0.0,0.0,0.0,0.0,0.0,0.0,0.0,0.0,0.0,0.0,0.0,0.0,0.0,0.0,0.0,0.0,0.0,0.0,0.0,0.0,0.0,1.0449,0.97,0.9536,0.9964,0.9884,0.9617,0.9149,0.8399,0.7985,0.0,0.0,0.0,0.0,0.0,0.0,0.0,0.0,0.0,0.0,0.0,0.0,0.0,0.0,0.0,0.0,0.0,0.0,0.0,0.0,0.0,0.0,0.0,0.0,0.0,0.0,0.0,0.0,0.0,0.0,0.0,0.0,0.0,0.0,0.0,0.0,0.0,0.0,0.0,0.0,0.0,0.5434,0.4884,0.3905,0.3399,0.0,0.0,0.2574,0.3714,0.3612,0.0,0.0,0.0,0.0,0.0,0.0,0.0,0.0,0.0,0.0,0.0,0.0,0.0,0.0,0.0,0.0,0.0,0.0,0.0,0.0,0.0,0.0,0.0,0.0,0.0,0.0,0.0,0.0,0.0,0.0,0.0,0.0,0.0,0.0,0.0,0.0,0.0,0.0,0.0,0.0,0.0,0.0,0.0,0.0,0.0,0.0,0.0,0.0,0.0,0.0,0.0,0.0,0.0,0.0,0.0,1.0931,1.1083,0.9939,0.9523,0.9967,0.9715,0.9417,0.9095,0.8211,0.7735,0.0,0.0,0.0,0.0,0.0,0.0,0.0,0.0,0.0,0.0,0.0,0.0,0.0,0.0,0.0,0.0,0.0,0.0,0.0,0.0,0.0,0.0,0.0,0.0,0.0,0.0,0.0,0.0,0.0,0.0,0.0,0.0,0.0,0.0,0.0,0.0,0.0,0.0,0.0,0.0,0.0,0.0,0.4756,0.4332,0.0,0.0,0.0,0.2692,0.384,0.0,0.0,0.0,0.0,0.0,0.0,0.0,0.0,0.0,0.0,0.0,0.0,0.0,0.0,0.0,0.0,0.0,0.0,0.0,0.0,0.0,0.0,0.0,0.0,0.0,0.0,0.0,0.0,0.0,0.0,0.0,0.0,0.0,0.0,0.0,0.0,0.0,0.0,0.0,0.0,0.0,0.0,0.0,0.0,0.0,0.0,0.0,0.0,0.0,0.0,0.0,0.0,0.0,0.0,0.0,0.0,0.0,1.1669,1.0143,0.9562,0.9974,0.955,0.9202,0.8905,0.8094,0.0,0.0,0.0,0.0,0.0,0.0,0.0,0.0,0.0,0.0,0.0,0.0,0.0,0.0,0.0,0.0,0.0,0.0,0.0,0.0,0.0,0.0,0.0,0.0,0.0,0.0,0.0,0.7093,0.0,0.0,0.0,0.0,0.0,0.0,0.0,0.0,0.0,0.0,0.0,0.0,0.0,0.0,0.5982,0.4752,0.452,0.4382,0.0,0.0,0.281,0.3882,0.3316,0.3036,0.0,0.0,0.0,0.0,0.0,0.0,0.0,0.0,0.0,0.0,0.0,0.0,0.0,0.0,0.0,0.0,0.0,0.0,0.0,0.0,0.0,0.0,0.0,0.0,0.0,0.0,0.0,0.0,0.0,0.0,0.0,0.0,0.0,0.0,0.0,0.0,0.0,0.0,0.0,0.0,0.0,0.0,0.0,0.0,0.0,0.0,0.0,0.0,0.0,0.0,0.0,0.0,0.0,0.0,1.1255,1.1625,1.0064,0.9464,0.9952,0.9426,0.8881,0.8385,0.8039,0.7562,0.0,0.0,0.0,0.0,0.0,0.0,0.0,0.0,0.0,0.0,0.0,0.0,0.0,0.0,0.0,0.0,0.0,0.0,0.0,0.0,0.0,0.0,0.0,0.0,0.0,0.0,0.0,0.0,0.0,0.0,0.0,0.0,0.0,0.0,0.0,0.0,0.0,0.0,0.0,0.0,0.0,0.6416,0.5223,0.4064,0.3459,0.0,0.3013,0.2613,0.3502,0.3679,0.3919,0.4442,0.0,0.0,0.0,0.0,0.0,0.0,0.0,0.0,0.0,0.0,0.0,0.0,0.0,0.0,0.0,0.0,0.0,0.0,0.0,0.0,0.0,0.0,0.0,0.0,0.0,0.0,0.0,0.0,0.0,0.0,0.0,0.0,0.0,0.0,0.0,0.0,0.0,0.0,0.0,0.0,0.0,0.0,0.0,0.0,0.0,0.0,0.0,0.0,0.0,0.0,0.0,0.0,0.0,1.1774,1.2099,1.0537,0.9804,0.9961,0.9251,0.8758,0.8566,0.8015,0.7509,0.0,0.0,0.0,0.0,0.0,0.0,0.0,0.0,0.0,0.0,0.0,0.0,0.0,0.0,0.0,0.0,0.0,0.0,0.0,0.0,0.0,0.0,0.0,0.0,0.0,0.0,0.0,0.0,0.7758,0.7564,0.7431,0.0,0.0,0.0,0.0,0.0,0.0,0.0,0.0,0.0,0.0,0.5648,0.4964,0.4433,0.0,0.0,0.3524,0.3225,0.3931,0.3862,0.3703,0.3631,0.3849,0.0,0.0,0.0,0.0,0.0,0.0,0.0,0.0,0.0,0.0,0.0,0.0,0.0,0.0,0.0,0.0,0.0,0.0,0.0,0.0,0.0,0.0,0.0,0.0,0.0,0.0,0.0,0.0,0.0,0.0,0.0,0.0,0.0,0.0,0.0,0.0,0.0,0.0,0.0,0.0,0.0,0.0,0.0,0.0,0.0,0.0,0.0,0.0,0.0,0.0,0.0,0.0,1.2114,1.2183,1.0848,1.0098,0.992,0.9125,0.8632,0.8455,0.7961,0.7546,0.0,0.0,0.0,0.0,0.0,0.0,0.0,0.0,0.0,0.0,0.0,0.0,0.0,0.0,0.0,0.0,0.0,0.0,0.0,0.0,0.0,0.0,0.0,0.0,0.0,0.0,0.0,0.0,0.8053,0.7748,0.7394,0.0,0.0,0.0,0.0,0.0,0.0,0.0,0.0,0.0,0.0,0.549,0.4869,0.47,0.4642,0.4626,0.4157,0.3946,0.4353,0.3988,0.3549,0.3203,0.0,0.0,0.0,0.0,0.0,0.0,0.0,0.0,0.0,0.0,0.0,0.0,0.0,0.0,0.0,0.0,0.0,0.0,0.0,0.0,0.0,0.0,0.0,0.0,0.0,0.0,0.0,1.2692,0.0,0.0,1.2612,0.0,0.0,0.0,0.0,0.0,0.0,0.0,0.0,0.0,0.0,0.0,0.0,0.0,0.0,0.0,0.0,0.0,0.0,0.0,0.0,0.0,0.0,1.2112,1.1729,1.0982,1.0305,0.972,0.9048,0.8461,0.7973,0.7901,0.7675,0.7212,0.0,0.0,0.0,0.0,0.0,0.0,0.0,0.0,0.0,0.0,0.0,0.0,0.0,0.0,0.0,0.0,0.0,0.0,0.0,0.0,0.0,0.0,0.0,0.0,0.0,0.0,0.875,0.8263,0.79,0.0,0.0,0.0,0.0,0.0,0.0,0.0,0.0,0.0,0.7738,0.7061,0.6253,0.5168,0.4717,0.46,0.4847,0.4804,0.4744,0.4687,0.4093,0.3567,0.0,0.0,0.0,0.0,0.0,0.0,0.0,0.0,0.0,0.0,0.0,0.0,0.0,0.0,0.0,0.0,0.0,0.0,0.0,0.0,0.0,0.0,0.0,0.0,0.0,0.0,0.0,1.2303,1.2303,0.0,0.0,0.0,0.0,0.0,0.0,0.0,0.0,0.0,0.0,0.0,1.0816,1.1313,0.0,0.0,0.0,0.0,0.0,0.0,0.0,0.0,0.0,0.0,0.0,0.0,1.2431,1.2138,1.1343,1.0597,0.991,0.9243,0.875,0.8437,0.8081,0.776,0.7473,0.0,0.0,0.0,0.0,0.0,0.0,0.0,0.0,0.0,0.0,0.0,0.0,0.0,0.0,0.0,0.0,0.0,0.0,0.0,0.0,0.0,0.0,0.0,0.0,0.0,0.8899,0.0,0.0,0.0,0.0,0.0,0.0,0.0,0.0,0.0,0.0,0.0,0.8436,0.8275,0.6937,0.5865,0.5572,0.4933,0.4565,0.0,0.0,0.0,0.0,0.0,0.0,0.0,0.0,0.0,0.0,0.0,0.0,0.0,0.0,0.3372,0.221,0.3156,0.4168,0.4278,0.0,0.0,0.0,0.0,0.0,0.0,0.0,0.0,0.0,0.0,0.0,0.0,0.0,0.0,1.2186,0.0,1.2164,0.0,0.0,0.0,0.0,0.0,0.0,0.0,0.0,1.1792,1.1715,1.0988,1.1246,1.1129,0.0,1.1012,1.128,0.0,0.0,0.0,0.0,0.0,0.0,0.0,0.0,1.2896,1.2184,1.1743,1.0952,0.9813,0.9262,0.8823,0.8439,0.8081,0.7802,0.7601,0.7383,0.7297,0.0,0.0,0.0,0.0,0.0,0.0,0.0,0.0,0.0,0.0,0.0,0.0,0.0,0.0,0.0,0.0,0.0,0.0,0.0,0.0,0.0,0.0,0.0,0.908,0.0,0.0,0.0,0.0,0.0,0.0,0.0,0.0,0.0,0.9751,0.9101,0.8692,0.8917,0.7645,0.6606,0.6272,0.0,0.0,0.0,0.0,0.0,0.0,0.0,0.4386,0.3739,0.3641,0.3511,0.3084,0.3218,0.3389,0.332,0.0,0.0,0.2442,0.3333,0.4336,0.445,0.5043,0.5652,0.6098,0.6199,0.6136,0.0,0.0,0.0,0.0,0.0,0.0,0.0,0.0,1.232,1.2365,0.0,1.2249,0.0,0.0,0.0,0.0,1.1104,1.2647,0.0,0.0,1.2707,1.2616,1.1683,1.1069,1.0734,1.0742,1.1059,1.1048,1.0699,1.0886,0.0,0.0,0.0,0.0,0.0,0.0,1.3438,1.1831,1.2094,1.1315,0.9424,0.912,0.865,0.7951,0.7907,0.7796,0.7601,0.7364,0.7334,0.7595,0.7364,0.0,0.0,0.0,0.0,0.0,0.0,0.0,0.0,0.0,0.0,0.0,0.0,0.0,0.0,0.0,0.0,0.0,0.0,0.0,0.0,0.9588,0.0,0.0,0.0,0.0,0.0,0.0,0.0,0.0,0.0,0.0,0.9763,0.957,0.9506,0.9591,0.0,0.0,0.0,0.0,0.6102,0.5436,0.5243,0.5173,0.5175,0.4595,0.4151,0.4146,0.0,0.0,0.3301,0.3307,0.3379,0.3332,0.4154,0.4592,0.4085,0.4026,0.4256,0.4889,0.5011,0.5195,0.5945,0.6172,0.6045,1.1761,0.0,0.0,0.0,0.0,1.2018,1.225,1.2392,1.2583,1.2325,1.1799,1.165,0.0,0.0,0.0,0.0,0.0,0.0,1.3127,1.255,1.3159,1.2826,1.1705,1.1653,1.1279,1.0638,1.049,1.0281,1.0002,1.0241,1.0977,1.2219,0.0,0.0,0.0,0.0,1.327,1.2396,1.2221,1.1405,0.9889,0.9199,0.8551,0.7921,0.7901,0.7802,0.7594,0.7659,0.7665,0.7601,0.7672,0.0,0.0,0.0,0.0,0.0,0.0,0.0,0.0,0.0,0.0,0.0,0.0,0.0,0.0,0.0,0.0,0.0,0.0,0.0,0.9797,0.9743,0.9611,0.0,0.0,0.0,0.0,0.0,0.0,0.0,0.0,0.0,1.0485,0.9686,0.9286,0.0,0.0,0.7971,0.7969,0.6844,0.596,0.5929,0.545,0.0,0.5175,0.5011,0.4907,0.5018,0.5129,0.5235,0.5256,0.5382,0.5463,0.541,0.5698,0.5854,0.5721,0.5568,0.5509,0.5642,0.5796,0.5992,0.6222,0.6423,0.6488,1.1835,1.1697,1.1469,1.1487,1.1748,1.2054,1.2301,1.2474,1.249,1.2255,1.1828,1.1594,1.1267,1.0918,1.183,0.0,0.0,0.0,1.4269,1.3991,1.3662,1.3091,1.2367,1.1853,1.1256,1.0609,1.051,1.0438,1.0431,1.0626,1.1552,1.3049,0.0,0.0,1.3672,1.404,1.3825,1.307,1.3112,1.2329,1.069,0.9476,0.861,0.8083,0.8153,0.806,0.7738,0.7825,0.7898,0.7877,0.7816,0.7904,0.0,0.0,0.0,0.0,0.0,0.0,0.0,0.0,0.0,0.0,0.0,0.8449,0.8229,0.0,0.0,0.0,0.8817,0.8992,0.9616,0.944,0.0,0.0,0.0,0.0,0.0,0.0,0.0,0.9868,0.9794,0.9969,1.0462,0.9689,0.9465,1.0549,0.9575,0.8768,0.8777,0.0,0.7015,0.6835,0.6125,0.5694,0.5794,0.5587,0.5458,0.5627,0.5951,0.6168,0.6225,0.6322,0.6382,0.6361,0.6366,0.6412,0.6412,0.6295,0.6206,0.6109,0.6242,0.6392,0.6347,0.6517,0.6564,1.2428,1.2667,1.1962,1.1902,1.2289,1.2365,1.2646,1.2954,1.2386,1.2282,1.2492,1.1999,1.182,1.1959,1.294,0.0,1.4354,1.5394,1.5842,1.5758,1.4249,1.3493,1.3381,1.1843,1.0998,1.0787,1.103,1.1321,1.168,1.1838,1.2672,1.4083,1.3371,1.3268,1.3843,1.4796,1.4781,1.3796,1.4253,1.3485,1.1371,0.9851,0.8835,0.8375,0.8621,0.8498,0.7948,0.7955,0.8057,0.8245,0.7819,0.7891,0.8482,0.0,0.0,0.0,0.0,0.0,0.0,0.0,0.0,0.0,0.0,0.0,0.0,0.0,0.0,0.9258,0.8745,0.0,0.9458,0.8981,0.0,0.0,0.0,1.0065,1.0304,1.0277,1.0338,1.0591,0.0,0.0,1.0044,0.9638,0.9874,1.1331,1.0865,1.0167,0.9545,0.9123,0.869,0.7882,0.7165,0.6764,0.6802,0.6366,0.6056,0.6305,0.6365,0.6536,0.6602,0.6583,0.6575,0.6653,0.6592,0.6625,0.6609,0.67,0.6584,0.6667,0.6498,0.6406,0.6404,0.642,0.6415,1.3947,1.4778,1.4587,1.3941,1.3128,1.3847,1.4043,1.3841,1.4032,1.3622,1.2836,1.3235,1.3796,1.4446,1.4964,1.5513,1.6087,1.6373,1.6332,1.6057,1.5078,1.4367,1.3798,1.2586,1.2156,1.2404,1.2282,1.2559,1.3167,1.3526,1.3981,1.4535,1.4603,1.4691,1.4774,1.5017,1.4897,1.439,1.3589,1.2127,1.004,0.9725,0.9351,0.8852,0.9134,0.8964,0.8241,0.8401,0.8353,0.8015,0.7696,0.7511,0.7466,0.6863,0.0,0.0,0.0,0.0,0.0,0.0,0.0,0.0,0.0,0.9183,0.7522,0.0,0.8968,0.0,0.8863,0.9554,0.977,0.9656,0.0,0.0,1.0659,1.0755,1.0629,1.1132,1.1278,1.0748,1.0479,1.0487,1.0858,1.011,0.9855,1.0686,1.0133,0.9641,0.9783,0.9186,0.8679,0.8586,0.7988,0.7526,0.7522,0.7521,0.7416,0.7515,0.7656,0.7746,0.7757,0.7763,0.7845,0.7969,0.7997,0.8066,0.8156,0.8226,0.8202,0.8127,0.7282,0.6412,0.6412,0.6412,0.6412,1.5206,1.5998,1.5841,1.539,1.4858,1.5359,1.5207,1.4704,1.4869,1.4538,1.3903,1.4213,1.4902,1.5798,1.6176,1.6772,1.7538,1.7757,1.774,1.7527,1.6537,1.5878,1.5483,1.4157,1.3766,1.4141,1.3581,1.374,1.4513,1.4672,1.5058,1.5686,1.587,1.5928,1.5883,1.5542,1.5294,1.5096,1.3924,1.2437,1.0658,1.0505,1.0105,0.936,0.9466,0.9187,0.8457,0.8565,0.8565,0.8395,0.7847,0.7629,0.776,0.6657,0.6131,0.0,0.0,0.0,0.0,0.0,0.0,0.0,0.0,0.0,0.0,0.0,0.9179,0.8463,0.9111,0.9718,1.0052,0.9809,0.9869,1.0467,1.0761,1.0858,1.0713,1.105,1.1207,1.1086,1.054,1.0391,1.0935,1.0216,0.9762,1.0265,0.9918,0.9707,0.9906,0.9545,0.9259,0.9335,0.8755,0.8141,0.7874,0.7864,0.793,0.7981,0.807,0.8128,0.8178,0.822,0.8267,0.8462,0.8523,0.8575,0.8759,0.88,0.88,0.8676,0.8102,0.7406,0.7011,0.6659,0.6412,1.638,1.6995,1.6588,1.664,1.6979,1.6918,1.6401,1.5561,1.539,1.5346,1.5389,1.5167,1.5674,1.6684,1.7039,1.7745,1.8705,1.9111,1.9277,1.9231,1.8061,1.7515,1.747,1.6023,1.5539,1.5854,1.505,1.5084,1.5926,1.5798,1.6172,1.7028,1.7036,1.7027,1.7018,1.6193,1.5624,1.5284,1.439,1.3212,1.1826,1.1429,1.0762,0.9817,0.9658,0.9273,0.8659,0.8606,0.8665,0.8763,0.7963,0.7725,0.8222,0.6465,0.5668,0.0,0.5846,0.0,0.0,0.0,0.0,0.0,0.0,0.0,0.0,0.9312,0.965,0.9643,0.9519,0.9695,1.0311,0.9816,0.971,1.033,1.0653,1.0791,1.0797,1.0764,1.0934,1.1438,1.0483,1.0078,1.0714,1.0124,0.9703,0.9973,1.0019,0.9961,1.0016,0.9963,0.9937,1.0016,0.9462,0.8846,0.8339,0.8163,0.8199,0.8263,0.8362,0.8288,0.8479,0.8486,0.8555,0.8748,0.8885,0.8911,0.9083,0.9147,0.9147,0.9221,0.9072,0.8598,0.7755,0.7083,0.6562,1.7985,1.8832,1.8233,1.8178,1.8592,1.8946,1.8076,1.6463,1.6421,1.6622,1.6931,1.6646,1.7139,1.8153,1.8267,1.8608,1.916,1.9266,1.9277,1.926,1.8499,1.8136,1.806,1.7066,1.6909,1.7501,1.7141,1.7268,1.7879,1.7988,1.7998,1.788,1.7712,1.7712,1.7807,0.0,0.0,0.0,1.2968,1.2318,1.1235,1.099,1.0607,1.0049,0.9691,0.0,0.8711,0.8661,0.8395,0.779,0.7138,0.0,0.0,0.0,0.0,0.0,0.0,0.0,0.0,0.0,0.0,0.0,0.8832,0.9169,0.8786,0.9135,0.9649,1.0328,1.0227,1.026,1.0587,1.0521,1.0563,1.0906,1.1189,1.1339,1.137,1.1688,1.1856,1.1518,1.1034,1.0676,1.0546,0.9988,0.9698,0.9961,1.0016,1.0016,1.0016,1.0016,1.0016,0.9994,0.9816,0.9728,0.9619,0.951,0.9454,0.963,0.9613,0.9587,0.9588,0.9606,0.9772,1.0061,1.0208,1.0288,1.0626,1.0748,1.065,1.0728,1.0207,0.9324,0.7928,0.7506,0.7182,1.9456,2.009,1.9786,1.9905,0.0,2.0174,1.9531,1.8543,1.8158,1.8125,1.8322,1.8157,1.8518,1.9259,1.9231,1.9483,1.9941,1.9941,1.9931,1.9913,1.9592,1.9417,1.9417,1.8645,1.8644,1.9225,1.8507,1.8443,1.9013,1.8814,1.8648,1.8526,1.8248,1.8202,1.8338,1.6519,1.4647,1.2806,1.2639,1.1973,1.0872,1.1025,1.0779,1.0015,0.9803,0.0,0.0,0.0,0.0,0.0,0.0,0.0,0.0,0.6518,0.0,0.6418,0.6786,0.7076,0.73,0.8084,0.8543,0.8548,0.9519,0.9962,0.9655,0.9854,1.0189,1.062,1.067,1.0749,1.0876,1.0894,1.0948,1.1111,1.1327,1.1508,1.1531,1.1858,1.199,1.1726,1.1387,1.1046,1.0723,1.0278,0.9958,1.0,1.0016,1.0016,1.0016,1.0016,1.0016,1.0016,1.0016,1.0016,1.0016,1.0016,1.0016,1.0016,1.0016,1.0016,1.0016,1.0085,1.0209,1.0423,1.0607,1.0816,1.0986,1.1123,1.1194,1.1169,1.0875,1.0212,0.9019,0.8474,0.7953,2.0925,2.1207,2.1089,2.1314,2.1648,2.1052,2.078,2.0656,1.971,0.0,0.0,1.9277,1.9512,1.9902,1.9912,2.0156,2.0576,2.0596,2.0596,2.0596,2.0596,2.0596,2.0595,2.011,2.012,2.0537,1.9543,1.9286,1.9773,1.9249,1.9005,1.9032,1.8695,1.8461,1.8208,1.6119,1.4363,1.3128,1.2577,1.182,1.0787,1.1106,1.0878,0.9986,0.9858,0.943,0.8706,0.8667,0.8716,0.8794,0.8292,0.8139,0.8452,0.7887,0.7613,0.7854,0.7885,0.8043,0.8388,0.912,0.9597,0.9692,1.0435,1.0876,1.0757,1.0815,1.0846,1.0846,1.1044,1.1165,1.1165,1.1135,1.1117,1.1159,1.1328,1.1466,1.1581,1.1767,1.1924,1.192,1.1621,1.1258,1.0919,1.0538,1.0229,1.0072,1.0016,1.0016,1.0016,1.0016,1.0016,1.0016,1.0016,1.0016,1.0016,1.0098,1.0077,1.0016,1.006,1.0077,1.004,1.0142,1.0243,1.0304,1.0593,1.0787,1.0906,1.1023,1.1151,1.1189,1.1194,1.0998,1.0364,0.969,0.8895,2.2403,2.2406,2.1825,2.1645,2.1699,2.1946,2.1877,2.1497,1.9987,1.9305,1.9277,1.9277,1.9521,1.9912,1.9912,2.0165,2.0605,2.0596,2.0596,2.0596,2.0596,2.0596,2.0595,2.0508,2.0508,2.0595,2.042,2.0314,2.0197,2.011,1.9812,1.9297,1.9032,1.8305,1.7082,1.6138,1.4788,1.3053,1.2034,1.1463,1.1291,1.0762,1.0399,1.0245,0.9706,0.9248,0.8962,0.8947,0.8683,0.808,0.7977,0.7872,0.7752,0.7674,0.7756,0.8129,0.8717,0.9084,0.9176,0.9982,1.07,1.1151,1.1528,1.1623,1.1395,1.1395,1.1394,1.1375,1.1399,1.1435,1.1423,1.1237,1.1189,1.1406,1.1273,1.1334,1.1786,1.1894,1.2015,1.2213,1.1893,1.1453,1.1024,1.06,1.0286,1.0072,1.0038,1.0016,1.0016,1.0016,1.0016,1.0016,1.0016,1.0016,1.006,1.0316,1.0316,1.0038,1.0272,1.0316,1.0038,1.009,1.0159,1.0262,1.0407,1.0569,1.0816,1.0915,1.1014,1.1132,1.1175,1.112,1.0949,1.0777,1.0055,2.3622,2.4042,2.3758,2.3989,2.4492,2.3956,2.3404,2.2768,2.1524,2.0614,2.0028,1.9999,2.0107,2.0264,2.0283,2.0508,2.0928,2.0693,2.0723,2.0898,2.0703,2.0596,2.0596,2.0596,2.0596,2.0596,2.0596,2.0547,2.0469,2.045,2.0265,1.985,1.9619,1.8867,1.764,1.6696,1.5518,1.405,1.2303,1.1256,1.0971,1.0638,1.0419,1.0301,0.9987,0.9711,0.9451,0.9286,0.9078,0.8777,0.8623,0.8645,0.8827,0.8843,0.9046,0.9523,1.0024,1.0324,1.0493,1.1031,1.146,1.1688,1.1834,1.1918,1.1942,1.1784,1.1725,1.1719,1.1579,1.1575,1.1695,1.1346,1.1274,1.1689,1.1605,1.1695,1.2045,1.227,1.2391,1.2485,1.2355,1.206,1.1568,1.1128,1.0707,1.0393,1.0168,1.0016,1.0016,1.0016,1.0016,1.0016,1.0016,1.0103,1.025,1.025,1.0294,1.0316,1.0267,1.0212,1.0047,1.0246,1.0416,1.0227,1.0482,1.0716,1.0681,1.0778,1.0934,1.1019,1.1132,1.1179,1.1169,1.088,0.999,2.4939,2.5643,2.5655,2.6147,2.6781,2.5592,2.4645,2.3864,2.2958,2.1957,2.0977,2.0781,2.0811,2.0869,2.0791,2.0957,2.1279,2.1025,2.1055,2.1298,2.1045,2.0879,2.0889,2.0811,2.0732,2.0732,2.0654,2.0596,2.0596,2.0596,2.0508,2.0265,1.9983,1.9338,1.8361,1.7499,1.6341,1.486,1.31,1.1819,1.1136,1.0968,1.0823,1.0669,1.0578,1.04,1.0134,0.9926,0.9818,0.9813,0.9637,0.977,1.0283,1.0268,1.0494,1.1065,1.1217,1.1386,1.1659,1.1925,1.2071,1.2071,1.2233,1.239,1.2583,1.2591,1.2348,1.2033,1.1761,1.1689,1.1798,1.1478,1.1382,1.1834,1.184,1.1924,1.2264,1.243,1.2569,1.2662,1.2705,1.2501,1.2057,1.1666,1.1214,1.0674,1.0316,1.012,1.0033,1.006,1.0125,1.0125,1.0081,1.0164,1.0479,1.0322,1.0262,1.0551,1.0439,1.031,1.0306,1.0666,1.0855,1.052,1.0837,1.1025,1.0608,1.0697,1.0871,1.0877,1.0943,1.1023,1.1019,1.0742,1.006,2.6664,2.6729,2.6717,2.6801,2.6822,2.6007,2.5184,2.4375,2.3491,2.2636,2.1892,2.1327,2.1417,2.168,2.1338,2.1416,2.1807,2.1798,2.1777,2.1837,2.1808,2.1778,2.171,2.1335,2.115,2.1083,2.0781,2.0596,2.0596,2.0596,2.0518,2.0275,1.9841,1.9321,1.8645,1.8455,1.7234,1.4875,1.4604,1.3866,1.2645,1.2064,1.1768,1.1744,1.1455,1.123,1.1079,1.1051,1.0932,1.0788,1.0791,1.1053,1.1511,1.1384,1.1596,1.2309,1.2001,1.1879,1.2196,1.2463,1.2632,1.2651,1.3156,1.3486,1.3594,1.4065,1.3778,1.2653,1.2049,1.1988,1.1882,1.1706,1.1708,1.2006,1.1815,1.1718,1.2183,1.2099,1.2153,1.2662,1.2705,1.2528,1.2143,1.1907,1.1521,1.0701,1.0528,1.0354,1.0103,1.0359,1.0506,1.0467,1.0255,1.025,1.0556,1.0421,1.0464,1.0618,1.0788,1.0741,1.0709,1.0938,1.1214,1.1045,1.1192,1.1237,1.103,1.0955,1.0909,1.0783,1.0739,1.0678,1.0707,1.0829,1.062,2.7078,2.7354,2.7385,2.7385,2.7316,2.7015,2.6675,2.6274,2.5466,2.4746,2.4106,2.3176,2.2429,2.1896,2.1699,2.1835,2.2227,2.2002,2.2031,2.2217,2.2032,2.1915,2.1846,2.1414,2.1218,2.1169,2.0781,2.0596,2.0596,2.0596,2.0547,2.0489,2.0265,2.0004,1.9599,1.9085,1.7906,1.617,1.5594,1.4759,1.3615,1.2625,1.2229,1.2375,1.2122,1.1959,1.1952,1.1816,1.1628,1.1454,1.1447,1.1631,1.2017,1.1917,1.2081,1.2553,1.2562,1.2641,1.2911,1.2933,1.3121,1.3485,1.3617,1.3843,1.4251,1.4545,1.431,1.362,1.3359,1.3372,1.3457,1.318,1.2942,1.2929,1.2713,1.2552,1.2508,1.2424,1.2466,1.2674,1.2705,1.2641,1.2378,1.1929,1.1343,1.0717,1.0593,1.0484,1.0125,1.0576,1.0852,1.0679,1.0663,1.096,1.1262,1.0964,1.0942,1.1187,1.1133,1.09,1.1107,1.1413,1.165,1.1392,1.158,1.1581,1.1228,1.1281,1.1244,1.095,1.0656,1.0593,1.0593,1.0835,1.0793,2.7565,2.789,2.7914,2.7914,2.7926,2.7914,2.7777,2.751,2.6873,2.6312,2.5702,2.4504,2.3502,2.2645,2.2235,2.2285,2.2586,2.2373,2.2383,2.2615,2.2373,2.2236,2.2187,2.1761,2.1566,2.1491,2.117,2.0888,2.0801,2.0752,2.0762,2.0772,2.0772,2.0683,2.0497,1.9885,1.8979,1.7768,1.6864,1.593,1.4846,1.3669,1.3039,1.3012,1.2725,1.2602,1.2672,1.2494,1.2332,1.2181,1.2189,1.2331,1.2557,1.2544,1.2601,1.28,1.3131,1.3349,1.347,1.3555,1.3781,1.4139,1.4272,1.4566,1.4901,1.5131,1.5133,1.4945,1.4941,1.4918,1.4404,1.4179,1.3972,1.3868,1.3536,1.3198,1.2996,1.2805,1.2581,1.2687,1.2705,1.2705,1.2592,1.2036,1.1408,1.1128,1.102,1.0831,1.0554,1.1003,1.1343,1.1047,1.1305,1.1564,1.1869,1.1366,1.1344,1.1639,1.1498,1.1273,1.1504,1.1941,1.2199,1.2072,1.2191,1.2072,1.1684,1.1619,1.1464,1.1018,1.069,1.0511,1.0403,1.0636,1.074,2.843,2.8442,2.8474,2.843,2.8442,2.843,2.7991,2.7348,2.7229,2.668,2.583,2.4946,2.4425,2.4214,2.3069,2.2703,2.3013,2.3015,2.2996,2.3023,2.3025,2.3023,2.3033,2.2633,2.2418,2.2287,2.1906,2.1556,2.121,2.1181,2.1171,2.1161,2.1191,2.1161,2.1141,2.1061,2.0549,1.9379,1.857,1.7679,1.6622,1.5437,1.4413,1.3681,1.3307,1.3187,1.3174,1.3167,1.3134,1.3134,1.3166,1.3309,1.3478,1.3343,1.3247,1.332,1.3749,1.3928,1.3872,1.4405,1.4775,1.4664,1.5498,1.6064,1.5775,1.6134,1.6363,1.6519,1.6357,1.5784,1.4408,1.4421,1.4405,1.4314,1.375,1.3547,1.3634,1.2943,1.2517,1.2681,1.2747,1.2705,1.2677,1.2272,1.195,1.1843,1.1886,1.1687,1.13,1.1607,1.1864,1.1859,1.188,1.1999,1.197,1.1635,1.1486,1.1772,1.1939,1.1735,1.2109,1.2445,1.2573,1.2708,1.274,1.2565,1.2146,1.1795,1.1484,1.1075,1.0625,1.0394,1.0221,1.0404,1.0531,2.851,2.851,2.851,2.851,2.851,2.851,2.8319,2.8039,2.8039,2.7531,2.6685,2.6052,2.5454,2.4846,2.4073,2.3484,2.312,2.3101,2.3101,2.3101,2.3101,2.3101,2.3062,2.2691,2.2498,2.2428,2.2099,2.1823,2.1689,2.165,2.165,2.165,2.165,2.166,2.166,2.166,2.1108,2.0077,1.956,1.8544,1.6975,1.6205,1.5454,1.4546,1.4181,1.4027,1.4027,1.3854,1.3768,1.3774,1.3798,1.3844,1.39,1.3838,1.3824,1.383,1.4007,1.4313,1.4734,1.4901,1.5413,1.6219,1.6324,1.6558,1.671,1.6722,1.6602,1.6472,1.6607,1.618,1.5703,1.5642,1.5649,1.5259,1.4972,1.4628,1.4287,1.3654,1.3241,1.326,1.3003,1.2705,1.2619,1.2293,1.2015,1.1993,1.1993,1.1822,1.1585,1.1935,1.2342,1.2143,1.225,1.2443,1.2448,1.2146,1.1977,1.2169,1.2289,1.2265,1.2477,1.2596,1.2703,1.2701,1.2846,1.2821,1.2344,1.2036,1.1693,1.1219,1.0755,1.0333,1.0079,1.0255,1.0328,2.851,2.851,2.851,2.851,2.851,2.851,2.851,2.851,2.849,2.8254,2.7737,2.6795,2.598,2.5413,2.4479,2.3688,2.3149,2.3249,2.3259,2.3101,2.3101,2.3101,2.3052,2.2799,2.2693,2.2635,2.2275,2.2092,2.21,2.209,2.2111,2.209,2.208,2.2111,2.2111,2.209,2.1663,2.0983,2.0518,1.9404,1.7813,1.7004,1.6239,1.5379,1.4957,1.4696,1.4507,1.4242,1.4109,1.4109,1.4109,1.4109,1.4109,1.4377,1.4517,1.4538,1.4803,1.5193,1.5739,1.5889,1.6404,1.7249,1.7151,1.7111,1.7371,1.6955,1.6631,1.6472,1.6551,1.6578,1.648,1.6554,1.6504,1.6072,1.5837,1.5526,1.5047,1.4419,1.3949,1.3639,1.3328,1.2988,1.2705,1.2421,1.2272,1.2229,1.2229,1.2079,1.195,1.2229,1.2619,1.2314,1.2485,1.2613,1.2619,1.2424,1.2299,1.2469,1.2514,1.2566,1.2632,1.2729,1.2765,1.2735,1.2741,1.2759,1.2597,1.2283,1.1864,1.1413,1.09,1.0425,1.0256,1.0099,1.0192,2.851,2.851,2.851,2.851,2.851,2.851,2.851,2.851,2.851,2.8703,2.8733,2.692,2.6362,2.6206,2.473,2.3403,2.3572,2.3856,2.3634,2.3142,2.3101,2.3101,2.3091,2.3052,2.3033,2.3038,2.2691,2.2522,2.2508,2.2519,2.2498,2.2498,2.251,2.2498,2.2529,2.2498,2.2488,2.2195,2.1498,2.0461,1.9465,1.8057,1.6834,1.5856,1.5484,1.5097,1.4561,1.4275,1.4128,1.4136,1.4095,1.4109,1.4292,1.4866,1.5352,1.549,1.6144,1.6576,1.678,1.7371,1.7545,1.7703,1.7789,1.7789,1.7473,1.7057,1.6735,1.667,1.6686,1.6665,1.6665,1.6673,1.6669,1.6628,1.6147,1.5795,1.5609,1.511,1.444,1.3921,1.3646,1.3413,1.2939,1.2662,1.2625,1.264,1.2652,1.263,1.2556,1.2685,1.2707,1.2662,1.2704,1.2774,1.2732,1.2683,1.2677,1.2683,1.2665,1.2681,1.2711,1.2777,1.2783,1.2765,1.2801,1.2798,1.2692,1.2378,1.2036,1.1564,1.1047,1.0684,1.0524,1.0401,1.0185,2.851,2.851,2.851,2.851,2.851,2.851,2.851,2.851,2.851,2.8811,2.8959,2.7801,2.7671,2.8063,2.7015,2.6214,2.5971,2.5487,2.4502,2.332,2.3123,2.3101,2.3101,2.3101,2.3101,2.3091,2.2984,2.2916,2.2916,2.2918,2.2896,2.2927,2.2918,2.2927,2.2908,2.2906,2.2906,2.2838,2.229,2.1195,1.9633,1.8757,1.7544,1.5988,1.5545,1.5291,1.5117,1.4649,1.4396,1.4397,1.4188,1.4349,1.4922,1.5248,1.5656,1.6227,1.6514,1.7005,1.7525,1.7836,1.8238,1.8536,1.8574,1.8262,1.7858,1.7432,1.7025,1.6779,1.6689,1.6689,1.6689,1.6689,1.6689,1.6689,1.6525,1.636,1.6257,1.579,1.5131,1.4468,1.399,1.3631,1.3383,1.3113,1.2862,1.2942,1.2967,1.2967,1.2961,1.2942,1.2876,1.2765,1.2843,1.2876,1.2816,1.281,1.2846,1.2774,1.2741,1.2705,1.2747,1.2765,1.2777,1.2789,1.281,1.2798,1.2677,1.2513,1.2186,1.195,1.1607,1.1284,1.096,1.0722,1.0506,2.851,2.851,2.851,2.851,2.851,2.851,2.851,2.851,2.851,2.8811,2.9,2.8077,2.8186,2.8767,2.7966,2.7294,2.6998,2.66,2.5435,2.3757,2.32,2.3113,2.3101,2.3101,2.3101,2.3101,2.3101,2.3101,2.3101,2.3101,2.3091,2.3091,2.3101,2.3091,2.3101,2.3101,2.3101,2.3035,2.2728,2.1748,2.0345,1.9687,1.848,1.668,1.6206,1.5914,1.5588,1.5422,1.5273,1.5073,1.5029,1.536,1.5842,1.6185,1.6609,1.7078,1.7525,1.7928,1.8399,1.8507,1.8687,1.9123,1.8922,1.8491,1.804,1.7635,1.7208,1.68,1.6689,1.6689,1.6689,1.6689,1.6689,1.6689,1.6697,1.6689,1.6643,1.6485,1.6032,1.548,1.5085,1.4627,1.4065,1.3753,1.3324,1.3325,1.325,1.3177,1.3147,1.3093,1.2942,1.2874,1.294,1.2924,1.2882,1.2924,1.3003,1.2894,1.2768,1.2735,1.2723,1.2723,1.2729,1.2735,1.2738,1.275,1.2662,1.2683,1.2485,1.2293,1.2015,1.165,1.1241,1.1068,1.0852,2.855,2.851,2.851,2.851,2.851,2.851,2.851,2.851,2.851,2.8847,2.9,2.8122,2.8129,2.8561,2.8012,2.742,2.6974,2.7195,2.6421,2.4799,2.3759,2.3179,2.3101,2.3101,2.3101,2.3101,2.3166,2.3176,2.324,2.3298,2.3169,2.3288,2.3296,2.3169,2.3208,2.3171,2.3149,2.3079,2.2882,2.2148,2.0998,2.0661,1.9573,1.7521,1.735,1.6978,1.6406,1.6705,1.6662,1.6122,1.6377,1.6629,1.6963,1.7632,1.7933,1.8135,1.8882,1.9045,1.9233,1.9154,1.9193,1.9233,1.8982,1.8511,1.8052,1.7696,1.729,1.6771,1.6689,1.6689,1.6689,1.6753,1.6789,1.6761,1.6753,1.6713,1.6753,1.703,1.6848,1.6551,1.6562,1.6264,1.4834,1.4573,1.4141,1.373,1.3538,1.3441,1.332,1.322,1.3037,1.3012,1.3051,1.3045,1.3027,1.3256,1.3316,1.3153,1.3009,1.294,1.2868,1.2856,1.2892,1.2868,1.2783,1.2759,1.2735,1.2738,1.2622,1.2357,1.2079,1.1779,1.1628,1.1515,1.1278,2.8895,2.853,2.851,2.851,2.851,2.851,2.851,2.851,2.8522,2.9039,2.9531,2.9078,2.9469,3.0723,3.008,2.9771,2.9403,2.8477,2.7294,2.5937,2.4335,2.3462,2.3149,2.3101,2.3101,2.3137,2.3438,2.3632,2.364,2.3854,2.4001,2.4059,2.3962,2.3867,2.3682,2.3562,2.3415,2.3118,2.2904,2.2334,2.1369,2.0854,1.9983,1.8826,1.8496,1.828,1.8034,1.8342,1.8148,1.7425,1.7178,1.7606,1.8389,1.8508,1.8742,1.9247,1.9276,1.9301,1.9311,1.9301,1.9292,1.9292,1.9188,1.8814,1.8072,1.7919,1.7473,1.6914,1.6689,1.6713,1.6773,1.6984,1.7199,1.739,1.7059,1.6868,1.7088,1.7244,1.7294,1.7351,1.7077,1.6418,1.5691,1.4988,1.4511,1.4032,1.382,1.3755,1.3604,1.3471,1.3314,1.3189,1.3196,1.3189,1.3262,1.3527,1.3599,1.3443,1.3322,1.3266,1.3183,1.3159,1.3238,1.3304,1.3075,1.2997,1.2906,1.2864,1.2641,1.2457,1.2378,1.225,1.2229,1.2137,1.1859,2.8835,2.851,2.851,2.851,2.851,2.851,2.851,2.8558,2.8775,2.916,2.9653,2.9722,3.0287,3.1262,3.1021,3.0889,3.074,3.0008,2.8632,2.6769,2.5384,2.416,2.3418,2.3264,2.3303,2.3186,2.3757,2.3909,2.3881,2.4209,2.4394,2.4336,2.4238,2.4014,2.3792,2.3584,2.3386,2.313,2.2969,2.2577,2.1952,2.1663,2.0863,2.0005,1.9604,1.9536,1.9439,1.9384,1.9246,1.9105,1.8769,1.8826,1.9586,1.9547,1.9644,2.0134,1.9776,1.9547,1.9531,1.9421,1.9393,1.9461,1.9418,1.904,1.8588,1.8316,1.7813,1.7125,1.708,1.7067,1.704,1.7299,1.757,1.7673,1.7427,1.7262,1.749,1.7657,1.7779,1.7873,1.7779,1.7349,1.6558,1.5876,1.5206,1.4671,1.4234,1.4084,1.3876,1.3749,1.3581,1.3443,1.3437,1.3485,1.3538,1.3737,1.3845,1.3684,1.3635,1.358,1.3485,1.3455,1.3467,1.3485,1.3346,1.3232,1.3129,1.3003,1.2821,1.2721,1.2726,1.2674,1.2595,1.2507,1.2266,2.857,2.851,2.851,2.851,2.8522,2.857,2.8595,2.8619,2.9136,2.9412,2.9569,2.9953,3.054,3.0973,3.1127,3.1031,3.1033,3.101,2.9571,2.7734,2.6186,2.4986,2.387,2.4056,2.3862,2.3581,2.4121,2.4245,2.4261,2.442,2.4557,2.46,2.4258,2.4027,2.3978,2.3564,2.3208,2.3227,2.3108,2.2969,2.2696,2.2542,2.1948,2.1118,2.0759,2.0633,2.0388,2.0178,2.0175,2.1076,2.0427,2.0228,2.0537,2.0607,2.0534,2.047,2.0207,1.9969,1.9932,1.9685,1.9613,1.9855,1.961,1.9308,1.9181,1.8876,1.8404,1.7736,1.779,1.7801,1.7653,1.7762,1.7888,1.7984,1.7928,1.7904,1.796,1.8158,1.8311,1.8359,1.8622,1.8388,1.7792,1.7068,1.6254,1.5076,1.4624,1.4218,1.4032,1.3894,1.3761,1.3628,1.3701,1.3828,1.3876,1.3924,1.3966,1.3948,1.3948,1.3888,1.3779,1.3725,1.367,1.3628,1.3593,1.3497,1.334,1.3189,1.3039,1.2942,1.2936,1.2834,1.2728,1.2659,1.2464,2.8922,2.851,2.851,2.851,2.8563,2.8943,2.8895,2.8599,2.952,2.9938,3.0058,3.0492,3.1009,3.1502,3.1488,3.1514,3.1356,3.0876,2.9488,2.8019,2.6477,2.5837,2.5272,2.5373,2.4894,2.4431,2.4673,2.4885,2.4904,2.5074,2.5415,2.5318,2.4912,2.4799,2.4662,2.3994,2.3656,2.3602,2.3322,2.3149,2.3052,2.2923,2.2662,2.2179,2.1869,2.1633,2.1382,2.1021,2.1054,2.1295,2.1141,2.0967,2.1233,2.1104,2.0998,2.0875,2.0601,2.0372,2.0344,2.0262,2.0273,2.0314,2.0204,2.0093,1.9766,1.9654,1.9316,1.8905,1.8866,1.8806,1.8627,1.835,1.8391,1.8536,1.8563,1.8564,1.8527,1.8422,1.8431,1.8622,1.8718,1.8519,1.7785,1.7044,1.6292,1.5534,1.4902,1.4358,1.4159,1.4056,1.3983,1.392,1.4085,1.4208,1.402,1.4057,1.4099,1.4117,1.4129,1.4135,1.4026,1.4002,1.396,1.3942,1.3942,1.3797,1.3604,1.3501,1.3369,1.3272,1.3141,1.3063,1.2973,1.2868,1.2744,2.9223,2.853,2.851,2.851,2.8595,2.9043,2.9127,2.9124,3.0022,3.048,3.0588,3.1033,3.1452,3.1683,3.1705,3.1705,3.1472,3.0655,2.9829,2.8902,2.7798,2.7005,2.6521,2.6352,2.5863,2.4741,2.5096,2.5266,2.5259,2.5464,2.5659,2.5669,2.5293,2.5053,2.5024,2.4414,2.4128,2.4046,2.3854,2.3621,2.3445,2.3345,2.304,2.2791,2.2362,2.203,2.1847,2.1539,2.1526,2.1577,2.1508,2.1462,2.1636,2.1485,2.1398,2.1315,2.1004,2.0793,2.0756,2.0619,2.0576,2.0766,2.0592,2.0494,2.0323,2.0254,1.9909,1.9635,1.9603,1.9676,1.9608,1.9445,1.9307,1.9129,1.9165,1.9081,1.8842,1.8638,1.8574,1.8757,1.8796,1.8404,1.7792,1.7145,1.6339,1.5605,1.4843,1.4352,1.4472,1.4385,1.4361,1.437,1.4553,1.4543,1.423,1.4177,1.4238,1.4244,1.4238,1.4244,1.4195,1.4226,1.4262,1.4201,1.4111,1.402,1.3851,1.3761,1.364,1.3449,1.3334,1.3298,1.3278,1.3206,1.3057,2.9269,2.8382,2.8474,2.851,2.8595,2.9055,2.9292,2.9436,3.0443,3.085,3.1019,3.1476,3.1657,3.1705,3.1705,3.1705,3.1472,3.1003,3.0428,3.0236,2.9272,2.8298,2.7609,2.7087,2.6313,2.4826,2.5323,2.5454,2.54,2.5493,2.5698,2.564,2.5307,2.519,2.5068,2.4678,2.4413,2.4474,2.4356,2.415,2.3906,2.3779,2.3394,2.2845,2.2407,2.215,2.2008,2.1815,2.1678,2.1687,2.1687,2.1687,2.1687,2.1687,2.1687,2.1659,2.1352,2.1205,2.1141,2.0958,2.0894,2.1147,2.0882,2.0806,2.0918,2.0792,2.0513,2.0335,2.0308,2.0361,2.0397,2.0172,1.9931,1.9691,1.9569,1.9348,1.8943,1.8804,1.8788,1.8788,1.8781,1.8519,1.8002,1.7396,1.652,1.5676,1.4938,1.4442,1.4586,1.4717,1.4697,1.4661,1.4779,1.4647,1.4357,1.422,1.4292,1.4322,1.4322,1.4322,1.4322,1.4322,1.4322,1.4322,1.4226,1.4129,1.4075,1.4008,1.3857,1.3635,1.3557,1.3574,1.3562,1.3515,1.3364,2.866,2.7866,2.831,2.851,2.8575,2.9076,2.9328,2.9472,3.048,3.0901,3.0985,3.1464,3.1705,3.1705,3.1705,3.1705,3.1617,3.1361,3.1339,3.1149,3.0294,2.928,2.8332,2.7463,2.6554,2.5827,2.5679,2.563,2.5591,2.5689,2.5708,2.562,2.5322,2.5254,2.5293,2.4884,2.4707,2.4879,2.4719,2.4465,2.4231,2.3884,2.3479,2.2864,2.2517,2.2287,2.2106,2.1874,2.1687,2.1687,2.1687,2.1687,2.1687,2.1687,2.1687,2.1659,2.1572,2.1453,2.1476,2.1498,2.1485,2.1577,2.1461,2.1425,2.1512,2.1486,2.1235,2.1181,2.0984,2.0885,2.0862,2.0645,2.0133,1.9783,1.9623,1.9417,1.8966,1.8804,1.8773,1.8733,1.8734,1.865,1.8079,1.7522,1.6769,1.6015,1.5343,1.4795,1.4658,1.4897,1.5092,1.5021,1.4949,1.4704,1.44,1.4328,1.4322,1.4322,1.4322,1.4322,1.4322,1.4322,1.4322,1.4322,1.4322,1.425,1.4208,1.4189,1.4141,1.399,1.3918,1.3845,1.3821,1.3785,1.3599,2.912,2.8169,2.8394,2.851,2.8635,2.9376,2.9722,2.989,3.0829,3.1332,3.1382,3.1597,3.1705,3.1705,3.1705,3.1705,3.1705,3.1705,3.1705,3.1484,3.0667,2.9658,2.8669,2.7675,2.6662,2.5921,2.5698,2.5708,2.5708,2.5708,2.5708,2.5669,2.5488,2.5513,2.5601,2.5323,2.5207,2.5324,2.5164,2.4822,2.4365,2.3832,2.3259,2.3003,2.2706,2.2485,2.2264,2.2052,2.1852,2.1731,2.1687,2.1687,2.1687,2.1687,2.1687,2.1668,2.1544,2.1526,2.1586,2.1562,2.1443,2.165,2.1687,2.1687,2.1687,2.1664,2.1687,2.1633,2.1566,2.1365,2.1365,2.1087,2.069,2.0147,1.992,1.9554,1.9027,1.885,1.8725,1.8614,1.8535,1.8369,1.8072,1.7508,1.6922,1.6326,1.5734,1.5272,1.4867,1.532,1.5747,1.5248,1.5081,1.461,1.4394,1.4346,1.4322,1.4322,1.4322,1.4322,1.4322,1.4322,1.4322,1.4322,1.4322,1.4322,1.4286,1.425,1.428,1.4322,1.4177,1.4075,1.4069,1.4002,1.3845,2.9389,2.8354,2.8454,2.857,2.8799,2.9544,3.007,3.0419,3.1117,3.1573,3.1705,3.1705,3.1705,3.1705,3.1705,3.1705,3.1705,3.1705,3.1705,3.156,3.0958,2.9954,2.8727,2.7864,2.6938,2.582,2.5708,2.5708,2.5708,2.5708,2.5708,2.5698,2.5698,2.5708,2.5645,2.5586,2.5708,2.5708,2.5689,2.5259,2.443,2.3767,2.3215,2.3035,2.2838,2.2574,2.2296,2.2074,2.1874,2.1741,2.1687,2.1687,2.1687,2.1687,2.1687,2.1632,2.1388,2.1462,2.1526,2.148,2.1462,2.1668,2.1687,2.1687,2.1687,2.1678,2.1659,2.1627,2.154,2.15,2.1428,2.1429,2.1016,2.0496,2.0102,1.9828,1.9119,1.8757,1.8622,1.851,1.8351,1.8233,1.8041,1.7919,1.7437,1.7082,1.652,1.5812,1.5551,1.6308,1.6504,1.57,1.5153,1.4562,1.4322,1.4346,1.4322,1.4322,1.4322,1.4322,1.4322,1.4322,1.4322,1.4322,1.4322,1.4322,1.4322,1.4322,1.4322,1.4322,1.4322,1.4274,1.4208,1.4183,1.4099,2.8207,2.7842,2.8298,2.8775,2.916,2.9364,2.9986,3.0744,3.0961,3.1296,3.1705,3.1705,3.1705,3.1705,3.1705,3.1705,3.1705,3.1705,3.1705,3.1639,3.1427,3.0373,2.8912,2.8657,2.7247,2.6014,2.5708,2.5708,2.5708,2.5708,2.5708,2.5708,2.5708,2.5708,2.5708,2.5708,2.5708,2.5698,2.5659,2.522,2.4489,2.4199,2.3618,2.3011,2.264,2.2397,2.2185,2.1985,2.1785,2.1718,2.1687,2.1687,2.1687,2.1687,2.1687,2.1709,2.1672,2.1641,2.1668,2.154,2.1553,2.165,2.1687,2.1687,2.1623,2.1617,2.1508,2.119,2.1159,2.1205,2.1158,2.0847,2.0545,2.0335,2.0147,1.9646,1.9035,1.8996,1.8843,1.8454,1.8319,1.8303,1.8233,1.8142,1.8007,1.7673,1.7271,1.656,1.6183,1.6803,1.7021,1.6197,1.5129,1.449,1.4322,1.4322,1.4322,1.4322,1.4322,1.4322,1.4322,1.4322,1.4322,1.4322,1.4322,1.4322,1.4322,1.4322,1.4322,1.4322,1.4322,1.4322,1.4316,1.428,1.4268,2.801,2.8178,2.8426,2.8643,2.8919,2.9472,3.001,3.0504,3.1093,3.1466,3.1681,3.1705,3.1705,3.1705,3.1705,3.1705,3.1705,3.1705,3.1705,3.1705,3.155,3.061,2.9096,2.8588,2.7626,2.6149,2.5708,2.5708,2.5708,2.5708,2.5708,2.5708,2.5708,2.5708,2.5708,2.5708,2.5542,2.5293,2.4893,2.4453,2.4102,2.3796,2.3402,2.2823,2.2671,2.2407,2.2141,2.203,2.1852,2.1763,2.1687,2.1687,2.1687,2.1687,2.1687,2.1687,2.1709,2.1678,2.1668,2.1485,2.1544,2.165,2.1691,2.1608,2.1453,2.137,2.1224,2.0793,2.0756,2.0857,2.1071,2.0934,2.0797,2.0609,2.0323,1.9828,1.9394,1.9286,1.9151,1.8697,1.8303,1.8295,1.8311,1.8307,1.8128,1.7758,1.7617,1.7342,1.685,1.6826,1.6857,1.6581,1.5439,1.4346,1.4322,1.4322,1.4322,1.4322,1.4322,1.4322,1.4322,1.4322,1.4322,1.4322,1.4322,1.4322,1.4322,1.4322,1.4322,1.4322,1.4322,1.4322,1.4322,1.4298,1.4286,2.789,2.8498,2.851,2.8563,2.8767,2.9722,3.017,3.0431,3.1274,3.1705,3.1705,3.1705,3.1705,3.1705,3.1705,3.1705,3.1705,3.1705,3.1705,3.1705,3.1472,3.0486,2.9235,2.8541,2.7639,2.5708,2.5708,2.5708,2.5708,2.5708,2.5708,2.5708,2.5708,2.5708,2.5708,2.5679,2.5532,2.5141,2.454,2.4088,2.3725,2.3335,2.2986,2.271,2.2583,2.2429,2.2097,2.1985,2.1852,2.1763,2.1687,2.1687,2.1687,2.1687,2.1687,2.1687,2.1687,2.1687,2.1623,2.1513,2.1462,2.159,2.1678,2.1608,2.1388,2.1233,2.1099,2.0784,2.0759,2.0921,2.1092,2.11,2.0988,2.0859,2.0692,2.0218,1.9774,1.9446,1.9105,1.8644,1.8327,1.8302,1.8311,1.8398,1.8205,1.7827,1.7789,1.7925,1.7582,1.7115,1.6692,1.6464,1.5391,1.437,1.4322,1.4322,1.4322,1.4322,1.4322,1.4322,1.4322,1.4322,1.4322,1.4322,1.4322,1.4322,1.4322,1.4322,1.4322,1.4322,1.4322,1.4322,1.4322,1.4322,1.4322,2.7565,2.851,2.851,2.8755,2.922,2.9833,3.0383,3.0744,3.1406,3.1705,3.1705,3.1705,3.1705,3.1705,3.1705,3.1705,3.1705,3.1705,3.1705,3.1705,3.155,3.0554,2.9418,2.8541,2.7733,2.61,2.5757,2.5708,2.5708,2.5708,2.5708,2.5708,2.5708,2.5708,2.5679,2.562,2.5376,2.4992,2.4491,2.3979,2.3521,2.3098,2.2773,2.2317,2.2163,2.203,2.1741,2.1763,2.1763,2.1687,2.1687,2.1687,2.1687,2.1687,2.1687,2.1687,2.1687,2.1687,2.1641,2.1632,2.165,2.1678,2.1678,2.1654,2.1462,2.1599,2.1443,2.1077,2.1025,2.1251,2.1266,2.1112,2.1105,2.118,2.0965,2.0278,1.9774,1.9325,1.896,1.8538,1.839,1.8414,1.8414,1.8503,1.8455,1.8116,1.824,1.838,1.7839,1.7326,1.6645,1.6079,1.5129,1.4466,1.4322,1.4322,1.4322,1.4322,1.4322,1.4322,1.4322,1.4322,1.4322,1.4322,1.4322,1.4322,1.4322,1.4322,1.4322,1.4322,1.4322,1.4322,1.4322,1.4322,1.4322,2.8118,2.851,2.851,2.8611,2.8883,2.9725,3.0227,3.054,3.1298,3.1705,3.1705,3.1705,3.1705,3.1705,3.1705,3.1705,3.1705,3.1705,3.1705,3.1705,3.1494,3.0812,2.9818,2.8819,2.7968,2.6696,2.6076,2.5708,2.5708,2.5708,2.5708,2.5708,2.5708,2.5708,2.5669,2.5484,2.5075,2.4545,2.41,2.3524,2.2961,2.2723,2.25,2.2156,2.2106,2.1963,2.1754,2.1709,2.1687,2.1687,2.1687,2.1687,2.1687,2.1687,2.1705,2.1723,2.1733,2.1742,2.1764,2.1723,2.1687,2.1687,2.1678,2.1645,2.1535,2.1581,2.1471,2.1306,2.1401,2.17,2.1893,2.1607,2.1445,2.1581,2.1237,2.0474,1.9966,1.9565,1.9091,1.8778,1.8692,1.8662,1.8654,1.8654,1.8566,1.8457,1.8647,1.8689,1.8149,1.7466,1.6746,1.6008,1.5105,1.449,1.4322,1.4322,1.4322,1.4322,1.4322,1.4322,1.4322,1.4322,1.4322,1.4322,1.4322,1.4322,1.4322,1.4322,1.4322,1.4322,1.4322,1.4322,1.4322,1.4322,1.4322,2.8358,2.851,2.851,2.851,2.8631,2.9472,2.9974,3.0263,3.1045,3.1597,3.1705,3.1705,3.1705,3.1705,3.1705,3.1705,3.1705,3.1705,3.1705,3.1705,3.1617,3.107,3.017,2.9166,2.8121,2.7176,2.6259,2.5708,2.5708,2.5708,2.5708,2.5708,2.5708,2.5708,2.5615,2.5343,2.4835,2.4232,2.3616,2.321,2.2732,2.2339,2.2281,2.2084,2.2056,2.1874,2.1731,2.1687,2.1687,2.1687,2.1687,2.1687,2.1687,2.1705,2.1782,2.1837,2.1892,2.1897,2.1998,2.1938,2.1846,2.1723,2.2044,2.1865,2.1672,2.181,2.202,2.1856,2.197,2.2208,2.257,2.2318,2.2258,2.2432,2.1579,2.0837,2.0494,2.0113,1.9544,1.9081,1.9033,1.897,1.8788,1.8765,1.8733,1.8654,1.8709,1.8735,1.8481,1.7707,1.6777,1.6015,1.5224,1.4729,1.4322,1.4322,1.4322,1.4322,1.4322,1.4322,1.4322,1.4322,1.4322,1.4322,1.4322,1.4322,1.4322,1.4322,1.4322,1.4322,1.4322,1.4322,1.4322,1.4322,1.4322,2.8046,2.8466,2.851,2.851,2.8582,2.91,2.9641,3.0146,3.078,3.1286,3.1681,3.1705,3.1705,3.1705,3.1705,3.1705,3.1705,3.1705,3.1605,3.1494,3.1383,3.0958,3.0022,2.8981,2.7957,2.7152,2.6259,2.5708,2.5708,2.5708,2.5708,2.5684,2.5669,2.5635,2.5659,2.543,2.4947,2.4297,2.3631,2.336,2.2908,2.2247,2.2124,2.2047,2.1923,2.1741,2.1709,2.1687,2.1687,2.1687,2.1687,2.1687,2.1687,2.1782,2.1911,2.2121,2.2217,2.2446,2.2734,2.2478,2.2222,2.1989,2.2364,2.2465,2.2405,2.2588,2.2785,2.2574,2.2812,2.3041,2.3151,2.3123,2.3133,2.2732,2.186,2.1165,2.0776,2.0331,1.9733,1.9415,1.9383,1.928,1.9026,1.8852,1.8868,1.8844,1.8812,1.8712,1.8612,1.7784,1.6753,1.6086,1.5343,1.4705,1.4322,1.4322,1.4322,1.4322,1.4322,1.4322,1.4322,1.4322,1.4322,1.4322,1.4322,1.4322,1.4322,1.4322,1.4322,1.4322,1.4322,1.4322,1.4322,1.4322,1.4322,2.8342,2.851,2.851,2.851,2.8631,2.946,2.9962,3.0239,3.0997,3.1548,3.1681,3.1705,3.1705,3.1705,3.1705,3.1705,3.1705,3.1683,3.1538,3.079,3.0857,3.0045,2.9235,2.8471,2.7605,2.7033,2.625,2.5708,2.5708,2.5708,2.5708,2.5684,2.5523,2.544,2.5406,2.5255,2.4927,2.419,2.3737,2.34,2.2718,2.2304,2.2048,2.1966,2.1778,2.1696,2.1687,2.1687,2.1687,2.1696,2.1705,2.1733,2.1797,2.1911,2.2066,2.2195,2.2272,2.2739,2.2959,2.2895,2.2904,2.2757,2.273,2.2913,2.2748,2.3092,2.3233,2.3361,2.3547,2.3721,2.3874,2.3523,2.3302,2.272,2.1948,2.1237,2.0754,2.0248,1.9789,1.9765,1.9709,1.9678,1.9519,1.9296,1.9248,1.9137,1.9098,1.8915,1.8783,1.7659,1.6588,1.6086,1.5469,1.4753,1.4322,1.4322,1.4322,1.4322,1.4322,1.4322,1.4322,1.4322,1.4322,1.4322,1.4322,1.4322,1.4322,1.4322,1.4322,1.4322,1.4322,1.4322,1.4322,1.4322,1.4322,2.851,2.851,2.851,2.851,2.8619,2.9244,2.9701,3.017,3.1021,3.1524,3.1681,3.1705,3.1705,3.1705,3.1705,3.1705,3.1705,3.1683,3.1572,3.0722,3.0745,3.0238,2.9315,2.8168,2.7699,2.7081,2.6274,2.5708,2.5708,2.5708,2.5635,2.5489,2.5294,2.5103,2.503,2.4894,2.4705,2.4117,2.3805,2.3437,2.2892,2.2478,2.2176,2.1993,2.1797,2.1687,2.1687,2.1687,2.1696,2.1714,2.1797,2.187,2.202,2.2213,2.2424,2.2538,2.29,2.3321,2.3459,2.3541,2.3532,2.3404,2.3349,2.3266,2.3248,2.3504,2.3694,2.3849,2.4058,2.4137,2.4103,2.3776,2.3502,2.2948,2.2462,2.1799,2.1244,2.0769,2.0269,2.0237,2.0067,2.0036,1.998,1.9861,1.9694,1.9535,1.9383,1.9169,1.8855,1.769,1.665,1.6177,1.5543,1.4763,1.4364,1.4322,1.4322,1.4322,1.4322,1.4322,1.4322,1.4322,1.4322,1.4322,1.4322,1.4322,1.4322,1.4322,1.4322,1.4322,1.4322,1.4322,1.4322,1.4322,1.4322,2.851,2.851,2.851,2.851,2.8522,2.8619,2.916,3.0098,3.0648,3.1163,3.1597,3.1524,3.1464,3.1551,3.1621,3.1621,3.1657,3.1657,3.1506,3.1405,3.1104,3.0565,2.9841,2.8912,2.7994,2.7105,2.6418,2.5965,2.5757,2.5611,2.5513,2.5284,2.503,2.4809,2.4637,2.4529,2.4402,2.4125,2.3877,2.358,2.3211,2.2776,2.251,2.2263,2.2048,2.1874,2.1797,2.1742,2.1742,2.1842,2.2075,2.2231,2.2442,2.2702,2.3096,2.3495,2.3901,2.392,2.403,2.4067,2.4076,2.3947,2.4039,2.3877,2.3776,2.3874,2.3993,2.4058,2.4174,2.4183,2.4131,2.4088,2.3986,2.3588,2.324,2.2664,2.2122,2.1586,2.1043,2.0736,2.049,2.0345,2.0211,2.0091,2.0107,1.9843,1.9635,1.9339,1.887,1.7886,1.695,1.6381,1.569,1.4783,1.4479,1.4389,1.4389,1.4419,1.4322,1.4322,1.4322,1.4304,1.4322,1.4322,1.4322,1.4322,1.4322,1.4322,1.4322,1.4322,1.4322,1.4322,1.4322,1.4322,1.4322,2.851,2.851,2.851,2.851,2.851,2.851,2.9112,3.005,3.0299,3.0456,3.0564,3.0564,3.0672,3.0588,3.0949,3.1093,3.1274,3.1366,3.1101,3.0992,3.0948,3.0079,2.9372,2.8796,2.8051,2.7379,2.6757,2.6221,2.5757,2.5562,2.5284,2.5005,2.476,2.4514,2.4399,2.4301,2.4251,2.4199,2.4002,2.3785,2.3553,2.3187,2.2904,2.2593,2.23,2.2158,2.2066,2.1883,2.1911,2.2158,2.224,2.2396,2.2757,2.3114,2.3523,2.3901,2.392,2.3794,2.4103,2.4211,2.4211,2.4211,2.4211,2.4183,2.4101,2.411,2.4211,2.4211,2.4102,2.4053,2.4102,2.4069,2.382,2.3413,2.3054,2.2652,2.2097,2.1591,2.1087,2.0918,2.0678,2.0639,2.0472,2.0496,2.0463,2.0154,1.983,1.9495,1.8828,1.7825,1.7122,1.6545,1.5789,1.4911,1.4618,1.4503,1.4521,1.4521,1.4443,1.4358,1.434,1.434,1.4316,1.4316,1.4346,1.4328,1.4322,1.4322,1.4322,1.4322,1.4322,1.4322,1.4322,1.4322,1.4322,2.851,2.851,2.851,2.851,2.851,2.851,2.8919,2.9448,2.9677,2.989,3.0086,3.0122,3.0098,3.0239,3.0672,3.0958,3.0973,3.1442,3.1417,3.1149,3.0757,2.9886,2.9212,2.8634,2.778,2.7152,2.6576,2.6125,2.5684,2.5318,2.5015,2.4726,2.4489,2.435,2.426,2.4226,2.4211,2.4211,2.4113,2.3895,2.3688,2.348,2.3169,2.2808,2.2492,2.2474,2.2341,2.2103,2.2332,2.257,2.2602,2.2849,2.3197,2.3541,2.3813,2.4128,2.403,2.3993,2.4149,2.4211,2.4211,2.4211,2.4211,2.4202,2.4192,2.4192,2.4211,2.4186,2.4003,2.387,2.3945,2.3945,2.3438,2.2929,2.2652,2.235,2.1869,2.1369,2.1113,2.096,2.0875,2.0867,2.0859,2.0899,2.0808,2.0491,1.9958,1.9325,1.86,1.7618,1.7064,1.6604,1.5834,1.5052,1.4859,1.4714,1.4763,1.4757,1.463,1.4545,1.4437,1.4364,1.4328,1.4358,1.4413,1.4377,1.4334,1.4304,1.4322,1.4322,1.4322,1.4322,1.4322,1.4322,1.4322,2.851,2.851,2.851,2.851,2.851,2.851,2.8546,2.8558,2.9051,2.9496,2.9845,2.9929,2.9845,2.9845,3.0395,3.0708,3.0925,3.1346,3.1683,3.1661,3.1494,3.0655,2.9715,2.8901,2.8426,2.6843,2.6052,2.6442,2.565,2.5162,2.476,2.448,2.4325,2.4211,2.4211,2.4211,2.4211,2.4211,2.4156,2.3993,2.3669,2.3416,2.3211,2.2602,2.2602,2.2739,2.2561,2.2625,2.2895,2.3041,2.3215,2.3407,2.3669,2.3877,2.4103,2.4183,2.4137,2.4156,2.4183,2.4211,2.4211,2.4211,2.4211,2.4211,2.4211,2.4211,2.4211,2.392,2.3687,2.3513,2.3513,2.3388,2.2979,2.2652,2.2409,2.203,2.1522,2.119,2.1096,2.0968,2.0899,2.0899,2.0899,2.0899,2.0899,2.0698,2.0169,1.938,1.849,1.7521,1.6878,1.6542,1.5869,1.5258,1.5161,1.5046,1.5065,1.5016,1.4877,1.4787,1.4739,1.4558,1.4358,1.4358,1.4383,1.4395,1.437,1.4334,1.4322,1.4322,1.4322,1.4322,1.4322,1.4322,1.4322,2.851,2.851,2.851,2.851,2.851,2.851,2.851,2.8502,2.8631,2.8799,2.8883,2.8919,2.8943,2.9136,2.9938,3.0311,3.0516,3.119,3.1621,3.1683,3.1705,3.1339,3.0879,3.0351,2.9522,2.8583,2.7779,2.6788,2.5533,2.4883,2.4587,2.448,2.4301,2.4211,2.4211,2.4211,2.4211,2.4211,2.4183,2.3975,2.3572,2.3739,2.3681,2.3074,2.2904,2.294,2.2772,2.2598,2.2931,2.3233,2.3398,2.3669,2.4021,2.4122,2.4168,2.4211,2.4211,2.4211,2.4211,2.4211,2.4229,2.4238,2.4238,2.422,2.4211,2.4211,2.4037,2.368,2.3354,2.3179,2.3004,2.2803,2.2577,2.2358,2.2156,2.17,2.1224,2.1121,2.107,2.0994,2.0925,2.0899,2.0899,2.0899,2.0899,2.0609,2.0078,1.9372,1.8525,1.7605,1.6671,1.6237,1.5857,1.5427,1.5372,1.5348,1.5348,1.5294,1.5167,1.5089,1.5004,1.4853,1.4672,1.4413,1.4328,1.4425,1.4449,1.4322,1.4322,1.4322,1.4322,1.4322,1.4322,1.4322,1.4322,2.851,2.851,2.851,2.851,2.851,2.851,2.851,2.851,2.851,2.851,2.851,2.851,2.849,2.8595,2.9388,2.9986,3.0215,3.0949,3.1428,3.1633,3.1639,3.1304,3.126,3.1149,2.992,2.8939,2.7991,2.6758,2.5196,2.4735,2.4489,2.4365,2.4226,2.4211,2.4211,2.4211,2.4211,2.4211,2.4211,2.3941,2.3623,2.3831,2.3874,2.3358,2.3312,2.3312,2.3248,2.3083,2.3437,2.3703,2.3822,2.3911,2.4103,2.4192,2.4202,2.4211,2.4211,2.4211,2.422,2.4248,2.4321,2.4413,2.4477,2.4516,2.4505,2.4455,2.4009,2.362,2.3039,2.2778,2.2602,2.2426,2.2173,2.1954,2.1852,2.1573,2.1224,2.0994,2.0968,2.0942,2.0899,2.0899,2.0899,2.0899,2.0873,2.0745,2.0171,1.9439,1.8598,1.7858,1.6878,1.6099,1.5828,1.5682,1.5662,1.5632,1.5608,1.5529,1.5433,1.5264,1.5131,1.5093,1.4985,1.4751,1.4594,1.4618,1.4594,1.4449,1.4322,1.4322,1.4322,1.4322,1.4322,1.4322,1.4322,2.8418,2.8478,2.851,2.851,2.851,2.851,2.851,2.851,2.851,2.851,2.8546,2.8607,2.8563,2.8671,2.916,2.9641,3.0239,3.0973,3.1358,3.1609,3.1705,3.1427,3.1003,3.0531,2.975,2.8606,2.7369,2.6078,2.4637,2.444,2.4341,2.4226,2.4211,2.4211,2.4211,2.4211,2.4211,2.4211,2.414,2.3993,2.3914,2.3947,2.3758,2.3749,2.3794,2.3849,2.3767,2.3804,2.4048,2.4165,2.4113,2.4156,2.4174,2.4211,2.4211,2.4211,2.4211,2.4257,2.4321,2.4351,2.4562,2.4755,2.4847,2.486,2.4838,2.452,2.407,2.351,2.2936,2.241,2.2232,2.2004,2.1758,2.1597,2.1521,2.147,2.1171,2.0915,2.0907,2.0907,2.0899,2.0899,2.0899,2.0899,2.0848,2.0694,2.03,1.9491,1.8762,1.8127,1.7364,1.6574,1.6054,1.5958,1.5888,1.5825,1.5759,1.5767,1.5626,1.5421,1.5276,1.5282,1.5228,1.5095,1.498,1.4896,1.4751,1.46,1.4479,1.4389,1.4304,1.4304,1.4322,1.4322,1.4322,2.8106,2.851,2.851,2.851,2.851,2.851,2.851,2.851,2.851,2.851,2.8643,2.8931,2.8935,2.8551,2.9544,3.0095,3.0311,3.0997,3.1418,3.1705,3.1705,3.155,3.1215,3.0655,2.9966,2.8454,2.6759,2.5499,2.4538,2.4316,2.4251,2.4211,2.4211,2.4211,2.4211,2.4211,2.4211,2.4211,2.4211,2.4085,2.4103,2.3993,2.3648,2.3514,2.3413,2.3489,2.3535,2.3553,2.3849,2.4067,2.4211,2.4211,2.4211,2.4211,2.4211,2.4248,2.4238,2.4397,2.4489,2.4636,2.4893,2.5214,2.5287,2.5287,2.5099,2.4761,2.4236,2.3669,2.3019,2.2227,2.1885,2.1554,2.1284,2.126,2.12,2.1216,2.1095,2.0986,2.0962,2.0947,2.0923,2.0915,2.0899,2.0899,2.0899,2.0822,2.0822,2.0042,1.9342,1.8598,1.7871,1.7074,1.6365,1.6045,1.5879,1.5879,1.5837,1.5876,1.5846,1.5632,1.5505,1.5463,1.5396,1.5324,1.5197,1.5077,1.4926,1.4817,1.4714,1.4618,1.4395,1.4304,1.4316,1.4322,1.4322]},{"header":{"parameterUnit":"m.s-1","parameterCategory":1,"la1":31.0,"la2":29.5877,"lo1":-88.7671,"lo2":-86.6584,"dy":0.0162,"dx":0.0185,"nx":115,"ny":88,"refTime":"2023-05-31T06:00:00:Z","depth":0,"parameterNumber":3,"parameterNumberName":"V-component_of_WINDS"},"data":[0.0,0.0,0.0,0.0,0.0,0.0,0.0,0.0,0.0,0.0,0.0,0.0,0.0,0.0,0.0,0.0,0.0,0.0,0.0,0.0,0.0,0.0,0.0,0.0,0.0,0.0,0.0,0.0,0.0,0.0,0.0,0.0,0.0,0.0,0.0,0.0,0.0,0.0,0.0,0.0,0.0,0.0,0.0,0.0,0.0,0.0,0.0,0.0,0.0,0.0,0.0,0.0,0.0,0.0,0.0,0.0,0.0,0.0,0.0,0.0,0.0,0.0,0.0,0.0,0.0,0.0,0.0,0.0,0.0,0.0,0.0,0.0,0.0,0.0,0.0,0.0,0.0,0.0,0.0,0.0,0.0,0.0,0.0,0.0,0.0,0.0,0.0,0.0,0.0,0.0,0.0,0.0,0.0,0.0,0.0,0.0,0.0,0.0,0.0,0.0,0.0,0.0,0.0,0.0,0.0,0.0,0.0,0.0,0.0,0.0,0.0,0.0,0.0,0.0,0.0,0.0,0.0,0.0,0.0,0.0,0.0,0.0,0.0,0.0,0.0,0.0,0.0,0.0,0.0,0.0,0.0,0.0,0.0,0.0,0.0,0.0,0.0,0.0,0.0,0.0,0.0,0.0,0.0,0.0,0.0,0.0,0.0,0.0,0.0,0.0,0.0,0.0,0.0,0.0,0.0,0.0,0.0,0.0,0.0,0.0,0.0,0.0,0.0,0.0,0.0,0.0,0.0,0.0,0.0,0.0,0.0,0.0,0.0,0.0,0.0,0.0,0.0,0.0,0.0,0.0,0.0,0.0,0.0,0.0,0.0,0.0,0.0,0.0,0.0,0.0,0.0,0.0,0.0,0.0,0.0,0.0,0.0,0.0,0.0,0.0,0.0,0.0,0.0,0.0,0.0,0.0,0.0,0.0,0.0,0.0,0.0,0.0,0.0,0.0,0.0,0.0,0.0,0.0,0.0,0.0,0.0,0.0,0.0,0.0,0.0,0.0,0.0,0.0,0.0,0.0,0.0,0.0,0.0,0.0,0.0,0.0,0.0,0.0,0.0,0.0,0.0,0.0,0.0,0.0,0.0,0.0,0.0,0.0,0.0,0.0,0.0,0.0,0.0,0.0,0.0,0.0,0.0,0.0,0.0,0.0,0.0,0.0,0.0,0.0,0.0,0.0,0.0,0.0,0.0,0.0,0.0,0.0,0.0,0.0,0.0,0.0,0.0,0.0,0.0,0.0,0.0,0.0,0.0,0.0,0.0,0.0,0.0,0.0,0.0,0.0,0.0,0.0,0.0,0.0,0.0,0.0,0.0,0.0,0.0,0.0,0.0,0.0,0.0,0.0,0.0,0.0,0.0,0.0,0.0,0.0,0.0,0.0,0.0,0.0,0.0,0.0,0.0,0.0,0.0,0.0,0.0,0.0,0.0,0.0,0.0,0.0,0.0,0.0,0.0,0.0,0.0,0.0,0.0,0.0,0.0,0.0,0.0,0.0,0.0,0.0,0.0,0.0,0.0,0.0,0.0,0.0,0.0,0.0,0.0,0.0,0.0,0.0,0.0,0.0,0.0,0.0,0.0,0.0,0.0,0.0,0.0,0.0,0.0,0.0,0.0,0.0,0.0,0.0,0.0,0.0,0.0,0.0,0.0,0.0,0.0,0.0,0.0,0.0,0.0,0.0,0.0,0.0,0.0,0.0,0.0,0.0,0.0,0.0,0.0,0.0,0.0,0.0,0.0,0.0,0.0,0.0,0.0,0.0,0.0,0.0,0.0,0.0,0.0,0.0,0.0,0.0,0.0,0.0,0.0,0.0,0.0,0.0,0.0,0.0,0.0,0.0,0.0,0.0,0.0,0.0,0.0,0.0,0.0,0.0,0.0,0.0,0.0,0.0,0.0,0.0,0.0,0.0,0.0,0.0,0.0,0.0,0.0,0.0,0.0,0.0,0.0,0.0,0.0,0.0,0.0,0.0,0.0,0.0,0.0,0.0,0.0,0.0,0.0,0.0,0.0,0.0,0.0,0.0,0.0,0.0,0.0,0.0,0.0,0.0,0.0,0.0,0.0,0.0,0.0,0.0,0.0,0.0,0.0,0.0,0.0,0.0,0.0,0.0,0.0,0.0,0.0,0.0,0.0,0.0,0.0,0.0,0.0,0.0,0.0,0.0,0.0,0.0,0.0,0.0,0.0,0.0,0.0,0.0,0.0,0.0,0.0,0.0,0.0,0.0,0.0,0.0,0.0,0.0,0.0,0.0,0.0,0.0,0.0,0.0,0.0,0.0,0.0,0.0,0.0,0.0,0.0,0.0,0.0,0.0,0.0,0.0,0.0,0.0,0.0,0.0,0.0,0.0,0.0,0.0,0.0,0.0,0.0,0.0,0.0,0.0,0.0,0.0,0.0,0.0,0.0,0.0,0.0,0.0,0.0,0.0,0.0,0.0,0.0,0.0,0.0,0.0,0.0,0.0,0.0,0.0,0.0,0.0,0.0,0.0,0.0,0.0,0.0,0.0,0.0,0.0,0.0,0.0,0.0,0.0,0.0,0.0,0.0,0.0,0.0,0.0,0.0,0.0,0.0,0.0,0.0,0.0,0.0,0.0,0.0,0.0,0.0,0.0,0.0,0.0,0.0,0.0,0.0,0.0,0.0,0.0,0.0,0.0,0.0,0.0,0.0,0.0,0.0,0.0,0.0,0.0,0.0,0.0,0.0,0.0,0.0,0.0,0.0,0.0,0.0,0.0,0.0,0.0,0.0,0.0,0.0,0.0,0.0,0.0,0.0,0.0,0.0,0.0,0.0,0.0,0.0,0.0,0.0,0.0,0.0,0.0,0.0,0.0,0.0,0.0,0.0,0.0,0.0,0.0,0.0,0.0,0.0,0.0,0.0,0.0,0.0,0.0,0.0,0.0,0.0,0.0,0.0,0.0,0.0,0.0,0.0,0.0,0.0,0.0,0.0,0.0,0.0,0.0,0.0,0.0,0.0,0.0,0.0,0.0,0.0,0.0,0.0,0.0,0.0,0.0,0.0,0.0,0.0,0.0,0.0,0.0,0.0,0.0,0.0,0.0,0.0,0.0,0.0,0.0,0.0,0.0,0.0,0.0,0.0,0.0,0.0,0.0,0.0,0.0,0.0,0.0,0.0,0.0,0.0,0.0,0.0,0.0,0.0,0.0,0.0,0.0,0.0,0.0,0.0,0.0,0.0,0.0,0.0,0.0,0.0,0.0,0.0,0.0,0.0,0.0,0.0,0.0,0.0,0.0,0.0,0.0,0.0,0.0,0.0,0.0,0.0,0.0,0.0,0.0,0.0,0.0,0.0,0.0,0.0,0.0,0.0,0.0,0.0,0.0,0.0,0.0,0.0,0.0,0.0,0.0,0.0,0.0,0.0,0.0,0.0,0.0,0.0,0.0,0.0,0.0,0.0,0.0,0.0,0.0,0.0,0.0,0.0,0.0,0.0,0.0,0.0,0.0,0.0,0.0,0.0,0.0,0.0,0.0,0.0,0.0,0.0,0.0,0.0,0.0,0.0,0.0,0.0,0.0,0.0,0.0,0.0,0.0,0.0,0.0,0.0,0.0,0.0,0.0,0.0,0.0,0.0,0.0,0.0,0.0,0.0,0.0,0.0,0.0,0.0,0.0,0.0,0.0,0.0,0.0,0.0,0.0,0.0,0.0,0.0,0.0,0.0,0.0,0.0,0.0,0.0,0.0,0.0,0.0,0.0,0.0,0.0,0.0,0.0,0.0,0.0,0.0,0.0,0.0,0.0,0.0,0.0,0.0,0.0,0.0,0.0,0.0,0.0,0.0,0.0,0.0,0.0,0.0,0.0,0.0,0.0,0.0,0.0,0.0,0.0,0.0,0.0,0.0,0.0,0.0,0.0,0.0,0.0,0.0,0.0,0.0,0.0,0.0,0.0,0.0,0.0,0.0,0.0,0.0,0.0,0.0,0.0,0.0,0.0,0.0,0.0,0.0,0.0,0.0,0.0,0.0,0.0,0.0,0.0,0.0,0.0,0.0,0.0,0.0,0.0,0.0,0.0,0.0,0.0,0.0,0.0,0.0,0.0,0.0,0.0,0.0,0.0,0.0,0.0,0.0,0.0,0.0,0.0,0.0,0.0,0.0,0.0,0.0,0.0,0.0,0.0,0.0,0.0,0.0,0.0,0.0,0.0,0.0,0.0,0.0,0.0,0.0,0.0,0.0,0.0,0.0,0.0,0.0,0.0,0.0,0.0,0.0,0.0,0.0,0.0,0.0,0.0,0.0,2.0169,0.0,0.0,0.0,0.0,0.0,0.0,0.0,0.0,0.0,0.0,0.0,0.0,0.0,0.0,0.0,0.0,0.0,0.0,0.0,0.0,0.0,0.0,0.0,0.0,0.0,0.0,0.0,0.0,0.0,0.0,0.0,0.0,0.0,0.0,0.0,0.0,0.0,0.0,0.0,0.0,0.0,0.0,0.0,0.0,0.0,0.0,0.0,0.0,0.0,0.0,0.0,0.0,0.0,0.0,0.0,0.0,0.0,0.0,0.0,0.0,0.0,0.0,0.0,0.0,0.0,0.0,0.0,0.0,0.0,0.0,0.0,0.0,0.0,0.0,0.0,0.0,0.0,0.0,0.0,0.0,0.0,0.0,0.0,0.0,0.0,0.0,0.0,0.0,0.0,0.0,0.0,0.0,0.0,0.0,0.0,0.0,0.0,0.0,0.0,0.0,0.0,0.0,0.0,0.0,0.0,0.0,0.0,0.0,0.0,0.0,2.0712,2.0223,2.0316,2.0488,2.0677,0.0,0.0,0.0,0.0,0.0,0.0,0.0,0.0,0.0,0.0,0.0,0.0,0.0,0.0,0.0,0.0,0.0,0.0,0.0,0.0,0.0,0.0,0.0,0.0,0.0,0.0,0.0,0.0,0.0,0.0,0.0,0.0,0.0,0.0,0.0,0.0,0.0,0.0,0.0,0.0,0.0,0.0,0.0,0.0,0.0,0.0,0.0,0.0,0.0,0.0,0.0,0.0,0.0,0.0,0.0,0.0,0.0,0.0,0.0,0.0,0.0,0.0,0.0,0.0,0.0,0.0,0.0,0.0,0.0,0.0,0.0,0.0,0.0,0.0,0.0,0.0,0.0,0.0,0.0,0.0,0.0,0.0,0.0,0.0,0.0,0.0,0.0,0.0,0.0,0.0,0.0,0.0,0.0,0.0,0.0,0.0,0.0,0.0,0.0,0.0,0.0,0.0,0.0,0.0,0.0,0.0,0.0,0.0,0.0,0.0,0.0,0.0,2.0675,2.1277,2.1972,0.0,0.0,0.0,0.0,0.0,0.0,0.0,0.0,0.0,0.0,0.0,0.0,0.0,0.0,0.0,0.0,0.0,0.0,0.0,0.0,0.0,0.0,0.0,0.0,0.0,0.0,0.0,0.0,0.0,0.0,0.0,0.0,0.0,0.0,0.0,0.0,0.0,0.0,0.0,0.0,0.0,0.0,0.0,0.0,0.0,0.0,0.0,0.0,0.0,0.0,0.0,0.0,0.0,0.0,0.0,0.0,0.0,0.0,0.0,0.0,0.0,0.0,0.0,0.0,0.0,0.0,0.0,0.0,0.0,0.0,0.0,0.0,0.0,0.0,0.0,0.0,0.0,0.0,0.0,0.0,0.0,0.0,0.0,0.0,0.0,0.0,0.0,0.0,0.0,0.0,0.0,0.0,0.0,0.0,0.0,0.0,0.0,0.0,0.0,0.0,0.0,0.0,0.0,0.0,0.0,0.0,0.0,0.0,0.0,0.0,2.0613,2.3275,2.2845,0.0,2.5253,0.0,0.0,0.0,0.0,0.0,0.0,0.0,0.0,0.0,0.0,0.0,0.0,0.0,0.0,0.0,0.0,0.0,0.0,0.0,0.0,0.0,0.0,0.0,0.0,0.0,0.0,0.0,0.0,0.0,0.0,0.0,0.0,0.0,0.0,0.0,0.0,0.0,0.0,0.0,0.0,0.0,0.0,0.0,0.0,0.0,0.0,0.0,0.0,0.0,0.0,0.0,0.0,0.0,0.0,0.0,0.0,0.0,0.0,0.0,0.0,0.0,0.0,0.0,0.0,0.0,0.0,0.0,0.0,0.0,0.0,0.0,0.0,0.0,0.0,0.0,0.0,0.0,0.0,0.0,0.0,0.0,0.0,0.0,0.0,0.0,0.0,0.0,0.0,0.0,0.0,0.0,0.0,0.0,0.0,0.0,0.0,0.0,0.0,0.0,0.0,0.0,0.0,0.0,0.0,0.0,0.0,0.0,0.0,0.0,0.0,2.0662,2.2469,2.3346,2.3838,0.0,0.0,0.0,0.0,0.0,0.0,0.0,0.0,0.0,0.0,0.0,0.0,0.0,0.0,0.0,0.0,0.0,0.0,0.0,0.0,0.0,0.0,0.0,0.0,0.0,0.0,0.0,0.0,0.0,0.0,0.0,0.0,0.0,0.0,0.0,0.0,0.0,0.0,0.0,0.0,0.0,0.0,0.0,0.0,0.0,0.0,0.0,0.0,0.0,0.0,0.0,0.0,0.0,0.0,0.0,0.0,0.0,0.0,0.0,0.0,0.0,0.0,0.0,0.0,0.0,0.0,0.0,0.0,0.0,0.0,0.0,0.0,0.0,0.0,0.0,0.0,0.0,0.0,0.0,0.0,0.0,0.0,0.0,0.0,0.0,0.0,0.0,0.0,0.0,0.0,0.0,0.0,0.0,0.0,0.0,0.0,0.0,0.0,0.0,0.0,0.0,0.0,0.0,0.0,0.0,0.0,0.0,0.0,0.0,0.0,2.068,2.1302,2.2593,2.3162,2.342,2.3423,0.0,0.0,0.0,0.0,0.0,0.0,0.0,0.0,0.0,0.0,0.0,0.0,0.0,0.0,0.0,0.0,0.0,0.0,0.0,0.0,0.0,0.0,0.0,0.0,0.0,0.0,0.0,0.0,0.0,0.0,0.0,0.0,0.0,0.0,0.0,0.0,0.0,0.0,0.0,0.0,0.0,0.0,0.0,0.0,0.0,0.0,0.0,0.0,0.0,0.0,0.0,0.0,0.0,0.0,0.0,0.0,0.0,0.0,0.0,0.0,0.0,0.0,0.0,0.0,0.0,0.0,0.0,0.0,0.0,0.0,0.0,0.0,0.0,0.0,0.0,0.0,0.0,0.0,0.0,0.0,0.0,0.0,0.0,0.0,0.0,0.0,0.0,0.0,0.0,0.0,0.0,0.0,0.0,0.0,0.0,0.0,0.0,0.0,0.0,0.0,0.0,0.0,0.0,0.0,0.0,0.0,0.0,0.0,2.4411,2.2601,2.2711,2.4992,2.2356,2.239,0.0,0.0,0.0,0.0,0.0,0.0,0.0,0.0,0.0,0.0,0.0,0.0,0.0,0.0,0.0,0.0,0.0,0.0,0.0,0.0,0.0,0.0,0.0,0.0,0.0,0.0,0.0,0.0,0.0,0.0,0.0,0.0,0.0,0.0,0.0,0.0,0.0,0.0,0.0,0.0,0.0,0.0,0.0,0.0,0.0,0.0,0.0,0.0,0.0,0.0,0.0,0.0,0.0,0.0,0.0,0.0,0.0,0.0,0.0,0.0,0.0,0.0,0.0,0.0,0.0,0.0,0.0,0.0,0.0,0.0,0.0,0.0,0.0,0.0,0.0,0.0,0.0,0.0,0.0,0.0,0.0,0.0,0.0,0.0,0.0,0.0,0.0,0.0,0.0,0.0,0.0,0.0,0.0,0.0,0.0,0.0,0.0,0.0,0.0,0.0,0.0,0.0,0.0,0.0,0.0,0.0,0.0,0.0,0.0,2.1899,2.223,2.284,2.3781,2.3267,2.3642,0.0,0.0,0.0,0.0,0.0,0.0,0.0,0.0,0.0,0.0,0.0,0.0,0.0,0.0,0.0,0.0,0.0,0.0,0.0,0.0,0.0,0.0,0.0,0.0,0.0,0.0,0.0,0.0,0.0,0.0,0.0,0.0,0.0,0.0,0.0,0.0,0.0,0.0,0.0,0.0,0.0,0.0,0.0,0.0,0.0,0.0,0.0,0.0,0.0,0.0,0.0,0.0,0.0,0.0,0.0,0.0,0.0,0.0,0.0,0.0,0.0,0.0,0.0,0.0,0.0,0.0,0.0,0.0,0.0,0.0,0.0,0.0,0.0,0.0,0.0,0.0,0.0,0.0,0.0,0.0,0.0,0.0,0.0,0.0,0.0,0.0,0.0,0.0,0.0,0.0,0.0,0.0,0.0,0.0,0.0,0.0,0.0,0.0,0.0,0.0,0.0,0.0,0.0,0.0,0.0,0.0,0.0,0.0,0.0,2.1474,0.0,2.3498,2.335,2.3455,2.3737,0.0,0.0,0.0,0.0,0.0,0.0,0.0,0.0,0.0,0.0,0.0,0.0,0.0,0.0,0.0,0.0,0.0,0.0,0.0,0.0,0.0,0.0,0.0,0.0,0.0,0.0,0.0,0.0,0.0,0.0,0.0,0.0,0.0,0.0,0.0,0.0,0.0,0.0,0.0,0.0,0.0,0.0,0.0,0.0,0.0,0.0,0.0,0.0,0.0,0.0,0.0,0.0,0.0,0.0,0.0,0.0,0.0,0.0,0.0,0.0,0.0,0.0,0.0,0.0,0.0,0.0,0.0,0.0,0.0,0.0,0.0,0.0,0.0,0.0,0.0,0.0,0.0,0.0,0.0,0.0,0.0,0.0,0.0,0.0,0.0,0.0,0.0,0.0,0.0,0.0,0.0,0.0,0.0,0.0,0.0,0.0,0.0,0.0,0.0,0.0,0.0,0.0,0.0,0.0,0.0,0.0,0.0,0.0,2.228,2.3751,2.4603,2.4662,2.4107,2.2741,2.2447,0.0,0.0,0.0,0.0,0.0,0.0,0.0,0.0,0.0,0.0,0.0,0.0,0.0,0.0,0.0,0.0,0.0,0.0,0.0,0.0,0.0,0.0,0.0,0.0,0.0,0.0,0.0,0.0,0.0,0.0,0.0,0.0,0.0,0.0,0.0,0.0,0.0,0.0,0.0,0.0,0.0,0.0,0.0,0.0,0.0,0.0,0.0,0.0,0.0,0.0,0.0,0.0,0.0,0.0,0.0,0.0,0.0,0.0,0.0,0.0,0.0,0.0,0.0,0.0,0.0,0.0,0.0,0.0,0.0,0.0,0.0,0.0,0.0,0.0,0.0,0.0,0.0,0.0,0.0,0.0,0.0,0.0,0.0,0.0,0.0,0.0,0.0,0.0,0.0,0.0,0.0,0.0,0.0,0.0,0.0,0.0,0.0,0.0,0.0,0.0,0.0,0.0,0.0,0.0,0.0,0.0,0.0,0.0,0.0,2.2363,2.262,2.3523,2.4904,2.3056,2.317,0.0,0.0,0.0,0.0,0.0,0.0,0.0,0.0,0.0,0.0,0.0,0.0,0.0,0.0,0.0,0.0,0.0,0.0,0.0,0.0,0.0,0.0,0.0,0.0,0.0,0.0,0.0,0.0,0.0,0.0,0.0,0.0,0.0,0.0,0.0,0.0,0.0,0.0,0.0,0.0,0.0,0.0,0.0,0.0,0.0,0.0,0.0,0.0,0.0,0.0,0.0,0.0,0.0,0.0,0.0,0.0,0.0,0.0,0.0,0.0,0.0,0.0,0.0,0.0,0.0,0.0,0.0,0.0,0.0,0.0,0.0,0.0,0.0,0.0,0.0,0.0,0.0,0.0,0.0,0.0,0.0,0.0,0.0,0.0,0.0,0.0,0.0,0.0,0.0,0.0,0.0,0.0,0.0,0.0,0.0,0.0,0.0,0.0,0.0,0.0,0.0,0.0,0.0,0.0,0.0,0.0,0.0,0.0,0.0,2.3198,2.3395,2.3831,2.4508,2.3166,2.3269,2.4949,0.0,0.0,0.0,0.0,0.0,0.0,0.0,0.0,0.0,0.0,0.0,0.0,0.0,0.0,0.0,0.0,0.0,0.0,0.0,0.0,0.0,0.0,0.0,0.0,0.0,0.0,0.0,0.0,0.0,0.0,0.0,0.0,0.0,0.0,0.0,0.0,0.0,0.0,0.0,0.0,0.0,0.0,0.0,0.0,0.0,0.0,0.0,0.0,0.0,0.0,0.0,0.0,0.0,0.0,0.0,0.0,0.0,0.0,0.0,0.0,0.0,0.0,0.0,0.0,0.0,0.0,0.0,0.0,0.0,0.0,0.0,0.0,0.0,0.0,0.0,0.0,0.0,0.0,0.0,0.0,0.0,0.0,0.0,0.0,0.0,0.0,0.0,0.0,0.0,0.0,0.0,0.0,0.0,0.0,0.0,0.0,0.0,0.0,0.0,0.0,0.0,0.0,0.0,0.0,0.0,0.0,0.0,0.0,2.5606,2.6299,2.5553,2.3267,2.3186,2.2893,0.0,0.0,0.0,0.0,0.0,0.0,0.0,0.0,0.0,0.0,0.0,0.0,0.0,0.0,0.0,0.0,0.0,0.0,0.0,0.0,0.0,0.0,0.0,0.0,0.0,0.0,0.0,0.0,0.0,0.0,0.0,0.0,0.0,0.0,0.0,0.0,0.0,0.0,0.0,0.0,0.0,0.0,0.0,0.0,0.0,0.0,0.0,0.0,0.0,0.0,0.0,0.0,0.0,0.0,0.0,0.0,0.0,0.0,0.0,0.0,0.0,0.0,0.0,0.0,0.0,0.0,0.0,0.0,0.0,0.0,0.0,0.0,0.0,0.0,0.0,0.0,0.0,0.0,0.0,0.0,0.0,0.0,0.0,0.0,0.0,0.0,0.0,0.0,0.0,0.0,0.0,0.0,0.0,0.0,0.0,0.0,0.0,0.0,0.0,0.0,0.0,0.0,0.0,0.0,0.0,0.0,0.0,0.0,0.0,2.4618,2.6538,2.7055,2.5806,2.4159,2.3762,0.0,0.0,0.0,0.0,0.0,0.0,0.0,0.0,0.0,0.0,0.0,0.0,0.0,0.0,0.0,0.0,0.0,0.0,0.0,0.0,0.0,0.0,0.0,0.0,0.0,0.0,0.0,0.0,0.0,0.0,0.0,0.0,0.0,0.0,0.0,0.0,0.0,0.0,0.0,0.0,0.0,0.0,0.0,0.0,0.0,0.0,0.0,0.0,0.0,0.0,0.0,0.0,0.0,0.0,0.0,0.0,0.0,0.0,0.0,0.0,0.0,0.0,0.0,0.0,0.0,0.0,0.0,0.0,0.0,0.0,0.0,0.0,0.0,0.0,0.0,0.0,0.0,0.0,0.0,0.0,0.0,0.0,0.0,0.0,0.0,0.0,0.0,0.0,0.0,0.0,0.0,0.0,0.0,0.0,0.0,0.0,0.0,0.0,0.0,0.0,0.0,0.0,0.0,0.0,0.0,0.0,0.0,0.0,2.5087,2.4839,2.7224,2.8289,2.7827,2.6205,2.4959,0.0,0.0,0.0,0.0,0.0,0.0,0.0,0.0,0.0,0.0,0.0,0.0,0.0,0.0,0.0,0.0,0.0,0.0,0.0,0.0,0.0,0.0,0.0,0.0,0.0,0.0,0.0,0.0,0.0,0.0,0.0,0.0,0.0,0.0,0.0,0.0,0.0,0.0,0.0,0.0,0.0,0.0,0.0,0.0,0.0,0.0,0.0,0.0,0.0,0.0,0.0,0.0,0.0,0.0,0.0,0.0,0.0,0.0,0.0,0.0,0.0,0.0,0.0,0.0,0.0,0.0,0.0,0.0,0.0,0.0,0.0,0.0,0.0,0.0,0.0,0.0,0.0,0.0,0.0,0.0,0.0,0.0,0.0,0.0,0.0,0.0,0.0,0.0,0.0,0.0,0.0,0.0,0.0,0.0,0.0,0.0,0.0,0.0,0.0,0.0,0.0,0.0,0.0,0.0,0.0,0.0,0.0,0.0,2.5418,2.5874,2.8052,2.92,2.9187,2.8432,2.6269,0.0,0.0,0.0,0.0,0.0,0.0,0.0,0.0,0.0,0.0,0.0,0.0,0.0,0.0,0.0,0.0,0.0,0.0,0.0,0.0,0.0,0.0,0.0,0.0,0.0,0.0,0.0,0.0,0.0,0.0,0.0,0.0,0.0,0.0,0.0,0.0,0.0,0.0,0.0,0.0,0.0,0.0,0.0,0.0,0.0,0.0,0.0,0.0,0.0,0.0,0.0,0.0,0.0,0.0,0.0,0.0,0.0,0.0,0.0,0.0,0.0,0.0,0.0,0.0,0.0,0.0,0.0,0.0,0.0,0.0,0.0,0.0,0.0,0.0,0.0,0.0,0.0,0.0,0.0,0.0,0.0,0.0,0.0,0.0,0.0,0.0,0.0,0.0,0.0,0.0,0.0,0.0,0.0,0.0,0.0,0.0,0.0,0.0,0.0,0.0,0.0,0.0,0.0,0.0,0.0,0.0,0.0,0.0,2.5599,2.6421,2.8247,2.9229,2.9272,2.8063,2.6625,0.0,0.0,0.0,0.0,0.0,0.0,0.0,0.0,0.0,0.0,0.0,0.0,0.0,0.0,0.0,0.0,0.0,0.0,0.0,0.0,0.0,0.0,0.0,0.0,0.0,0.0,0.0,0.0,0.0,0.0,0.0,0.0,0.0,0.0,0.0,0.0,0.0,0.0,0.0,0.0,0.0,0.0,0.0,0.0,0.0,0.0,0.0,0.0,2.6716,0.0,0.0,0.0,0.0,0.0,0.0,0.0,0.0,0.0,0.0,0.0,0.0,0.0,0.0,0.0,0.0,0.0,0.0,0.0,0.0,0.0,0.0,0.0,0.0,0.0,0.0,0.0,0.0,0.0,0.0,0.0,0.0,0.0,0.0,0.0,0.0,0.0,0.0,0.0,0.0,0.0,0.0,0.0,0.0,0.0,0.0,0.0,0.0,0.0,0.0,0.0,0.0,0.0,0.0,0.0,0.0,0.0,0.0,0.0,2.5192,2.6633,2.8307,2.9235,2.9265,2.8646,2.7461,0.0,0.0,0.0,0.0,0.0,0.0,0.0,0.0,0.0,0.0,0.0,0.0,0.0,0.0,0.0,0.0,0.0,0.0,0.0,0.0,0.0,0.0,0.0,0.0,0.0,0.0,0.0,0.0,0.0,0.0,0.0,0.0,0.0,0.0,0.0,0.0,0.0,0.0,0.0,0.0,0.0,0.0,0.0,0.0,0.0,0.0,0.0,0.0,0.0,0.0,0.0,0.0,0.0,0.0,0.0,0.0,0.0,0.0,0.0,0.0,0.0,0.0,0.0,0.0,0.0,0.0,0.0,0.0,0.0,0.0,0.0,0.0,0.0,0.0,0.0,0.0,0.0,0.0,0.0,0.0,0.0,0.0,0.0,0.0,0.0,0.0,0.0,0.0,0.0,0.0,0.0,0.0,0.0,0.0,0.0,0.0,0.0,0.0,0.0,0.0,0.0,0.0,0.0,0.0,0.0,0.0,0.0,2.3149,2.4822,2.7024,2.8489,2.924,2.9299,2.9324,2.8235,2.5987,0.0,0.0,0.0,0.0,0.0,0.0,0.0,0.0,0.0,0.0,0.0,0.0,0.0,0.0,0.0,0.0,0.0,0.0,0.0,0.0,0.0,0.0,0.0,0.0,0.0,0.0,0.0,0.0,0.0,0.0,0.0,0.0,0.0,0.0,0.0,0.0,0.0,0.0,2.5632,2.6722,0.0,0.0,0.0,0.0,0.0,0.0,0.0,0.0,2.8437,0.0,0.0,0.0,0.0,0.0,0.0,0.0,0.0,0.0,0.0,0.0,0.0,0.0,0.0,0.0,0.0,0.0,0.0,0.0,0.0,0.0,0.0,0.0,0.0,0.0,0.0,0.0,0.0,0.0,0.0,0.0,0.0,0.0,0.0,0.0,0.0,0.0,0.0,0.0,0.0,0.0,0.0,0.0,0.0,0.0,0.0,0.0,0.0,0.0,0.0,0.0,0.0,0.0,0.0,0.0,0.0,2.5461,2.4481,2.5515,2.8693,2.9041,2.9262,2.9362,2.8813,2.7932,2.6735,0.0,0.0,0.0,0.0,0.0,0.0,0.0,0.0,0.0,0.0,0.0,0.0,0.0,0.0,0.0,0.0,0.0,0.0,0.0,0.0,0.0,0.0,0.0,0.0,0.0,0.0,0.0,0.0,0.0,0.0,0.0,0.0,0.0,0.0,0.0,0.0,0.0,0.0,0.0,2.6479,2.7295,0.0,0.0,0.0,0.0,0.0,0.0,0.0,0.0,2.8985,0.0,0.0,0.0,0.0,0.0,0.0,0.0,0.0,0.0,0.0,0.0,0.0,0.0,0.0,0.0,0.0,0.0,0.0,0.0,0.0,0.0,0.0,0.0,0.0,0.0,0.0,0.0,0.0,0.0,0.0,0.0,0.0,0.0,0.0,0.0,0.0,0.0,0.0,0.0,0.0,0.0,0.0,0.0,0.0,0.0,0.0,0.0,0.0,0.0,0.0,0.0,0.0,0.0,0.0,0.0,2.5097,2.4808,2.6051,2.9073,2.9213,2.9267,2.9359,2.8215,2.7158,0.0,0.0,0.0,0.0,0.0,0.0,0.0,0.0,0.0,0.0,0.0,0.0,0.0,0.0,0.0,0.0,0.0,0.0,0.0,0.0,0.0,0.0,0.0,0.0,0.0,0.0,0.0,0.0,0.0,0.0,0.0,0.0,0.0,0.0,0.0,0.0,0.0,0.0,0.0,0.0,2.6123,2.6734,2.5888,0.0,0.0,0.0,0.0,0.0,0.0,2.8008,2.9083,0.0,0.0,0.0,0.0,0.0,0.0,0.0,0.0,0.0,0.0,0.0,0.0,0.0,0.0,0.0,0.0,0.0,0.0,0.0,0.0,0.0,0.0,0.0,0.0,0.0,0.0,0.0,0.0,0.0,0.0,0.0,0.0,0.0,0.0,0.0,0.0,0.0,0.0,0.0,0.0,0.0,0.0,0.0,0.0,0.0,0.0,0.0,0.0,0.0,0.0,0.0,0.0,0.0,0.0,0.0,2.4379,2.4883,2.6414,2.9049,2.92,2.9185,2.9113,2.7544,2.6293,0.0,0.0,0.0,0.0,0.0,0.0,0.0,0.0,0.0,0.0,0.0,0.0,0.0,0.0,0.0,0.0,0.0,0.0,0.0,0.0,0.0,0.0,0.0,0.0,0.0,0.0,0.0,0.0,0.0,0.0,0.0,0.0,0.0,0.0,0.0,0.0,0.0,0.0,0.0,0.0,0.0,2.671,2.6,2.6325,0.0,0.0,0.0,0.0,2.6874,2.8548,0.0,0.0,0.0,0.0,0.0,0.0,0.0,0.0,0.0,0.0,0.0,0.0,0.0,0.0,0.0,0.0,0.0,0.0,0.0,0.0,0.0,0.0,0.0,0.0,0.0,0.0,0.0,0.0,0.0,0.0,0.0,0.0,0.0,0.0,0.0,0.0,0.0,0.0,0.0,0.0,0.0,0.0,0.0,0.0,0.0,0.0,0.0,0.0,0.0,0.0,0.0,0.0,0.0,0.0,0.0,0.0,2.4654,2.5147,2.6604,2.9041,2.9275,2.8952,2.8263,2.6739,2.5518,0.0,0.0,0.0,0.0,0.0,0.0,0.0,0.0,0.0,0.0,0.0,0.0,0.0,0.0,0.0,0.0,0.0,0.0,0.0,0.0,0.0,0.0,0.0,0.0,0.0,0.0,0.0,0.0,0.0,0.0,0.0,0.0,0.0,0.0,0.0,0.0,0.0,0.0,0.0,0.0,0.0,2.8371,2.7698,2.7142,2.6718,0.0,0.0,2.7046,2.7741,2.9959,0.0,0.0,0.0,0.0,0.0,0.0,0.0,0.0,0.0,0.0,0.0,0.0,0.0,0.0,0.0,0.0,0.0,0.0,0.0,0.0,0.0,0.0,0.0,0.0,0.0,0.0,0.0,0.0,0.0,0.0,0.0,0.0,0.0,0.0,0.0,0.0,0.0,0.0,0.0,0.0,0.0,0.0,0.0,0.0,0.0,0.0,0.0,0.0,0.0,0.0,0.0,0.0,0.0,0.0,0.0,2.3047,2.5189,2.585,2.7127,2.9102,2.8775,2.8401,2.8096,2.5651,2.4163,0.0,0.0,0.0,0.0,0.0,0.0,0.0,0.0,0.0,0.0,0.0,0.0,0.0,0.0,0.0,0.0,0.0,0.0,0.0,0.0,0.0,0.0,0.0,0.0,0.0,0.0,0.0,0.0,0.0,0.0,0.0,0.0,0.0,0.0,0.0,0.0,0.0,0.0,0.0,0.0,0.0,0.0,2.7859,2.8046,0.0,0.0,0.0,2.8781,2.8098,0.0,0.0,0.0,0.0,0.0,0.0,0.0,0.0,0.0,0.0,0.0,0.0,0.0,0.0,0.0,0.0,0.0,0.0,0.0,0.0,0.0,0.0,0.0,0.0,0.0,0.0,0.0,0.0,0.0,0.0,0.0,0.0,0.0,0.0,0.0,0.0,0.0,0.0,0.0,0.0,0.0,0.0,0.0,0.0,0.0,0.0,0.0,0.0,0.0,0.0,0.0,0.0,0.0,0.0,0.0,0.0,0.0,2.5568,2.6337,2.7527,2.9121,2.8439,2.7855,2.7459,2.4909,0.0,0.0,0.0,0.0,0.0,0.0,0.0,0.0,0.0,0.0,0.0,0.0,0.0,0.0,0.0,0.0,0.0,0.0,0.0,0.0,0.0,0.0,0.0,0.0,0.0,0.0,0.0,2.0858,0.0,0.0,0.0,0.0,0.0,0.0,0.0,0.0,0.0,0.0,0.0,0.0,0.0,0.0,2.7481,2.8394,2.8946,2.9105,0.0,0.0,3.0221,2.8881,3.0897,3.171,0.0,0.0,0.0,0.0,0.0,0.0,0.0,0.0,0.0,0.0,0.0,0.0,0.0,0.0,0.0,0.0,0.0,0.0,0.0,0.0,0.0,0.0,0.0,0.0,0.0,0.0,0.0,0.0,0.0,0.0,0.0,0.0,0.0,0.0,0.0,0.0,0.0,0.0,0.0,0.0,0.0,0.0,0.0,0.0,0.0,0.0,0.0,0.0,0.0,0.0,0.0,0.0,0.0,0.0,2.3931,2.5546,2.6388,2.7582,2.9107,2.8481,2.7385,2.5903,2.4927,2.3316,0.0,0.0,0.0,0.0,0.0,0.0,0.0,0.0,0.0,0.0,0.0,0.0,0.0,0.0,0.0,0.0,0.0,0.0,0.0,0.0,0.0,0.0,0.0,0.0,0.0,0.0,0.0,0.0,0.0,0.0,0.0,0.0,0.0,0.0,0.0,0.0,0.0,0.0,0.0,0.0,0.0,2.9865,3.0196,2.9743,2.9643,0.0,3.0594,3.0631,3.0444,3.2606,3.3423,3.0755,0.0,0.0,0.0,0.0,0.0,0.0,0.0,0.0,0.0,0.0,0.0,0.0,0.0,0.0,0.0,0.0,0.0,0.0,0.0,0.0,0.0,0.0,0.0,0.0,0.0,0.0,0.0,0.0,0.0,0.0,0.0,0.0,0.0,0.0,0.0,0.0,0.0,0.0,0.0,0.0,0.0,0.0,0.0,0.0,0.0,0.0,0.0,0.0,0.0,0.0,0.0,0.0,0.0,2.381,2.58,2.6329,2.74,2.9084,2.8004,2.7055,2.6461,2.4668,2.3025,0.0,0.0,0.0,0.0,0.0,0.0,0.0,0.0,0.0,0.0,0.0,0.0,0.0,0.0,0.0,0.0,0.0,0.0,0.0,0.0,0.0,0.0,0.0,0.0,0.0,0.0,0.0,0.0,2.3355,2.3808,2.4544,0.0,0.0,0.0,0.0,0.0,0.0,0.0,0.0,0.0,0.0,2.9225,3.1011,3.1052,0.0,0.0,3.1856,3.1849,3.0765,3.2329,3.2819,3.0252,3.0795,0.0,0.0,0.0,0.0,0.0,0.0,0.0,0.0,0.0,0.0,0.0,0.0,0.0,0.0,0.0,0.0,0.0,0.0,0.0,0.0,0.0,0.0,0.0,0.0,0.0,0.0,0.0,0.0,0.0,0.0,0.0,0.0,0.0,0.0,0.0,0.0,0.0,0.0,0.0,0.0,0.0,0.0,0.0,0.0,0.0,0.0,0.0,0.0,0.0,0.0,0.0,0.0,2.3968,2.5868,2.6435,2.7418,2.8809,2.7572,2.6665,2.6168,2.4501,2.3095,0.0,0.0,0.0,0.0,0.0,0.0,0.0,0.0,0.0,0.0,0.0,0.0,0.0,0.0,0.0,0.0,0.0,0.0,0.0,0.0,0.0,0.0,0.0,0.0,0.0,0.0,0.0,0.0,2.4244,2.4528,2.4617,0.0,0.0,0.0,0.0,0.0,0.0,0.0,0.0,0.0,0.0,2.9533,3.1521,3.1803,3.189,3.2149,3.2962,3.3027,3.1596,3.2628,3.2738,3.0162,0.0,0.0,0.0,0.0,0.0,0.0,0.0,0.0,0.0,0.0,0.0,0.0,0.0,0.0,0.0,0.0,0.0,0.0,0.0,0.0,0.0,0.0,0.0,0.0,0.0,0.0,0.0,1.6208,0.0,0.0,1.627,0.0,0.0,0.0,0.0,0.0,0.0,0.0,0.0,0.0,0.0,0.0,0.0,0.0,0.0,0.0,0.0,0.0,0.0,0.0,0.0,0.0,0.0,2.4493,2.5627,2.6802,2.7654,2.803,2.7289,2.6186,2.4723,2.45,2.371,2.2074,0.0,0.0,0.0,0.0,0.0,0.0,0.0,0.0,0.0,0.0,0.0,0.0,0.0,0.0,0.0,0.0,0.0,0.0,0.0,0.0,0.0,0.0,0.0,0.0,0.0,0.0,2.5411,2.4874,2.4541,0.0,0.0,0.0,0.0,0.0,0.0,0.0,0.0,0.0,3.0962,3.1203,3.1435,3.173,3.18,3.2094,3.2926,3.3781,3.4026,3.3088,3.3796,3.3581,0.0,0.0,0.0,0.0,0.0,0.0,0.0,0.0,0.0,0.0,0.0,0.0,0.0,0.0,0.0,0.0,0.0,0.0,0.0,0.0,0.0,0.0,0.0,0.0,0.0,0.0,0.0,1.7469,1.7469,0.0,0.0,0.0,0.0,0.0,0.0,0.0,0.0,0.0,0.0,0.0,2.1342,2.1965,0.0,0.0,0.0,0.0,0.0,0.0,0.0,0.0,0.0,0.0,0.0,0.0,2.4135,2.6406,2.6481,2.725,2.8833,2.7574,2.6585,2.6112,2.5057,2.3971,2.2831,0.0,0.0,0.0,0.0,0.0,0.0,0.0,0.0,0.0,0.0,0.0,0.0,0.0,0.0,0.0,0.0,0.0,0.0,0.0,0.0,0.0,0.0,0.0,0.0,0.0,2.6123,0.0,0.0,0.0,0.0,0.0,0.0,0.0,0.0,0.0,0.0,0.0,3.0292,3.0883,3.1291,3.1549,3.1602,3.1708,3.2099,0.0,0.0,0.0,0.0,0.0,0.0,0.0,0.0,0.0,0.0,0.0,0.0,0.0,0.0,3.8544,3.5184,3.4975,3.538,3.5643,0.0,0.0,0.0,0.0,0.0,0.0,0.0,0.0,0.0,0.0,0.0,0.0,0.0,0.0,1.8237,0.0,1.8205,0.0,0.0,0.0,0.0,0.0,0.0,0.0,0.0,2.2177,2.3054,2.2781,2.3913,2.4527,0.0,2.4879,2.4156,0.0,0.0,0.0,0.0,0.0,0.0,0.0,0.0,2.4576,2.6428,2.6648,2.7278,2.8349,2.7382,2.6561,2.607,2.5057,2.4101,2.3221,2.2429,2.2129,0.0,0.0,0.0,0.0,0.0,0.0,0.0,0.0,0.0,0.0,0.0,0.0,0.0,0.0,0.0,0.0,0.0,0.0,0.0,0.0,0.0,0.0,0.0,2.699,0.0,0.0,0.0,0.0,0.0,0.0,0.0,0.0,0.0,3.1105,3.1037,3.1276,3.2085,3.2231,3.238,3.2744,0.0,0.0,0.0,0.0,0.0,0.0,0.0,3.4626,3.3798,3.5576,3.71,3.7118,3.8988,4.0248,3.9431,0.0,0.0,3.789,3.7626,3.8054,3.8317,3.7829,3.796,3.9908,3.8726,3.7549,0.0,0.0,0.0,0.0,0.0,0.0,0.0,0.0,1.857,1.8681,0.0,1.8594,0.0,0.0,0.0,0.0,1.9209,2.2017,0.0,0.0,2.4872,2.5725,2.4528,2.4789,2.4872,2.489,2.5625,2.5524,2.4717,2.3715,0.0,0.0,0.0,0.0,0.0,0.0,2.5813,2.5774,2.7283,2.77,2.6893,2.677,2.6042,2.4607,2.4518,2.4082,2.3221,2.2497,2.2446,2.3161,2.2497,0.0,0.0,0.0,0.0,0.0,0.0,0.0,0.0,0.0,0.0,0.0,0.0,0.0,0.0,0.0,0.0,0.0,0.0,0.0,0.0,2.7993,0.0,0.0,0.0,0.0,0.0,0.0,0.0,0.0,0.0,0.0,3.2185,3.2833,3.3705,3.4512,0.0,0.0,0.0,0.0,3.4385,3.5445,3.6303,3.6806,3.6826,3.7591,3.7898,3.7113,0.0,0.0,3.9726,4.1156,4.2052,4.1193,4.2414,4.3233,4.2421,4.2054,4.2267,4.2906,4.1751,4.1197,4.1806,4.1299,4.0449,1.9501,0.0,0.0,0.0,0.0,2.0076,2.0438,2.0649,2.0967,2.1029,2.0881,2.0696,0.0,0.0,0.0,0.0,0.0,0.0,2.3652,2.4205,2.6285,2.7271,2.7325,2.8004,2.8136,2.7758,2.7417,2.6828,2.6056,2.5669,2.5022,2.4177,0.0,0.0,0.0,0.0,2.5834,2.7083,2.7248,2.7663,2.8468,2.6764,2.5417,2.4514,2.45,2.4101,2.3244,2.3572,2.3591,2.3221,2.3568,0.0,0.0,0.0,0.0,0.0,0.0,0.0,0.0,0.0,0.0,0.0,0.0,0.0,0.0,0.0,0.0,0.0,0.0,0.0,2.8913,2.891,2.8934,0.0,0.0,0.0,0.0,0.0,0.0,0.0,0.0,0.0,3.4496,3.3918,3.3989,0.0,0.0,3.402,3.4863,3.4504,3.4687,3.6158,3.6194,0.0,3.6826,3.7124,3.7434,3.7793,4.0319,4.2255,4.2233,4.3634,4.449,4.367,4.4401,4.5031,4.4773,4.3768,4.2929,4.2498,4.2418,4.2805,4.3581,4.3138,4.2614,2.191,2.2028,2.1042,2.0564,2.0528,2.0983,2.136,2.1688,2.2218,2.2482,2.2511,2.2633,2.2754,2.2923,2.2907,0.0,0.0,0.0,2.561,2.6383,2.7627,2.8397,2.8784,2.9568,2.9612,2.8999,2.8827,2.8292,2.7398,2.7281,2.7051,2.6644,0.0,0.0,2.4824,2.5758,2.6735,2.7674,2.8,2.8396,2.8928,2.704,2.5685,2.5016,2.528,2.49,2.3772,2.4216,2.4398,2.4199,2.4055,2.4417,0.0,0.0,0.0,0.0,0.0,0.0,0.0,0.0,0.0,0.0,0.0,2.4068,2.433,0.0,0.0,0.0,2.8123,2.9071,2.9323,2.938,0.0,0.0,0.0,0.0,0.0,0.0,0.0,3.2275,3.3947,3.5421,3.6113,3.5539,3.5478,3.6637,3.5812,3.5415,3.6298,0.0,3.5983,3.7448,3.7353,3.7401,3.8196,3.8385,3.8837,4.0036,4.218,4.3885,4.4291,4.5165,4.5591,4.5258,4.5474,4.5803,4.5803,4.4972,4.4156,4.3637,4.3894,4.4425,4.4984,4.4604,4.442,2.3939,2.5199,2.2948,2.1807,2.1501,2.1525,2.1904,2.2494,2.2811,2.3376,2.4126,2.4331,2.4505,2.4655,2.5125,0.0,2.4956,2.7105,2.8108,2.8246,2.9014,2.9395,2.9446,3.0161,3.0063,2.9288,2.9947,2.9734,2.8774,2.8668,2.8715,2.8834,2.753,2.6252,2.5265,2.7215,2.8131,2.7822,2.9143,2.9377,2.8457,2.7342,2.6454,2.5824,2.6484,2.6154,2.469,2.4667,2.4983,2.5517,2.4198,2.4421,2.6447,0.0,0.0,0.0,0.0,0.0,0.0,0.0,0.0,0.0,0.0,0.0,0.0,0.0,0.0,2.6744,2.7736,0.0,2.9436,2.9605,0.0,0.0,0.0,3.1149,3.1831,3.2844,3.3683,3.4239,0.0,0.0,3.7082,3.7351,3.7673,3.8178,3.7582,3.7534,3.8643,3.8002,3.7923,3.8957,3.9254,3.9622,4.0111,4.0479,4.1139,4.2504,4.3896,4.4562,4.5184,4.5404,4.5524,4.5532,4.564,4.5694,4.5756,4.5683,4.5759,4.5629,4.5693,4.5765,4.5745,4.5684,4.5645,2.5653,2.6153,2.5587,2.483,2.4053,2.4413,2.4323,2.4034,2.4645,2.5318,2.5922,2.5698,2.6221,2.7313,2.8033,2.8203,2.7969,2.8503,2.92,3.004,3.1217,3.1894,3.2165,3.268,3.2404,3.1388,3.0932,3.0462,2.9969,2.9852,2.9771,2.9679,2.9209,2.8486,2.7604,2.8094,2.8731,2.9423,2.8855,2.81,2.7169,2.6764,2.6545,2.6552,2.6621,2.6266,2.5457,2.6001,2.5852,2.4853,2.5076,2.5254,2.5206,2.4385,0.0,0.0,0.0,0.0,0.0,0.0,0.0,0.0,0.0,2.648,2.47,0.0,2.828,0.0,2.8272,2.9405,3.0238,3.0336,0.0,0.0,3.2865,3.3163,3.2773,3.4581,3.5231,3.3514,3.5375,3.6878,3.6953,3.7812,3.8626,3.9194,3.815,3.7874,3.9329,3.9011,3.8847,3.9647,3.9931,4.012,4.034,4.0956,4.153,4.1949,4.2738,4.3376,4.3573,4.3611,4.3795,4.4348,4.4502,4.4747,4.5386,4.5493,4.5497,4.551,4.5653,4.5803,4.5803,4.5803,4.5803,2.6403,2.757,2.7231,2.6928,2.6667,2.6042,2.5656,2.5565,2.6415,2.7021,2.7397,2.7633,2.8287,2.9248,3.0065,3.0452,3.0492,3.0794,3.1276,3.1865,3.2456,3.2826,3.3015,3.3201,3.2879,3.2187,3.1515,3.0997,3.0643,3.0589,3.0662,3.0785,3.069,3.0396,2.9912,2.923,2.9185,2.9748,2.8868,2.8306,2.8085,2.7683,2.7437,2.7328,2.725,2.6727,2.5695,2.607,2.607,2.5551,2.5765,2.6014,2.6199,2.4684,2.4478,0.0,0.0,0.0,0.0,0.0,0.0,0.0,0.0,0.0,0.0,0.0,2.8623,2.8231,2.9627,3.0706,3.1112,3.123,3.16,3.2394,3.3181,3.3479,3.3033,3.4586,3.5274,3.4246,3.5581,3.6844,3.744,3.8209,3.8972,3.969,3.9053,3.8844,3.964,3.9568,3.9516,3.9939,4.011,4.0239,4.0273,4.0692,4.1157,4.1545,4.2005,4.2432,4.282,4.2911,4.3161,4.3919,4.4106,4.4374,4.5194,4.5405,4.5405,4.5429,4.5515,4.5633,4.5715,4.5748,4.5803,2.6796,2.8887,2.8266,2.8461,2.9078,2.7406,2.6829,2.7055,2.798,2.8449,2.8603,2.9646,3.0352,3.0768,3.1464,3.2012,3.2479,3.3102,3.3389,3.3393,3.3265,3.3202,3.3204,3.3081,3.2902,3.2686,3.2182,3.1713,3.1298,3.1385,3.1655,3.2068,3.1997,3.198,3.2007,3.0455,2.954,2.9322,2.914,2.9329,2.9831,2.9106,2.8547,2.8162,2.7949,2.7172,2.5833,2.5769,2.6037,2.6622,2.6199,2.6556,2.7814,2.4776,2.4309,0.0,2.4708,0.0,0.0,0.0,0.0,0.0,0.0,0.0,0.0,2.8292,2.8735,2.9622,3.1136,3.2022,3.1972,3.2107,3.22,3.2151,3.2847,3.3336,3.3354,3.4205,3.5012,3.5467,3.5964,3.6809,3.791,3.8455,3.9007,3.9724,3.9813,3.9767,3.9895,3.9868,3.9854,3.9895,3.9989,4.011,4.0199,4.0235,4.0526,4.1191,4.133,4.1664,4.2263,4.2421,4.2766,4.3604,4.3795,4.4169,4.515,4.5336,4.5336,4.5321,4.5351,4.5424,4.5575,4.5685,4.5782,2.8096,2.8758,2.9003,2.952,3.0228,3.0468,2.9788,2.8587,2.8768,2.9193,2.9849,3.0899,3.1565,3.1963,3.2123,3.2557,3.3186,3.3328,3.3389,3.3444,3.4382,3.4839,3.4879,3.5137,3.5105,3.4769,3.4054,3.3573,3.3318,3.326,3.3365,3.3628,3.2965,3.2965,3.3534,0.0,0.0,0.0,2.9779,3.0392,3.01,2.9296,2.8896,2.8929,2.7606,0.0,2.666,2.6656,2.6474,2.6088,2.6072,0.0,0.0,0.0,0.0,0.0,0.0,0.0,0.0,0.0,0.0,0.0,3.0993,3.0405,2.846,2.9476,3.0543,3.1206,3.165,3.2112,3.2704,3.2807,3.3061,3.3689,3.45,3.5027,3.5058,3.631,3.683,3.5646,3.6881,3.7697,3.747,3.8107,3.8988,3.9767,3.9895,3.9895,3.9895,3.9895,3.9895,3.99,3.9924,3.9946,3.9972,3.9998,4.0052,4.021,4.0235,4.0321,4.0522,4.0598,4.11,4.2417,4.2723,4.3266,4.4691,4.4984,4.5007,4.5009,4.5109,4.532,4.5545,4.5617,4.5669,2.8811,2.975,3.0,3.0506,0.0,3.1819,3.16,3.0784,3.1058,3.1393,3.1775,3.2297,3.2856,3.34,3.3393,3.3789,3.4495,3.4495,3.4478,3.4533,3.5164,3.5439,3.5439,3.5345,3.5389,3.5455,3.4444,3.4057,3.4257,3.3898,3.399,3.4523,3.3741,3.3788,3.4535,3.2684,3.0709,2.872,2.9241,2.9541,2.9569,2.9053,2.8686,2.8528,2.7732,0.0,0.0,0.0,0.0,0.0,0.0,0.0,0.0,2.748,0.0,2.8725,2.8681,2.9194,3.0405,3.0772,3.1134,3.1558,3.2135,3.1776,3.0049,3.1134,3.2011,3.2324,3.2718,3.3144,3.3534,3.359,3.3757,3.4197,3.499,3.5485,3.5621,3.6563,3.6971,3.6359,3.6957,3.759,3.7704,3.8192,3.8942,3.9738,3.9895,3.9895,3.9895,3.9895,3.9895,3.9895,3.9895,3.9895,3.9895,3.9895,3.9895,3.9895,3.9895,3.9895,3.9895,4.026,4.0853,4.1706,4.2445,4.3379,4.4061,4.4611,4.4895,4.4901,4.4973,4.5129,4.5342,4.5447,4.5541,2.9505,3.0856,3.0937,3.1304,3.1832,3.2417,3.2776,3.3016,3.3295,0.0,0.0,3.3389,3.3795,3.4472,3.4489,3.4912,3.5594,3.5628,3.5628,3.5628,3.5628,3.5628,3.5583,3.5096,3.5113,3.5526,3.4542,3.435,3.4861,3.4327,3.4373,3.4871,3.4387,3.4447,3.4978,3.3794,3.2024,2.988,2.9055,2.8802,2.8996,2.8792,2.8523,2.8103,2.7837,2.7097,2.5879,2.581,2.6144,2.6817,2.7018,2.7533,2.8418,2.8681,2.924,3.0166,3.0219,3.0823,3.2146,3.2271,3.2398,3.2654,3.3285,3.3288,3.2443,3.304,3.3441,3.3441,3.4055,3.4426,3.4426,3.4271,3.4277,3.4408,3.4928,3.5355,3.5708,3.6284,3.6767,3.6891,3.7069,3.7405,3.8156,3.8405,3.8852,3.9659,3.9895,3.9895,3.9895,3.9895,3.9895,3.9895,3.9895,3.9895,3.9895,3.9854,3.9859,3.9895,3.9884,3.9859,3.9989,4.0487,4.0986,4.1232,4.2388,4.3165,4.3638,4.4213,4.4724,4.4876,4.4895,4.4943,4.5114,4.5223,4.5366,3.08,3.1087,3.1498,3.1716,3.1869,3.2574,3.3487,3.4402,3.3721,3.3396,3.3389,3.3389,3.3812,3.4489,3.4489,3.4884,3.56,3.5628,3.5628,3.5628,3.5628,3.5628,3.5583,3.552,3.552,3.5583,3.5413,3.5452,3.5608,3.5545,3.5332,3.4948,3.4871,3.4839,3.4782,3.4756,3.3758,3.1758,3.1197,3.0307,2.9034,2.9026,2.9013,2.8881,2.7601,2.6809,2.6638,2.6643,2.6772,2.7062,2.7092,2.7854,2.9446,2.9607,3.0333,3.179,3.1836,3.1875,3.2133,3.2587,3.3488,3.4902,3.5745,3.5838,3.507,3.507,3.5132,3.5138,3.5213,3.5324,3.5287,3.4649,3.45,3.5169,3.4761,3.4946,3.634,3.6674,3.7046,3.7659,3.7864,3.7979,3.8288,3.8468,3.8897,3.9659,3.9889,3.9895,3.9895,3.9895,3.9895,3.9895,3.9895,3.9895,3.9884,3.9798,3.9798,3.9889,3.9809,3.9798,3.9889,4.0097,4.0463,4.1061,4.1548,4.2192,4.3278,4.3777,4.4175,4.4649,4.4819,4.4913,4.4955,4.4997,4.5124,3.1135,3.1797,3.2034,3.2568,3.3289,3.3508,3.4133,3.4935,3.4868,3.4734,3.4602,3.4596,3.4782,3.5098,3.5087,3.552,3.6248,3.5797,3.5847,3.6197,3.5814,3.5628,3.5628,3.5628,3.5628,3.5628,3.5628,3.5633,3.5678,3.5689,3.5592,3.54,3.5484,3.5625,3.577,3.5703,3.5635,3.561,3.285,3.0613,2.9052,2.903,2.9068,2.9089,2.8351,2.8054,2.8143,2.7704,2.7732,2.832,2.7877,2.8442,3.01,3.0217,3.0972,3.2541,3.3044,3.3443,3.3922,3.4592,3.5336,3.6105,3.6488,3.6748,3.6823,3.6402,3.6154,3.6135,3.577,3.5689,3.6061,3.4983,3.4699,3.6042,3.5782,3.6061,3.7139,3.7764,3.8135,3.8495,3.8598,3.8691,3.8821,3.8969,3.9189,3.9738,3.9856,3.9895,3.9895,3.9895,3.9895,3.9895,3.9895,3.9873,3.9815,3.9815,3.9804,3.9798,3.979,3.9845,3.9927,4.0159,4.0458,4.0546,4.1086,4.1813,4.2446,4.3127,4.3752,4.4093,4.4649,4.4838,4.4901,4.4992,4.5178,3.1921,3.2858,3.2873,3.3505,3.4472,3.4467,3.4792,3.538,3.5951,3.6183,3.6106,3.5949,3.5955,3.6101,3.5966,3.6299,3.6902,3.6417,3.6468,3.6936,3.6405,3.6118,3.609,3.6,3.591,3.5864,3.5684,3.5628,3.5628,3.5628,3.5656,3.5772,3.5729,3.6038,3.6676,3.6381,3.6809,3.7663,3.4239,3.1717,3.0491,3.0032,2.9836,2.987,2.9716,2.9676,2.9747,2.9137,2.9132,2.9813,2.9439,2.9848,3.1242,3.137,3.2118,3.3616,3.4204,3.4847,3.5683,3.65,3.6945,3.6945,3.7098,3.7436,3.7949,3.7493,3.7039,3.6896,3.6265,3.6042,3.6377,3.5392,3.5095,3.6488,3.6507,3.6767,3.7745,3.8328,3.8755,3.8971,3.9101,3.9126,3.9285,3.9383,3.9514,3.9663,3.9798,3.9848,3.987,3.9884,3.9867,3.9867,3.9878,3.9837,3.9715,3.9554,3.959,3.9635,3.9564,3.9598,3.976,4.0332,4.0423,4.0047,4.0711,4.1328,4.1296,4.212,4.3002,4.3323,4.379,4.4213,4.4194,4.4744,4.5143,3.4167,3.4289,3.4274,3.4382,3.4563,3.4986,3.5511,3.6095,3.6653,3.7211,3.754,3.6987,3.7048,3.755,3.6958,3.7094,3.777,3.7707,3.7719,3.7775,3.7724,3.7674,3.7555,3.714,3.6864,3.6609,3.5949,3.5628,3.5628,3.5628,3.5673,3.5699,3.5159,3.5447,3.6445,3.6564,3.6335,3.5802,3.5365,3.5031,3.4743,3.3146,3.2277,3.2265,3.158,3.1225,3.1341,3.1207,3.1248,3.1443,3.2019,3.2797,3.3549,3.3716,3.4469,3.5939,3.561,3.5631,3.6451,3.7248,3.7685,3.7741,3.8208,3.8549,3.8656,3.8383,3.8113,3.7678,3.7014,3.6623,3.6637,3.5893,3.5769,3.6679,3.6228,3.6197,3.7566,3.7306,3.7473,3.8971,3.9101,3.9137,3.9259,3.9331,3.9446,3.9676,3.9722,3.9768,3.9873,3.9787,3.9728,3.9758,3.9834,3.9815,3.9654,3.9063,3.9052,3.9455,3.8984,3.8977,3.9451,3.9692,3.9595,3.9744,3.9682,4.0177,4.072,4.1246,4.1621,4.236,4.2673,4.2729,4.2842,4.3839,4.4773,3.4736,3.509,3.5091,3.5091,3.512,3.5327,3.556,3.5833,3.6412,3.721,3.8022,3.7727,3.77,3.7877,3.7584,3.7867,3.8497,3.8108,3.8159,3.8481,3.8113,3.791,3.7838,3.723,3.6937,3.6898,3.6039,3.5628,3.5628,3.5628,3.5633,3.5667,3.5367,3.5538,3.6097,3.6371,3.651,3.6586,3.6793,3.7052,3.7029,3.4688,3.3543,3.3885,3.325,3.3081,3.3519,3.3194,3.295,3.3031,3.3364,3.39,3.4655,3.4731,3.5274,3.6392,3.6678,3.7105,3.79,3.8305,3.8448,3.828,3.8586,3.8754,3.8564,3.8454,3.8146,3.7547,3.7143,3.7118,3.7482,3.6522,3.6297,3.7481,3.7184,3.7176,3.8425,3.8309,3.8439,3.9008,3.9101,3.9122,3.9185,3.9324,3.9477,3.9651,3.9705,3.9734,3.9867,3.973,3.9635,3.9682,3.9706,3.9605,3.9439,3.8874,3.8799,3.9095,3.8826,3.8649,3.93,3.9477,3.9408,3.9483,3.9489,3.9571,3.9977,4.059,4.1066,4.159,4.215,4.2388,4.2388,4.3354,4.4109,3.5322,3.5737,3.5768,3.5768,3.5783,3.5768,3.5874,3.6055,3.6483,3.7274,3.8239,3.8371,3.8352,3.8253,3.8222,3.8599,3.9169,3.8751,3.8768,3.922,3.8751,3.8514,3.843,3.7977,3.7638,3.7411,3.6807,3.6271,3.5983,3.5943,3.5915,3.5932,3.5932,3.596,3.609,3.6386,3.68,3.7357,3.7988,3.8578,3.8737,3.6926,3.5764,3.5628,3.4901,3.48,3.5356,3.486,3.4586,3.4639,3.4843,3.5249,3.577,3.5857,3.6148,3.6782,3.7535,3.8224,3.8844,3.8815,3.8714,3.8585,3.8556,3.8446,3.8318,3.8228,3.7932,3.7461,3.7273,3.7451,3.7463,3.6817,3.6938,3.8102,3.7765,3.7925,3.884,3.8904,3.8792,3.9045,3.9101,3.9101,3.9117,3.9292,3.9458,3.9538,3.9568,3.9641,3.9735,3.9593,3.9477,3.9581,3.9508,3.9433,3.9281,3.8758,3.8683,3.8902,3.874,3.8521,3.9308,3.9443,3.9364,3.9485,3.9489,3.9485,3.9601,4.0109,4.0478,4.0764,4.1335,4.1865,4.1529,4.2558,4.3076,3.643,3.6446,3.6445,3.643,3.6446,3.643,3.6769,3.7128,3.7264,3.7707,3.8294,3.8876,3.9136,3.9129,3.9114,3.9372,3.996,3.9914,3.988,3.9977,3.9931,3.9977,3.9994,3.9953,3.9423,3.8553,3.8231,3.7667,3.6784,3.6733,3.6761,3.6745,3.675,3.6745,3.6756,3.6802,3.7023,3.7627,3.8662,3.9591,4.0068,4.0414,3.9399,3.7588,3.6622,3.6292,3.6317,3.6237,3.6207,3.6207,3.6922,3.7389,3.7412,3.7419,3.7473,3.7614,3.8228,3.8661,3.8702,3.8465,3.8304,3.8388,3.8059,3.7845,3.7966,3.7837,3.7632,3.7542,3.7506,3.7242,3.6518,3.6786,3.7044,3.7288,3.7458,3.7927,3.8704,3.8405,3.8381,3.8883,3.9087,3.9101,3.9089,3.9219,3.9318,3.935,3.9337,3.9376,3.9489,3.942,3.9344,3.9325,3.9318,3.9323,3.923,3.8658,3.8621,3.8882,3.8749,3.8383,3.9147,3.9696,3.9574,3.9551,3.9726,3.97,3.9421,3.9426,3.964,4.0019,4.0626,4.0927,4.0709,4.163,4.2141,3.6492,3.6492,3.6492,3.6492,3.6492,3.6492,3.6616,3.6831,3.6831,3.7163,3.7847,3.8851,3.9525,3.9956,4.0766,4.0726,4.0146,4.0113,4.0113,4.0113,4.0113,4.0113,4.0045,3.965,3.9513,3.944,3.8616,3.7941,3.7567,3.7499,3.7499,3.7499,3.7499,3.7516,3.7516,3.7516,3.774,3.8211,3.8806,3.9431,4.0174,4.0491,4.0324,3.9829,3.9027,3.8605,3.8605,3.8127,3.7826,3.7845,3.8168,3.8297,3.8256,3.8279,3.8305,3.8323,3.855,3.8604,3.8382,3.8255,3.803,3.7694,3.7712,3.7631,3.7586,3.7559,3.7398,3.705,3.7354,3.7157,3.6661,3.6963,3.749,3.765,3.7766,3.7984,3.8405,3.849,3.8592,3.8854,3.9003,3.9101,3.9129,3.9212,3.9298,3.9305,3.9305,3.9357,3.9427,3.9343,3.9217,3.9259,3.9225,3.9165,3.9183,3.8521,3.8205,3.8596,3.8681,3.8606,3.9051,3.9423,3.9389,3.9308,3.961,3.9679,3.9298,3.9292,3.9395,3.9614,4.0228,4.0318,3.9959,4.0942,4.1327,3.6492,3.6492,3.6492,3.6492,3.6492,3.6492,3.6492,3.6492,3.6507,3.6863,3.757,3.858,3.9391,4.0084,4.1094,4.1081,4.0197,4.032,4.0337,4.0113,4.0113,4.0113,4.0028,3.9588,3.9604,3.9906,3.9122,3.8507,3.8278,3.8261,3.8249,3.8261,3.8244,3.8249,3.8249,3.8261,3.8436,3.8746,3.9258,3.9951,4.0664,4.1051,4.1423,4.1687,4.1093,4.0377,3.9926,3.9129,3.8699,3.8699,3.8699,3.8699,3.8699,3.858,3.8507,3.8499,3.8377,3.8203,3.7939,3.7834,3.7614,3.7255,3.7365,3.7383,3.7306,3.7476,3.73,3.705,3.7229,3.7345,3.7068,3.7291,3.7676,3.7863,3.7941,3.8069,3.8261,3.8502,3.8654,3.8785,3.8914,3.9028,3.9101,3.9171,3.9219,3.9232,3.9232,3.9278,3.9318,3.9232,3.9129,3.9205,3.9151,3.911,3.9129,3.874,3.8493,3.8808,3.8875,3.8817,3.8878,3.9175,3.9287,3.9194,3.9212,3.9268,3.9279,3.9256,3.9344,3.9477,3.9723,3.9951,4.0015,4.0317,4.0595,3.6492,3.6492,3.6492,3.6492,3.6492,3.6492,3.6492,3.6492,3.6492,3.6862,3.753,3.8135,3.8854,3.9453,4.0257,4.0231,4.0268,4.0804,4.0729,4.0134,4.0113,4.0113,4.0096,4.0028,3.9994,4.0104,4.0054,3.9656,3.9034,3.9005,3.9017,3.9017,3.8988,3.9017,3.9022,3.9017,3.9,3.928,4.022,4.1151,4.1803,4.2282,4.2805,4.3197,4.2543,4.1479,4.0073,3.9221,3.8817,3.8773,3.8726,3.8699,3.8611,3.8352,3.8118,3.8041,3.7747,3.756,3.7469,3.7199,3.7095,3.7063,3.7087,3.7087,3.7259,3.7429,3.7532,3.7496,3.7532,3.7541,3.7541,3.7559,3.7604,3.7622,3.781,3.7958,3.8035,3.8236,3.8494,3.8706,3.8803,3.8884,3.9024,3.9115,3.9147,3.9266,3.9303,3.931,3.9374,3.9333,3.9182,3.9115,3.9245,3.9387,3.9257,3.9108,3.9089,3.9108,3.9052,3.9027,3.912,3.9324,3.9342,3.9287,3.9398,3.9461,3.9208,3.9185,3.9292,3.9433,3.9581,3.9701,3.9885,4.0038,4.0013,3.6492,3.6492,3.6492,3.6492,3.6492,3.6492,3.6492,3.6492,3.6492,3.6876,3.7528,3.8177,3.9063,4.0078,4.0767,4.0754,4.0376,4.0937,4.0829,4.0189,4.01,4.0113,4.0113,4.0113,4.0113,4.0096,4.0112,3.9993,3.9791,3.9745,3.9757,3.9762,3.9745,3.9762,3.9728,3.9774,3.9774,3.9858,4.0368,4.1042,4.1746,4.219,4.2751,4.3336,4.2708,4.2011,4.1534,4.0249,3.9551,3.9489,3.8982,3.857,3.831,3.816,3.7973,3.7712,3.7587,3.7367,3.7105,3.6978,3.6781,3.6676,3.67,3.6878,3.7076,3.7278,3.7466,3.7576,3.7595,3.7595,3.7595,3.7595,3.7595,3.7595,3.7667,3.7739,3.7784,3.8003,3.8228,3.8504,3.8701,3.8829,3.8936,3.9048,3.944,3.9907,3.9981,3.9981,3.9963,3.9907,3.9702,3.9287,3.9528,3.9702,3.9517,3.9498,3.961,3.9387,3.9212,3.9101,3.9231,3.9287,3.9324,3.9361,3.9498,3.9461,3.9233,3.9163,3.9245,3.9318,3.942,3.9514,3.9605,3.967,3.9728,3.6492,3.6492,3.6492,3.6492,3.6492,3.6492,3.6492,3.6492,3.6492,3.6876,3.7496,3.7901,3.8839,3.996,4.0501,4.0417,4.0074,4.062,4.0508,3.9932,4.0033,4.0083,4.0113,4.0113,4.0113,4.0113,4.0113,4.0113,4.0113,4.0113,4.0096,4.0096,4.0113,4.0096,4.0113,4.0113,4.0113,4.015,4.0325,4.0795,4.1426,4.1743,4.2312,4.3032,4.2775,4.2634,4.2609,4.1317,4.0246,3.9654,3.8771,3.8136,3.7896,3.7729,3.7524,3.7312,3.7105,3.6911,3.6701,3.6668,3.6577,3.6395,3.6544,3.6786,3.6987,3.7182,3.7382,3.7567,3.7595,3.7595,3.7595,3.7595,3.7595,3.7595,3.7613,3.7595,3.7658,3.8026,3.8409,3.874,3.9105,3.9383,3.9649,3.98,4.0111,4.0707,4.0854,4.0631,4.0538,4.0371,3.9907,3.9621,3.9825,3.9851,3.9721,3.9851,4.0093,3.9758,3.9368,3.9194,3.9157,3.9157,3.9175,3.9194,3.9275,3.9312,3.9115,3.9108,3.9151,3.9212,3.9298,3.9408,3.9526,3.9575,3.9635,3.646,3.6492,3.6492,3.6492,3.6492,3.6492,3.6492,3.6492,3.6492,3.6923,3.7496,3.7575,3.8275,3.9266,3.9636,3.9526,3.9477,4.0224,4.0107,3.9686,3.9886,4.0248,4.0113,4.0113,4.0113,4.0113,4.0278,4.0295,4.0303,4.0405,4.0231,4.0388,4.0451,4.0231,4.0299,4.0185,4.0197,4.0125,4.0238,4.058,4.1099,4.1269,4.1796,4.276,4.2809,4.2895,4.295,4.1805,4.0601,3.9408,3.8349,3.7792,3.7601,3.7227,3.7126,3.7028,3.6564,3.6392,3.6315,3.6357,3.6336,3.6315,3.6513,3.6776,3.696,3.7153,3.7344,3.7558,3.7595,3.7595,3.7595,3.7738,3.7764,3.7755,3.7738,3.7648,3.7738,3.8362,3.8805,3.9229,3.986,4.0446,4.0826,4.0941,4.1216,4.156,4.1664,4.1367,4.0996,4.0761,4.0123,4.0048,4.0241,4.0223,4.0167,4.0873,4.1059,4.0557,4.0111,3.9825,3.9602,3.9565,3.9677,3.9602,3.9342,3.9268,3.9194,3.9275,3.921,3.9192,3.9278,3.9369,3.9414,3.9427,3.9495,3.6163,3.6476,3.6492,3.6492,3.6492,3.6492,3.6492,3.6492,3.6507,3.7169,3.7925,3.7683,3.8491,4.0039,3.9646,3.9463,3.969,4.0574,4.0417,3.9607,4.0451,4.0535,4.0197,4.0113,4.0113,4.0227,4.1112,4.1452,4.0997,4.1369,4.1623,4.1724,4.1555,4.1339,4.1018,4.0861,4.0608,4.0193,4.0226,4.05,4.0885,4.115,4.1602,4.216,4.2348,4.242,4.2356,4.0836,3.9937,3.9661,3.881,3.8467,3.8554,3.8106,3.7643,3.7321,3.6734,3.6301,3.6318,3.6301,3.6284,3.6284,3.6471,3.6578,3.695,3.7046,3.7259,3.7494,3.7595,3.7648,3.7729,3.8148,3.8629,3.9058,3.8371,3.7943,3.838,3.8673,3.9015,3.9608,4.011,4.0573,4.0944,4.1248,4.1625,4.2242,4.2456,4.2333,4.1869,4.146,4.0977,4.0668,4.0687,4.0668,4.0891,4.1709,4.1932,4.1449,4.1077,4.0828,4.065,4.0576,4.0817,4.1021,4.0315,4.0074,3.9795,3.9665,3.9491,3.9283,3.9185,3.9225,3.9232,3.924,3.9325,3.621,3.6492,3.6492,3.6492,3.6492,3.6492,3.6492,3.6553,3.683,3.7323,3.7954,3.7999,3.8722,3.9968,3.9661,3.9491,3.9657,4.0554,4.0513,4.011,4.0771,4.0761,4.0358,4.0447,4.0515,4.0311,4.183,4.1991,4.1467,4.1931,4.2252,4.2151,4.1982,4.1593,4.1157,4.0849,4.0557,4.0163,4.0188,4.0365,4.0642,4.0796,4.1168,4.1591,4.1803,4.1835,4.1687,4.0525,3.9789,3.9553,3.8804,3.8386,3.8858,3.8572,3.8193,3.7916,3.7243,3.6812,3.6732,3.6525,3.6473,3.6747,3.6858,3.7318,3.785,3.8026,3.8199,3.8127,3.8362,3.8389,3.8272,3.8798,3.9405,3.9637,3.9084,3.8772,3.9226,3.9601,3.9932,4.0381,4.0828,4.1246,4.157,4.1835,4.2353,4.2913,4.3245,4.3027,4.2705,4.2314,4.1876,4.1449,4.143,4.1579,4.1664,4.2277,4.2612,4.2192,4.2043,4.1794,4.1579,4.1486,4.1523,4.1579,4.1152,4.0799,4.0483,4.0093,3.9679,3.9445,3.9238,3.9152,3.9198,3.9144,3.92,3.6445,3.6492,3.6492,3.6492,3.6507,3.6569,3.6599,3.663,3.7292,3.7646,3.7846,3.8338,3.9045,3.9599,3.9751,3.9628,3.9676,4.0459,4.0608,4.0685,4.1004,4.0924,4.0523,4.1094,4.1071,4.0895,4.2364,4.2473,4.2127,4.235,4.2587,4.2608,4.2016,4.1563,4.1478,4.0815,4.0299,4.0333,4.0176,4.0188,4.032,4.0407,4.0688,4.1059,4.1242,4.1327,4.123,4.0637,4.0136,3.9848,3.8468,3.8396,3.8829,3.8858,3.872,3.8599,3.8054,3.7605,3.7536,3.707,3.6887,3.7489,3.7771,3.8255,3.8842,3.9079,3.9022,3.8751,3.9435,3.9344,3.9303,3.9661,4.0118,4.0332,4.0208,4.0154,4.0279,4.0725,4.1127,4.1234,4.1887,4.2352,4.2691,4.2985,4.3258,4.3248,4.3548,4.3517,4.3188,4.276,4.2352,4.1943,4.2166,4.2638,4.2705,4.2853,4.2983,4.2927,4.2927,4.2742,4.2407,4.224,4.2073,4.1943,4.1913,4.1616,4.1133,4.0668,4.0204,3.9907,3.9888,3.9572,3.9319,3.9177,3.9158,3.6116,3.6492,3.6492,3.6492,3.66,3.7046,3.6984,3.6646,3.7784,3.8276,3.843,3.8984,3.9645,4.0276,4.0213,4.0291,4.0315,4.0881,4.1246,4.1199,4.1212,4.1248,4.1139,4.1558,4.1687,4.2051,4.3443,4.3705,4.3244,4.3484,4.4076,4.3907,4.3149,4.2899,4.2662,4.1559,4.1077,4.1086,4.0548,4.0197,4.0231,4.0259,4.0362,4.0585,4.0753,4.0901,4.0856,4.0274,4.0124,4.0262,3.9813,3.9485,3.9986,3.9744,3.9491,3.9313,3.8795,3.8364,3.8312,3.8157,3.8129,3.8306,3.8453,3.8599,3.8899,3.9152,3.9168,3.9086,3.9278,3.9761,4.0233,4.0617,4.1006,4.139,4.1571,4.1635,4.1673,4.1377,4.1459,4.1887,4.2165,4.2402,4.2673,4.2995,4.3286,4.3563,4.3742,4.3862,4.3578,4.318,4.2875,4.2526,4.2636,4.3007,4.315,4.3262,4.3392,4.3448,4.3485,4.3503,4.3169,4.3095,4.2965,4.2909,4.2909,4.2463,4.1869,4.1553,4.1144,4.0847,4.052,4.0278,4.0,3.9602,3.9294,3.5847,3.6476,3.6492,3.6492,3.6599,3.7215,3.7323,3.7277,3.8384,3.8968,3.9107,3.9676,4.0166,4.0507,4.0489,4.0489,4.0646,4.1193,4.1483,4.1516,4.1701,4.2034,4.234,4.2377,4.2517,4.2638,4.3854,4.4094,4.3805,4.4161,4.4499,4.4516,4.3809,4.3338,4.3288,4.2286,4.1843,4.1754,4.1212,4.0759,4.0658,4.0333,4.026,4.0334,4.0551,4.0733,4.0765,4.0509,4.0538,4.0687,4.0503,4.0417,4.0745,4.0515,4.0296,4.0141,3.9554,3.9158,3.9089,3.883,3.8698,3.9106,3.9242,3.9579,3.9886,4.0075,3.9986,3.9925,4.0137,4.0622,4.111,4.123,4.164,4.1915,4.2114,4.2173,4.2195,4.1923,4.178,4.219,4.2279,4.2452,4.2691,4.2975,4.3268,4.3538,4.3804,4.3926,4.3886,4.3545,4.347,4.3262,4.318,4.3307,4.3472,4.3633,4.3819,4.3838,4.3819,4.3838,4.3689,4.3782,4.3893,4.3708,4.3429,4.315,4.263,4.2352,4.198,4.1467,4.1114,4.1003,4.0866,4.0643,4.026,3.5507,3.6369,3.6445,3.6492,3.6599,3.7231,3.7492,3.7677,3.8922,3.9398,3.9613,4.0197,4.0428,4.0489,4.0489,4.0489,4.0646,4.0956,4.1215,4.1284,4.1853,4.2401,4.2922,4.3138,4.3203,4.2838,4.3972,4.4144,4.3995,4.4212,4.4567,4.4465,4.3778,4.3575,4.342,4.2743,4.2445,4.2658,4.2027,4.1672,4.1407,4.0826,4.0417,4.0326,4.0527,4.069,4.0745,4.076,4.0877,4.0894,4.0894,4.0894,4.0894,4.0894,4.0894,4.0843,4.021,3.9934,3.9813,3.9468,3.9347,3.9876,4.006,4.0451,4.0943,4.1028,4.0863,4.0842,4.09,4.1288,4.1531,4.1532,4.167,4.187,4.1906,4.203,4.2236,4.2297,4.2262,4.2262,4.2308,4.2402,4.2603,4.2854,4.3178,4.3512,4.3771,4.3958,4.391,4.3825,4.3688,4.3659,4.3536,4.354,4.3698,4.3763,4.3986,4.3997,4.3997,4.3997,4.3997,4.3997,4.3997,4.3997,4.3782,4.3485,4.3318,4.3113,4.2649,4.2043,4.1802,4.1776,4.1739,4.1672,4.1207,3.4845,3.5706,3.6276,3.6492,3.6615,3.7215,3.7538,3.7723,3.8968,3.9507,3.9614,4.0182,4.0489,4.0489,4.0489,4.0489,4.0558,4.0732,4.0749,4.087,4.1459,4.2109,4.2754,4.3317,4.3652,4.4176,4.4533,4.4448,4.4381,4.455,4.4584,4.4432,4.3859,4.3741,4.3809,4.321,4.3064,4.364,4.2922,4.2482,4.2234,4.142,4.0616,4.036,4.0466,4.0571,4.0714,4.0817,4.0894,4.0894,4.0894,4.0894,4.0894,4.0894,4.0894,4.0843,4.0624,4.04,4.0498,4.0486,4.0515,4.0687,4.0682,4.0723,4.0942,4.1,4.0955,4.0961,4.1018,4.1266,4.1277,4.1408,4.1681,4.1827,4.1902,4.1998,4.2225,4.2297,4.2226,4.2137,4.22,4.2323,4.2527,4.2697,4.2914,4.3264,4.3631,4.382,4.3886,4.3806,4.3677,4.3701,4.3726,4.3788,4.391,4.3934,4.3997,4.3997,4.3997,4.3997,4.3997,4.3997,4.3997,4.3997,4.3997,4.3856,4.3726,4.367,4.3522,4.3058,4.2835,4.2612,4.2537,4.2426,4.1932,3.4512,3.6015,3.6384,3.6492,3.6692,3.76,3.7999,3.8214,3.9414,4.0013,4.0122,4.0351,4.0489,4.0489,4.0489,4.0489,4.0489,4.0489,4.0489,4.0662,4.1208,4.1868,4.2504,4.3181,4.3883,4.4392,4.4567,4.4584,4.4584,4.4584,4.4584,4.4516,4.4147,4.4245,4.4398,4.3972,4.3881,4.4309,4.386,4.3156,4.263,4.1382,4.054,4.0349,4.0337,4.0461,4.0583,4.0721,4.0829,4.0871,4.0894,4.0894,4.0894,4.0894,4.0894,4.086,4.0572,4.0538,4.0705,4.0607,4.0382,4.0825,4.0894,4.0894,4.0894,4.0906,4.0894,4.0901,4.0936,4.1041,4.1041,4.1163,4.1386,4.1653,4.1762,4.1934,4.2176,4.2277,4.2119,4.1869,4.1691,4.187,4.2446,4.2597,4.2686,4.3022,4.345,4.3656,4.3795,4.3639,4.3487,4.3664,4.3722,4.3902,4.3974,4.3989,4.3997,4.3997,4.3997,4.3997,4.3997,4.3997,4.3997,4.3997,4.3997,4.3997,4.3968,4.3856,4.3949,4.3997,4.3633,4.3318,4.3299,4.3095,4.2612,3.4258,3.6292,3.6461,3.6569,3.6861,3.7815,3.8445,3.8891,3.9784,4.032,4.0489,4.0489,4.0489,4.0489,4.0489,4.0489,4.0489,4.0489,4.0489,4.0578,4.099,4.1657,4.2489,4.306,4.3691,4.4497,4.4584,4.4584,4.4584,4.4584,4.4584,4.4567,4.4567,4.4584,4.453,4.4429,4.4584,4.4584,4.455,4.3805,4.2367,4.1217,4.0362,4.015,4.0263,4.0412,4.0588,4.0709,4.0817,4.0888,4.0894,4.0894,4.0894,4.0894,4.0894,4.0791,4.0279,4.0417,4.0538,4.0451,4.0417,4.086,4.0894,4.0894,4.0894,4.0877,4.0843,4.0727,4.0618,4.0596,4.0567,4.0677,4.1024,4.1504,4.1675,4.1805,4.2135,4.219,4.1887,4.1573,4.1217,4.1376,4.1928,4.2086,4.2098,4.2748,4.3178,4.3442,4.3536,4.3258,4.3205,4.3504,4.3697,4.3918,4.3997,4.3989,4.3997,4.3997,4.3997,4.3997,4.3997,4.3997,4.3997,4.3997,4.3997,4.3997,4.3997,4.3997,4.3997,4.3997,4.3997,4.3931,4.3726,4.3652,4.3392,3.4104,3.5676,3.6261,3.683,3.7323,3.7584,3.8338,3.9307,3.9584,3.9967,4.0489,4.0489,4.0489,4.0489,4.0489,4.0489,4.0489,4.0489,4.0489,4.0541,4.0681,4.1377,4.2363,4.2536,4.3499,4.4384,4.4584,4.4584,4.4584,4.4584,4.4584,4.4584,4.4584,4.4584,4.4584,4.4584,4.4584,4.4567,4.4499,4.3738,4.2469,4.1914,4.1167,4.0569,4.0375,4.051,4.0648,4.0757,4.0864,4.09,4.0894,4.0894,4.0894,4.0894,4.0894,4.0883,4.0814,4.0808,4.086,4.0618,4.0589,4.0825,4.0894,4.0894,4.0774,4.071,4.0503,3.9853,3.9848,3.9934,4.0003,4.01,4.065,4.1235,4.1653,4.1892,4.2194,4.2169,4.1831,4.1448,4.1145,4.1109,4.1376,4.1415,4.1538,4.2275,4.2883,4.3142,4.3284,4.3069,4.3004,4.3321,4.3705,4.3942,4.3997,4.3997,4.3997,4.3997,4.3997,4.3997,4.3997,4.3997,4.3997,4.3997,4.3997,4.3997,4.3997,4.3997,4.3997,4.3997,4.3997,4.3997,4.3978,4.3949,4.3912,3.5095,3.6107,3.6384,3.6661,3.7015,3.7723,3.8368,3.8999,3.9753,4.023,4.0459,4.0489,4.0489,4.0489,4.0489,4.0489,4.0489,4.0489,4.0489,4.0489,4.061,4.1226,4.2237,4.2583,4.3259,4.4281,4.4584,4.4584,4.4584,4.4584,4.4584,4.4584,4.4584,4.4584,4.4584,4.4584,4.4296,4.3809,4.3115,4.2354,4.1745,4.1267,4.0841,4.0339,4.0379,4.0527,4.0673,4.0733,4.0829,4.0876,4.0894,4.0894,4.0894,4.0894,4.0894,4.0894,4.0883,4.0877,4.086,4.0515,4.0572,4.0825,4.0848,4.0693,4.04,4.0244,3.9968,3.9158,3.9089,3.9278,3.9629,3.979,4.0434,4.1055,4.1611,4.1805,4.2009,4.2015,4.1841,4.1446,4.1109,4.1092,4.1127,4.13,4.1507,4.1963,4.2531,4.2855,4.305,4.306,4.3069,4.3196,4.3597,4.3989,4.3997,4.3997,4.3997,4.3997,4.3997,4.3997,4.3997,4.3997,4.3997,4.3997,4.3997,4.3997,4.3997,4.3997,4.3997,4.3997,4.3997,4.3997,4.3997,4.4005,4.3968,3.5737,3.6476,3.6492,3.66,3.6861,3.7999,3.8616,3.8907,3.9984,4.0489,4.0489,4.0489,4.0489,4.0489,4.0489,4.0489,4.0489,4.0489,4.0489,4.0489,4.0646,4.1294,4.2141,4.2614,4.3228,4.4584,4.4584,4.4584,4.4584,4.4584,4.4584,4.4584,4.4584,4.4584,4.4584,4.4533,4.4279,4.349,4.2665,4.1933,4.1353,4.0879,4.0628,4.0447,4.0429,4.0515,4.0697,4.0757,4.0829,4.0876,4.0894,4.0894,4.0894,4.0894,4.0894,4.0894,4.0894,4.0894,4.0774,4.0567,4.0417,4.0658,4.0877,4.0693,4.0279,3.9986,3.9681,3.914,3.9043,3.9399,3.9773,3.9945,4.0533,4.1104,4.1559,4.1684,4.1809,4.1941,4.1862,4.1449,4.1163,4.1046,4.1127,4.1324,4.1558,4.1807,4.2163,4.255,4.2777,4.2967,4.3133,4.3241,4.3614,4.3981,4.3997,4.3997,4.3997,4.3997,4.3997,4.3997,4.3997,4.3997,4.3997,4.3997,4.3997,4.3997,4.3997,4.3997,4.3997,4.3997,4.3997,4.3997,4.3997,4.3997,4.3997,3.5322,3.6492,3.6492,3.6846,3.74,3.8185,3.8845,3.9307,4.0153,4.0489,4.0489,4.0489,4.0489,4.0489,4.0489,4.0489,4.0489,4.0489,4.0489,4.0489,4.061,4.1244,4.2013,4.2614,4.3168,4.431,4.4556,4.4584,4.4584,4.4584,4.4584,4.4584,4.4584,4.4584,4.4533,4.4432,4.4009,4.3396,4.285,4.2221,4.1627,4.1192,4.1083,4.0732,4.066,4.0733,4.0888,4.0876,4.0876,4.0894,4.0894,4.0894,4.0894,4.0894,4.0894,4.0894,4.0894,4.0894,4.0808,4.0791,4.0825,4.0877,4.0877,4.0779,4.0417,4.0676,4.0382,3.9692,3.9543,4.002,4.0366,4.0556,4.0868,4.1401,4.1707,4.1633,4.1809,4.204,4.1906,4.1454,4.1306,4.1359,4.1359,4.1619,4.1512,4.1725,4.2076,4.2462,4.2671,4.2882,4.3151,4.3365,4.3705,4.395,4.3997,4.3997,4.3997,4.3997,4.3997,4.3997,4.3997,4.3997,4.3997,4.3997,4.3997,4.3997,4.3997,4.3997,4.3997,4.3997,4.3997,4.3997,4.3997,4.3997,4.3997,3.603,3.6492,3.6492,3.6661,3.6969,3.8046,3.8645,3.9045,4.0014,4.0489,4.0489,4.0489,4.0489,4.0489,4.0489,4.0489,4.0489,4.0489,4.0489,4.0489,4.0629,4.1075,4.1755,4.2426,4.3016,4.3885,4.4324,4.4584,4.4584,4.4584,4.4584,4.4584,4.4584,4.4584,4.4516,4.4195,4.3596,4.2999,4.2488,4.1737,4.1157,4.0888,4.0854,4.0753,4.0714,4.0769,4.0859,4.0883,4.0894,4.0894,4.0894,4.0894,4.0894,4.0894,4.0929,4.0963,4.0981,4.0998,4.0986,4.0963,4.0894,4.0894,4.0877,4.0762,4.0555,4.0641,4.0434,4.0124,4.025,4.0865,4.1338,4.1069,4.0977,4.1678,4.1963,4.1863,4.1978,4.2317,4.2319,4.2052,4.1984,4.1976,4.1958,4.1958,4.1762,4.1639,4.2004,4.2348,4.2562,4.2825,4.3133,4.3391,4.3714,4.3942,4.3997,4.3997,4.3997,4.3997,4.3997,4.3997,4.3997,4.3997,4.3997,4.3997,4.3997,4.3997,4.3997,4.3997,4.3997,4.3997,4.3997,4.3997,4.3997,4.3997,4.3997,3.6338,3.6492,3.6492,3.6492,3.6645,3.7723,3.8322,3.8691,3.9691,4.0351,4.0489,4.0489,4.0489,4.0489,4.0489,4.0489,4.0489,4.0489,4.0489,4.0489,4.0558,4.0905,4.1525,4.2189,4.2892,4.3543,4.4193,4.4584,4.4584,4.4584,4.4584,4.4584,4.4584,4.4584,4.4479,4.4118,4.3508,4.2885,4.2223,4.1711,4.1329,4.0876,4.093,4.0992,4.0941,4.0817,4.0871,4.0894,4.0894,4.0894,4.0894,4.0894,4.0894,4.0929,4.1021,4.1124,4.1228,4.1291,4.1481,4.1314,4.1141,4.0963,4.1567,4.1176,4.0814,4.1072,4.1469,4.1159,4.1429,4.1878,4.2504,4.2196,4.2139,4.2864,4.2753,4.2664,4.2786,4.301,4.2885,4.273,4.2687,4.2608,4.2262,4.2208,4.2137,4.1958,4.2083,4.2328,4.244,4.2747,4.3142,4.341,4.3672,4.3862,4.3997,4.3997,4.3997,4.3997,4.3997,4.3997,4.3997,4.3997,4.3997,4.3997,4.3997,4.3997,4.3997,4.3997,4.3997,4.3997,4.3997,4.3997,4.3997,4.3997,4.3997,3.5937,3.6476,3.6492,3.6492,3.6584,3.7246,3.7938,3.8585,3.9353,3.9999,4.0459,4.0489,4.0489,4.0489,4.0489,4.0489,4.0489,4.0489,4.0543,4.0629,4.0715,4.099,4.1608,4.2316,4.2999,4.3558,4.4193,4.4584,4.4584,4.4584,4.4584,4.4598,4.4629,4.4626,4.4612,4.472,4.4433,4.3833,4.313,4.2856,4.2301,4.1459,4.1392,4.13,4.1123,4.0888,4.0883,4.0894,4.0894,4.0894,4.0894,4.0894,4.0894,4.1021,4.1262,4.1659,4.1895,4.2327,4.2926,4.2332,4.1849,4.1464,4.2171,4.2361,4.2194,4.2539,4.2965,4.2568,4.3017,4.3448,4.3655,4.3603,4.3621,4.361,4.3487,4.3395,4.3496,4.3662,4.3551,4.3479,4.3408,4.324,4.2733,4.2404,4.244,4.2387,4.2315,4.2338,4.2425,4.2736,4.3151,4.3383,4.3631,4.387,4.3997,4.3997,4.3997,4.3997,4.3997,4.3997,4.3997,4.3997,4.3997,4.3997,4.3997,4.3997,4.3997,4.3997,4.3997,4.3997,4.3997,4.3997,4.3997,4.3997,4.3997,3.6276,3.6492,3.6492,3.6492,3.6645,3.7707,3.8307,3.8661,3.963,4.029,4.0459,4.0489,4.0489,4.0489,4.0489,4.0489,4.0489,4.0507,4.0595,4.1092,4.1042,4.1592,4.2141,4.2661,4.3227,4.3632,4.4176,4.4584,4.4584,4.4584,4.4584,4.4598,4.4713,4.4737,4.4734,4.4752,4.4511,4.4093,4.3718,4.3322,4.2447,4.1893,4.1521,4.1366,4.1067,4.0912,4.0894,4.0894,4.0894,4.0912,4.0929,4.0981,4.1101,4.1262,4.1555,4.1797,4.1999,4.2879,4.3293,4.3172,4.3189,4.2913,4.2861,4.3207,4.2896,4.3487,4.381,4.4052,4.4285,4.4613,4.4841,4.4298,4.4172,4.4232,4.4141,4.3968,4.4004,4.4239,4.4317,4.4264,4.4203,4.4132,4.3775,4.334,4.3233,4.2983,4.2894,4.2547,4.2499,4.283,4.3214,4.3383,4.3607,4.3854,4.3997,4.3997,4.3997,4.3997,4.3997,4.3997,4.3997,4.3997,4.3997,4.3997,4.3997,4.3997,4.3997,4.3997,4.3997,4.3997,4.3997,4.3997,4.3997,4.3997,4.3997,3.6492,3.6492,3.6492,3.6492,3.663,3.743,3.8015,3.8616,3.9661,4.0259,4.0459,4.0489,4.0489,4.0489,4.0489,4.0489,4.0489,4.0507,4.0593,4.1142,4.1126,4.1476,4.211,4.2862,4.3166,4.3603,4.4162,4.4584,4.4584,4.4584,4.4626,4.4709,4.482,4.4882,4.4923,4.491,4.4858,4.4534,4.4303,4.379,4.2997,4.2332,4.1762,4.1417,4.1101,4.0894,4.0894,4.0894,4.0912,4.0946,4.1101,4.124,4.1469,4.1831,4.2228,4.2499,4.3125,4.3919,4.4177,4.4333,4.4315,4.4074,4.397,4.3815,4.3781,4.4264,4.4561,4.4854,4.5186,4.5276,4.5272,4.4716,4.4729,4.4796,4.4867,4.4694,4.4917,4.5181,4.5194,4.5123,4.5006,4.4935,4.4745,4.4478,4.4168,4.3811,4.3472,4.3118,4.2851,4.324,4.3588,4.3703,4.3892,4.4201,4.4209,4.3997,4.3997,4.3997,4.3997,4.3997,4.3997,4.3997,4.3997,4.3997,4.3997,4.3997,4.3997,4.3997,4.3997,4.3997,4.3997,4.3997,4.3997,4.3997,4.3997,3.6492,3.6492,3.6492,3.6492,3.6507,3.663,3.7323,3.8523,3.9184,3.9797,4.0351,4.0259,4.0182,4.0337,4.0382,4.0382,4.0428,4.0428,4.0645,4.0698,4.0904,4.1259,4.1739,4.2363,4.2952,4.3588,4.4076,4.4412,4.4556,4.464,4.4696,4.4803,4.4923,4.5046,4.514,4.5177,4.5178,4.5017,4.4729,4.429,4.3712,4.2948,4.2447,4.1981,4.1521,4.1193,4.1101,4.0998,4.0998,4.1188,4.1573,4.1866,4.2263,4.281,4.3552,4.4246,4.4893,4.4928,4.5134,4.5203,4.5221,4.4979,4.5152,4.4906,4.4716,4.4841,4.5065,4.5186,4.5345,4.5363,4.5324,4.5303,4.529,4.5433,4.5612,4.577,4.6056,4.6159,4.6109,4.6033,4.5887,4.5695,4.5327,4.506,4.5095,4.4764,4.4493,4.4409,4.4186,4.413,4.4373,4.4253,4.4461,4.4668,4.4562,4.4283,4.4283,4.4376,4.4079,4.3997,4.3997,4.4023,4.3997,4.3997,4.3997,4.3997,4.3997,4.3997,4.3997,4.3997,4.3997,4.3997,4.3997,4.3997,4.3997,3.6492,3.6492,3.6492,3.6492,3.6492,3.6492,3.7261,3.8462,3.8738,3.8938,3.9076,3.9076,3.9214,3.9107,3.9568,3.9753,3.9984,4.0283,4.0808,4.0989,4.1022,4.1591,4.2046,4.2442,4.2938,4.3393,4.3825,4.4239,4.4556,4.4668,4.4803,4.4937,4.5073,4.5207,4.5291,4.5344,4.5371,4.5332,4.5083,4.4734,4.4414,4.3724,4.3189,4.2603,4.205,4.1728,4.1555,4.121,4.1262,4.1728,4.1883,4.2176,4.2913,4.3586,4.4298,4.4893,4.4928,4.4751,4.5272,4.5414,4.5414,4.5414,4.5414,4.5363,4.5207,4.5225,4.5414,4.5414,4.545,4.5476,4.545,4.5446,4.5576,4.5765,4.5925,4.6124,4.6393,4.6566,4.6539,4.6572,4.6444,4.6355,4.598,4.6034,4.6027,4.5737,4.5538,4.5512,4.5454,4.5395,4.5268,4.515,4.5213,4.5469,4.4989,4.4636,4.4692,4.4692,4.4451,4.4191,4.4135,4.4135,4.4061,4.4061,4.4153,4.4098,4.3997,4.3997,4.3997,4.3997,4.3997,4.3997,4.3997,4.3997,4.3997,3.6492,3.6492,3.6492,3.6492,3.6492,3.6492,3.7015,3.7692,3.7984,3.8214,3.8508,3.8554,3.8523,3.8661,3.9214,3.9536,3.9599,4.0199,4.0713,4.087,4.1141,4.1706,4.2157,4.2552,4.3137,4.3558,4.3958,4.4296,4.4598,4.4806,4.4954,4.5069,4.522,4.5318,4.5388,4.5384,4.5414,4.5414,4.529,4.4941,4.4609,4.4276,4.369,4.2953,4.2413,4.2378,4.2073,4.1624,4.2056,4.2504,4.262,4.3086,4.3741,4.4333,4.4785,4.5259,4.5134,4.5065,4.5359,4.5414,4.5414,4.5414,4.5414,4.5397,4.538,4.538,4.5414,4.5427,4.5502,4.555,4.5511,4.5511,4.5752,4.5988,4.6124,4.6272,4.6501,4.6754,4.687,4.6939,4.6955,4.6938,4.692,4.7009,4.6942,4.657,4.6525,4.6728,4.6622,4.6501,4.6332,4.6167,4.6231,4.6327,4.5732,4.5287,4.5435,4.5417,4.5026,4.4766,4.4514,4.4209,4.4098,4.4191,4.4358,4.4246,4.4116,4.4023,4.3997,4.3997,4.3997,4.3997,4.3997,4.3997,4.3997,3.6492,3.6492,3.6492,3.6492,3.6492,3.6492,3.6538,3.6553,3.7184,3.7754,3.82,3.8308,3.82,3.82,3.8861,3.9261,3.9537,4.0076,4.0507,4.0524,4.0629,4.1193,4.1804,4.2347,4.2644,4.375,4.4338,4.4061,4.4595,4.4872,4.5073,4.5203,4.5331,4.5414,4.5414,4.5414,4.5414,4.5414,4.5311,4.5065,4.4574,4.4156,4.3712,4.262,4.262,4.2879,4.2487,4.2608,4.3172,4.3448,4.3776,4.4138,4.4574,4.4906,4.5272,4.5363,4.5276,4.5311,4.5363,4.5414,4.5414,4.5414,4.5414,4.5414,4.5414,4.5414,4.5414,4.5524,4.5624,4.5714,4.5714,4.5778,4.5963,4.6124,4.6265,4.6447,4.6684,4.6836,4.6899,4.6957,4.7009,4.7009,4.7009,4.7009,4.7009,4.697,4.7157,4.7444,4.7547,4.7413,4.7252,4.7039,4.7003,4.6958,4.6661,4.6308,4.6364,4.6215,4.5788,4.5509,4.5361,4.4804,4.4108,4.4191,4.4265,4.4302,4.4228,4.4116,4.3997,4.3997,4.3997,4.3997,4.3997,4.3997,4.3997,3.6492,3.6492,3.6492,3.6492,3.6492,3.6492,3.6492,3.6523,3.6645,3.6861,3.6969,3.7015,3.7046,3.7292,3.8276,3.8753,3.9014,3.9876,4.0382,4.0507,4.0489,4.0749,4.1025,4.1393,4.1821,4.2327,4.2929,4.3875,4.4617,4.5005,4.5167,4.5203,4.5344,4.5414,4.5414,4.5414,4.5414,4.5414,4.5363,4.5031,4.4449,4.4647,4.4479,4.3453,4.3189,4.3258,4.2884,4.2556,4.3241,4.381,4.4121,4.4574,4.5117,4.5307,4.5393,4.5414,4.5414,4.5414,4.5414,4.5414,4.5449,4.5466,4.5466,4.5432,4.5414,4.5414,4.5506,4.5671,4.5773,4.5862,4.595,4.605,4.6161,4.6289,4.6386,4.6602,4.6842,4.6888,4.6911,4.6945,4.6998,4.7009,4.7009,4.7009,4.7009,4.7116,4.7302,4.7574,4.7868,4.7882,4.7822,4.7662,4.7563,4.7478,4.7311,4.7237,4.7237,4.707,4.668,4.6438,4.6178,4.5714,4.5157,4.4358,4.4098,4.4395,4.4469,4.4079,4.3997,4.3997,4.3997,4.3997,4.3997,4.3997,4.3997,3.6492,3.6492,3.6492,3.6492,3.6492,3.6492,3.6492,3.6492,3.6492,3.6492,3.6492,3.6492,3.6507,3.6599,3.7615,3.8338,3.863,3.9568,4.0136,4.0397,4.0541,4.0751,4.0785,4.087,4.1609,4.2156,4.3257,4.4259,4.4875,4.5086,4.522,4.5287,4.5384,4.5414,4.5414,4.5414,4.5414,4.5414,4.5414,4.5027,4.4488,4.482,4.4841,4.3988,4.3901,4.3901,4.3781,4.347,4.4078,4.4578,4.4803,4.491,4.5272,4.538,4.5397,4.5414,4.5414,4.5414,4.5432,4.5483,4.5621,4.5793,4.5914,4.6048,4.6209,4.6236,4.6183,4.6295,4.602,4.6062,4.6149,4.6235,4.6357,4.6483,4.653,4.6661,4.6842,4.6945,4.6957,4.6968,4.7009,4.7009,4.7009,4.7009,4.702,4.7077,4.7305,4.7589,4.7903,4.8163,4.8163,4.8203,4.8087,4.8176,4.8203,4.811,4.8036,4.7794,4.7497,4.6977,4.6568,4.6539,4.6205,4.5398,4.4915,4.4989,4.4915,4.4469,4.4079,4.3997,4.3997,4.3997,4.3997,4.3997,4.3997,3.6415,3.6492,3.6492,3.6492,3.6492,3.6492,3.6492,3.6492,3.6492,3.6492,3.6538,3.6615,3.66,3.6738,3.7323,3.7938,3.8661,3.9599,4.0091,4.0366,4.0489,4.0681,4.0956,4.126,4.1755,4.2711,4.3906,4.4549,4.514,4.5247,4.53,4.5384,4.5414,4.5414,4.5414,4.5414,4.5414,4.5414,4.5341,4.5065,4.4975,4.4979,4.4682,4.4665,4.4751,4.4854,4.4699,4.4768,4.5169,4.5328,4.529,4.5311,4.5345,4.5414,4.5414,4.5414,4.5414,4.55,4.5621,4.5738,4.6134,4.6496,4.6669,4.6817,4.6961,4.704,4.6986,4.6898,4.6638,4.6525,4.661,4.6524,4.6661,4.6714,4.6749,4.6773,4.693,4.7045,4.7027,4.7027,4.7009,4.7009,4.7009,4.7009,4.7032,4.71,4.7249,4.7568,4.786,4.8083,4.8198,4.8393,4.8506,4.8661,4.8807,4.8704,4.85,4.8436,4.8091,4.746,4.7014,4.7033,4.6865,4.6457,4.6104,4.5844,4.5398,4.4934,4.4562,4.4283,4.4023,4.4023,4.3997,4.3997,4.3997,3.6014,3.6492,3.6492,3.6492,3.6492,3.6492,3.6492,3.6492,3.6492,3.6492,3.6661,3.703,3.7077,3.6584,3.7815,3.8476,3.8753,3.963,4.0168,4.0489,4.0489,4.061,4.0819,4.1193,4.1673,4.2837,4.4098,4.4726,4.5194,4.5314,4.5371,4.5414,4.5414,4.5414,4.5414,4.5414,4.5414,4.5414,4.5414,4.5238,4.5272,4.5065,4.4475,4.4281,4.4091,4.4294,4.438,4.4414,4.4854,4.5203,4.5414,4.5414,4.5414,4.5414,4.5414,4.5483,4.5466,4.5824,4.5996,4.6272,4.6755,4.7358,4.7496,4.7496,4.7706,4.7949,4.7954,4.8062,4.7857,4.7735,4.7678,4.7228,4.7179,4.7126,4.7131,4.7167,4.7242,4.7205,4.7152,4.7116,4.7062,4.7045,4.7009,4.7009,4.7009,4.7043,4.7043,4.7359,4.7649,4.7903,4.82,4.8467,4.8732,4.8838,4.8872,4.8872,4.8742,4.877,4.8677,4.811,4.772,4.759,4.7386,4.7163,4.6773,4.6401,4.5937,4.5602,4.5287,4.4989,4.4302,4.4023,4.4061,4.3997,4.3997]}]]